[[{"header":{"parameterUnit":"m.s-1","parameterCategory":1,"la1":30.6,"la2":28.766,"lo1":-90.7593,"lo2":-88.6598,"dx":0.0162,"dy":0.0183,"nx":116,"ny":114,"refTime":"2023-02-13T06:00:00:Z","depth":0,"parameterNumber":2,"parameterNumberName":"U-component_of_WINDS"},"data":[0.0,0.0,0.0,0.0,0.0,0.0,0.0,0.0,0.0,0.0,0.0,0.0,0.0,0.0,0.0,0.0,0.0,0.0,0.0,0.0,0.0,0.0,0.0,0.0,0.0,0.0,0.0,0.0,0.0,0.0,0.0,0.0,0.0,0.0,0.0,0.0,0.0,0.0,0.0,0.0,0.0,0.0,0.0,0.0,0.0,0.0,0.0,0.0,0.0,0.0,0.0,0.0,0.0,0.0,0.0,0.0,0.0,0.0,0.0,0.0,0.0,0.0,0.0,0.0,0.0,0.0,0.0,0.0,0.0,0.0,0.0,0.0,0.0,0.0,0.0,0.0,0.0,0.0,0.0,0.0,0.0,0.0,0.0,0.0,0.0,0.0,0.0,0.0,0.0,0.0,0.0,0.0,0.0,0.0,0.0,0.0,0.0,0.0,0.0,0.0,0.0,0.0,0.0,0.0,0.0,0.0,0.0,0.0,0.0,0.0,0.0,0.0,0.0,0.0,0.0,0.0,0.0,0.0,0.0,0.0,0.0,0.0,0.0,0.0,0.0,0.0,0.0,0.0,0.0,0.0,0.0,0.0,0.0,0.0,0.0,0.0,0.0,0.0,0.0,0.0,0.0,0.0,0.0,0.0,0.0,0.0,0.0,0.0,0.0,0.0,0.0,0.0,0.0,0.0,0.0,0.0,0.0,0.0,0.0,0.0,0.0,0.0,0.0,0.0,0.0,0.0,0.0,0.0,0.0,0.0,0.0,0.0,0.0,0.0,0.0,0.0,0.0,0.0,0.0,0.0,0.0,0.0,0.0,0.0,0.0,0.0,0.0,0.0,0.0,0.0,0.0,0.0,0.0,0.0,0.0,0.0,0.0,0.0,0.0,0.0,0.0,0.0,0.0,0.0,0.0,0.0,0.0,0.0,0.0,0.0,0.0,0.0,0.0,0.0,0.0,0.0,0.0,0.0,0.0,0.0,0.0,0.0,0.0,0.0,0.0,0.0,0.0,0.0,0.0,0.0,0.0,0.0,0.0,0.0,0.0,0.0,0.0,0.0,0.0,0.0,0.0,0.0,0.0,0.0,0.0,0.0,0.0,0.0,0.0,0.0,0.0,0.0,0.0,0.0,0.0,0.0,0.0,0.0,0.0,0.0,0.0,0.0,0.0,0.0,0.0,0.0,0.0,0.0,0.0,0.0,0.0,0.0,0.0,0.0,0.0,0.0,0.0,0.0,0.0,0.0,0.0,0.0,0.0,0.0,0.0,0.0,0.0,0.0,0.0,0.0,0.0,0.0,0.0,0.0,0.0,0.0,0.0,0.0,0.0,0.0,0.0,0.0,0.0,0.0,0.0,0.0,0.0,0.0,0.0,0.0,0.0,0.0,0.0,0.0,0.0,0.0,0.0,0.0,0.0,0.0,0.0,0.0,0.0,0.0,0.0,0.0,0.0,0.0,0.0,0.0,0.0,0.0,0.0,0.0,0.0,0.0,0.0,0.0,0.0,0.0,0.0,0.0,0.0,0.0,0.0,0.0,0.0,0.0,0.0,0.0,0.0,0.0,0.0,0.0,0.0,0.0,0.0,0.0,0.0,0.0,0.0,0.0,0.0,0.0,0.0,0.0,0.0,0.0,0.0,0.0,0.0,0.0,0.0,0.0,0.0,0.0,0.0,0.0,0.0,0.0,0.0,0.0,0.0,0.0,0.0,0.0,0.0,0.0,0.0,0.0,0.0,0.0,0.0,0.0,0.0,0.0,0.0,0.0,0.0,0.0,0.0,0.0,0.0,0.0,0.0,0.0,0.0,0.0,0.0,0.0,0.0,0.0,0.0,0.0,0.0,0.0,0.0,0.0,0.0,0.0,0.0,0.0,0.0,0.0,0.0,0.0,0.0,0.0,0.0,0.0,0.0,0.0,0.0,0.0,0.0,0.0,0.0,0.0,0.0,0.0,0.0,0.0,0.0,0.0,0.0,0.0,0.0,0.0,0.0,0.0,0.0,0.0,0.0,0.0,0.0,0.0,0.0,0.0,0.0,0.0,0.0,0.0,0.0,0.0,0.0,0.0,0.0,0.0,0.0,0.0,0.0,0.0,0.0,0.0,0.0,0.0,0.0,0.0,0.0,0.0,0.0,0.0,0.0,0.0,0.0,0.0,0.0,0.0,0.0,0.0,0.0,0.0,0.0,0.0,0.0,0.0,0.0,0.0,0.0,0.0,0.0,0.0,0.0,0.0,0.0,0.0,0.0,0.0,0.0,0.0,0.0,0.0,0.0,0.0,0.0,0.0,0.0,0.0,0.0,0.0,0.0,0.0,0.0,0.0,0.0,0.0,0.0,0.0,0.0,0.0,0.0,0.0,0.0,0.0,0.0,0.0,0.0,0.0,0.0,0.0,0.0,0.0,0.0,0.0,0.0,0.0,0.0,0.0,0.0,0.0,0.0,0.0,0.0,0.0,0.0,0.0,0.0,0.0,0.0,0.0,0.0,0.0,0.0,0.0,0.0,0.0,0.0,0.0,0.0,0.0,0.0,0.0,0.0,0.0,0.0,0.0,0.0,0.0,0.0,0.0,0.0,0.0,0.0,0.0,0.0,0.0,0.0,0.0,0.0,0.0,0.0,0.0,0.0,0.0,0.0,0.0,0.0,0.0,0.0,0.0,0.0,0.0,0.0,0.0,0.0,0.0,0.0,0.0,0.0,0.0,0.0,0.0,0.0,0.0,0.0,0.0,0.0,0.0,0.0,0.0,0.0,0.0,0.0,0.0,0.0,0.0,0.0,0.0,0.0,0.0,0.0,0.0,0.0,0.0,0.0,0.0,0.0,0.0,0.0,0.0,0.0,0.0,0.0,0.0,0.0,0.0,0.0,0.0,0.0,0.0,0.0,0.0,0.0,0.0,0.0,0.0,0.0,0.0,0.0,0.0,0.0,0.0,0.0,0.0,0.0,0.0,0.0,0.0,0.0,0.0,0.0,0.0,0.0,0.0,0.0,0.0,0.0,0.0,0.0,0.0,0.0,0.0,0.0,0.0,0.0,0.0,0.0,0.0,0.0,0.0,0.0,0.0,0.0,0.0,0.0,0.0,0.0,0.0,0.0,0.0,0.0,0.0,0.0,0.0,0.0,0.0,0.0,0.0,0.0,0.0,0.0,0.0,0.0,0.0,0.0,0.0,0.0,0.0,0.0,0.0,0.0,0.0,0.0,0.0,0.0,0.0,0.0,0.0,0.0,0.0,0.0,0.0,0.0,0.0,0.0,0.0,0.0,0.0,0.0,0.0,0.0,0.0,0.0,0.0,0.0,0.0,0.0,0.0,0.0,0.0,0.0,0.0,0.0,0.0,0.0,0.0,0.0,0.0,0.0,0.0,0.0,0.0,0.0,0.0,0.0,0.0,0.0,0.0,0.0,0.0,0.0,0.0,0.0,0.0,0.0,0.0,0.0,0.0,0.0,0.0,0.0,0.0,0.0,0.0,0.0,0.0,0.0,0.0,0.0,0.0,0.0,0.0,0.0,0.0,0.0,0.0,0.0,0.0,0.0,0.0,0.0,0.0,0.0,0.0,0.0,0.0,0.0,0.0,0.0,0.0,0.0,0.0,0.0,0.0,0.0,0.0,0.0,0.0,0.0,0.0,0.0,0.0,0.0,0.0,0.0,0.0,0.0,0.0,0.0,0.0,0.0,0.0,0.0,0.0,0.0,0.0,0.0,0.0,0.0,0.0,0.0,0.0,0.0,0.0,0.0,0.0,0.0,0.0,0.0,0.0,0.0,0.0,0.0,0.0,0.0,0.0,0.0,0.0,0.0,0.0,0.0,0.0,0.0,0.0,0.0,0.0,0.0,0.0,0.0,0.0,0.0,0.0,0.0,0.0,0.0,0.0,0.0,0.0,0.0,0.0,0.0,0.0,0.0,0.0,0.0,0.0,0.0,0.0,0.0,0.0,0.0,0.0,0.0,0.0,0.0,0.0,0.0,0.0,0.0,0.0,0.0,0.0,0.0,0.0,0.0,0.0,0.0,0.0,0.0,0.0,0.0,0.0,0.0,0.0,0.0,0.0,0.0,0.0,0.0,0.0,0.0,0.0,0.0,0.0,0.0,0.0,0.0,0.0,0.0,0.0,0.0,0.0,0.0,0.0,0.0,0.0,0.0,0.0,0.0,0.0,0.0,0.0,0.0,0.0,0.0,0.0,0.0,0.0,0.0,0.0,0.0,0.0,0.0,0.0,0.0,0.0,0.0,0.0,0.0,0.0,0.0,0.0,0.0,0.0,0.0,0.0,0.0,0.0,0.0,0.0,0.0,0.0,0.0,0.0,0.0,0.0,0.0,0.0,0.0,0.0,0.0,0.0,0.0,0.0,0.0,0.0,0.0,0.0,0.0,0.0,0.0,0.0,0.0,0.0,0.0,0.0,0.0,0.0,0.0,0.0,0.0,0.0,0.0,0.0,0.0,0.0,0.0,0.0,0.0,0.0,0.0,0.0,0.0,0.0,0.0,0.0,0.0,0.0,0.0,0.0,0.0,0.0,0.0,0.0,0.0,0.0,0.0,0.0,0.0,0.0,0.0,0.0,0.0,0.0,0.0,0.0,0.0,0.0,0.0,0.0,0.0,0.0,0.0,0.0,0.0,0.0,0.0,0.0,0.0,0.0,0.0,0.0,0.0,0.0,0.0,0.0,0.0,0.0,0.0,0.0,0.0,0.0,0.0,0.0,0.0,0.0,0.0,0.0,0.0,0.0,0.0,0.0,0.0,0.0,0.0,0.0,0.0,0.0,0.0,0.0,0.0,0.0,0.0,0.0,0.0,0.0,0.0,0.0,0.0,0.0,0.0,0.0,0.0,0.0,0.0,0.0,0.0,0.0,0.0,0.0,0.0,0.0,0.0,0.0,0.0,0.0,0.0,0.0,0.0,0.0,0.0,0.0,0.0,0.0,0.0,0.0,0.0,0.0,0.0,0.0,0.0,0.0,0.0,0.0,0.0,0.0,0.0,0.0,0.0,0.0,0.0,0.0,0.0,0.0,0.0,0.0,0.0,0.0,0.0,0.0,0.0,0.0,0.0,0.0,0.0,0.0,0.0,0.0,0.0,0.0,0.0,0.0,0.0,0.0,0.0,0.0,0.0,0.0,0.0,0.0,0.0,0.0,0.0,0.0,0.0,0.0,0.0,0.0,0.0,0.0,0.0,0.0,0.0,0.0,0.0,0.0,0.0,0.0,0.0,0.0,0.0,0.0,0.0,0.0,0.0,0.0,0.0,0.0,0.0,0.0,0.0,0.0,0.0,0.0,0.0,0.0,0.0,0.0,0.0,0.0,0.0,0.0,0.0,0.0,0.0,0.0,0.0,0.0,0.0,0.0,0.0,0.0,0.0,0.0,0.0,0.0,0.0,0.0,0.0,0.0,0.0,0.0,0.0,0.0,0.0,0.0,0.0,0.0,0.0,0.0,0.0,0.0,0.0,0.0,0.0,0.0,0.0,0.0,0.0,0.0,0.0,0.0,0.0,0.0,0.0,0.0,0.0,0.0,0.0,0.0,0.0,0.0,0.0,0.0,0.0,0.0,0.0,0.0,0.0,0.0,0.0,0.0,0.0,0.0,0.0,0.0,0.0,0.0,0.0,0.0,0.0,0.0,0.0,0.0,0.0,0.0,0.0,0.0,0.0,0.0,0.0,0.0,0.0,0.0,0.0,0.0,0.0,0.0,0.0,0.0,0.0,0.0,0.0,0.0,0.0,0.0,0.0,0.0,0.0,0.0,0.0,0.0,0.0,0.0,0.0,0.0,0.0,0.0,0.0,0.0,0.0,0.0,0.0,0.0,0.0,0.0,0.0,0.0,0.0,0.0,0.0,0.0,0.0,0.0,0.0,0.0,0.0,0.0,0.0,0.0,0.0,0.0,0.0,0.0,0.0,0.0,0.0,0.0,0.0,0.0,0.0,0.0,0.0,0.0,0.0,0.0,0.0,0.0,0.0,0.0,0.0,0.0,0.0,0.0,0.0,0.0,0.0,0.0,0.0,0.0,0.0,0.0,0.0,0.0,0.0,0.0,0.0,0.0,0.0,0.0,0.0,0.0,0.0,0.0,0.0,0.0,0.0,0.0,0.0,0.0,0.1109,0.0,0.0,0.0,0.0,0.0,0.0,0.0,0.0,0.0,0.0,0.0,0.0,0.0,0.0,0.0,0.0,0.0,0.0,0.0,0.0,0.0,0.0,0.0,0.0,0.0,0.0,0.0,0.0,0.0,0.0,0.0,0.0,0.0,0.0,0.0,0.0,0.0,0.0,0.0,0.0,0.0,0.0,0.0,0.0,0.0,0.0,0.0,0.0,0.0,0.0,0.0,0.0,0.0,0.0,0.0,0.0,0.0,0.0,0.0,0.0,0.0,0.0,0.0,0.0,0.0,0.0,0.0,0.0,0.0,0.0,0.0,0.0,0.0,0.0,0.0,0.0,0.0,0.0,0.0,0.0,0.0,0.0,0.0,0.0,0.0,0.0,0.0,0.0,0.0,0.0,0.0,0.0,0.0,0.0,0.0,0.0,0.0,0.0,0.0,0.0,0.0,0.0,0.0,0.0,0.0,0.0,0.0,0.0,0.0,0.0,0.0,0.0,0.0,0.0,0.0,0.0,0.1008,0.0,0.0,0.0,0.0,0.0,0.0,0.0,0.0,0.0,0.0,0.0,0.0,0.0,0.0,0.0,0.0,0.0,0.0,0.0,0.0,0.0,0.0,0.0,0.0,0.0,0.0,0.0,0.0,0.0,0.0,0.0,0.0,0.0,0.0,0.0,0.0,0.0,0.0,0.0,0.0,0.0,0.0,0.0,0.0,0.0,0.0,0.0,0.0,0.0,0.0,0.0,0.0,0.0,0.0,0.0,0.0,0.0,0.0,0.0,0.0,0.0,0.0,0.0,0.0,0.0,0.0,0.0,0.0,0.0,0.0,0.0,0.0,0.0,0.0,0.0,0.0,0.0,0.0,0.0,0.0,0.0,0.0,0.0,0.0,0.0,0.0,0.0,0.0,0.0,0.0,0.0,0.0,0.0,0.0,0.0,0.0,0.0,0.0,0.0,0.0,0.0,0.0,0.0,0.0,0.0,0.0,0.0,0.0,-0.053,0.0,0.0,0.0,0.0,0.0025,0.0252,0.0983,0.1937,0.131,0.0,0.0,0.0,0.0,0.0,0.0,0.0,0.0,0.0,0.0,0.0,0.0,0.0,0.0,0.0,0.0,0.0,0.0,0.0,0.0,0.0,0.0,0.0,0.0,0.0,0.0,0.0,0.0,0.0,0.0,0.0,0.0,0.0,0.0,0.0,0.0,0.0,0.0,-1.0616,-1.0907,-1.1058,-1.1144,0.0,0.0,0.0,0.0,0.0,0.0,0.0,0.0,0.0,0.0,0.0,0.0,0.0,0.0,0.0,0.0,0.0,0.0,0.0,0.0,0.0,0.0,0.0,0.0,0.0,0.0,0.0,0.0,0.0,0.0,0.0,0.0,0.0,0.0,0.0,0.0,0.0,0.0,0.0,0.0,0.0,0.0,0.0,0.0,-0.4268,-0.4268,0.0,0.0,0.0,0.0,0.0,0.0,0.0,0.0,0.0,0.0,0.0,0.0,0.0,-0.3616,-0.2289,-0.2088,-0.141,-0.0252,-0.0076,0.0,0.0,0.0,0.0,0.0076,0.1235,0.0,0.2163,0.4321,0.0,0.0,0.0,0.0,0.0,0.0,0.0,0.0,0.0,0.0,0.0,0.0,0.0,0.0,0.0,0.0,0.0,0.0,0.0,0.0,0.0,0.0,0.0,0.0,0.0,0.0,0.0,0.0,0.0,0.0,0.0,0.0,0.0,0.0,0.0,0.0,-0.9879,-0.9292,-0.8637,-0.9335,-0.9292,-0.8703,-1.0401,-1.1209,-1.1305,-1.1327,0.0,0.0,0.0,0.0,0.0,0.0,0.0,0.0,0.0,0.0,0.0,0.0,0.0,0.0,0.0,0.0,0.0,0.0,0.0,0.0,0.0,0.0,0.0,0.0,0.0,0.0,0.0,0.0,0.0,0.0,0.0,0.0,0.0,0.0,0.0,0.0,0.0,0.0,0.0,-0.5502,-0.5122,-0.5122,-0.5652,-0.6306,0.0,0.0,0.0,0.0,0.0,0.0,0.0,0.0,0.0,-0.2914,-0.2864,-0.2238,-0.0882,-0.0882,-0.058,0.0,0.0,0.0,0.0,0.0,0.0,0.0076,0.141,0.244,0.3215,0.4393,0.4972,0.5172,0.0,0.0,0.0,0.0,0.8167,0.818,0.0,0.0,0.0,0.0,0.0,0.0,0.0,0.0,0.0,0.0,0.0,0.0,0.0,0.0,0.0,-0.9274,0.0,0.0,0.0,0.0,0.0,0.0,0.0,0.0,0.0,0.0,0.0,0.0,-0.8588,-0.7973,-0.7121,-0.8017,-0.7951,-0.7143,-0.8039,-0.8908,-0.9727,-1.0031,-1.0649,0.0,0.0,0.0,0.0,0.0,0.0,0.0,0.0,0.0,0.0,0.0,0.0,0.0,0.0,0.0,0.0,0.0,0.0,0.0,0.0,0.0,0.0,0.0,0.0,0.0,0.0,0.0,0.0,0.0,0.0,0.0,0.0,0.0,0.0,0.0,0.0,0.0,0.0,-0.5402,-0.5097,-0.5452,-0.5172,-0.5497,0.0,0.0,0.0,0.0,0.0,0.0,-0.3516,-0.3491,-0.2864,-0.1536,-0.1486,-0.1008,0.0,0.0,0.0,0.0,0.0,0.0,0.0,0.0,0.0202,0.0635,0.1977,0.3349,0.463,0.4607,0.5384,0.6581,0.6639,0.665,0.6788,0.7917,0.8349,0.8362,0.0,0.0,0.0,0.0,0.0,0.0,0.0,0.0,0.0,0.0,0.0,0.0,0.0,0.0,-0.5664,-0.5664,-0.6643,-0.7753,0.0,0.0,0.0,0.0,0.0,0.0,0.0,0.0,0.0,-0.8894,-0.7753,-0.7165,-0.7098,-0.7165,-0.7165,-0.7098,-0.7165,-0.7224,-0.7356,-0.8492,-0.9017,-0.9257,0.0,0.0,0.0,0.0,0.0,0.0,0.0,0.0,0.0,0.0,0.0,0.0,0.0,0.0,0.0,0.0,0.0,0.0,0.0,0.0,0.0,0.0,0.0,0.0,0.0,0.0,0.0,0.0,0.0,0.0,0.0,0.0,0.0,0.0,0.0,0.0,0.0,0.0,0.0,-0.3942,-0.2964,0.0,0.0,0.0,0.0,-0.4089,-0.4042,-0.3441,-0.2163,-0.2113,-0.1486,-0.0151,-0.0101,-0.0076,0.0,0.0,0.0,0.0,0.0,0.0,0.0,0.0,0.0764,0.217,0.3509,0.4972,0.6364,0.6225,0.6984,0.8192,0.8326,0.838,0.838,0.8472,0.8498,0.8498,0.0,0.0,0.0,0.0,0.0,0.0,0.0,0.0,0.0,0.0,0.0,0.0,0.0,-0.4239,-0.4239,-0.4239,-0.4616,-0.5038,-0.5454,0.0,0.0,0.0,0.0,0.0,0.0,0.0,-0.8514,-0.7731,-0.7312,-0.7098,-0.7098,-0.7098,-0.7098,-0.7098,-0.7244,-0.7292,-0.7301,-0.762,-0.8193,-0.8982,-0.9888,-1.1192,0.0,0.0,0.0,0.0,0.0,0.0,0.0,0.0,0.0,0.0,0.0,0.0,0.0,0.0,0.0,0.0,0.0,0.0,0.0,0.0,0.0,0.0,0.0,0.0,0.0,0.0,0.0,0.0,0.0,0.0,0.0,0.0,0.0,0.0,0.0,0.0,0.0,-0.3842,-0.2814,0.0,-0.3864,-0.3215,-0.2714,-0.2714,-0.1912,-0.121,-0.0732,-0.0706,-0.0504,-0.0025,0.0,0.0,0.0,0.0,0.0,0.0,0.0,0.0488,0.1412,0.1428,0.2251,0.3706,0.4178,0.5194,0.6495,0.6531,0.7296,0.8437,0.8492,0.8505,0.8519,0.8594,0.8628,0.8642,0.0,0.0,0.0,0.0,0.0,0.0,0.0,0.0,0.0,0.0,0.0,-0.3877,-0.3078,-0.2987,-0.2987,-0.2987,-0.3373,-0.3772,-0.4175,0.0,0.0,0.0,0.0,0.0,0.0,-0.7564,-0.7384,-0.6602,-0.7044,-0.7276,-0.7276,-0.7276,-0.7276,-0.7276,-0.74,-0.7471,-0.7464,-0.7317,-0.772,-0.8514,-0.898,-1.0148,-1.1667,0.0,0.0,0.0,0.0,0.0,0.0,0.0,0.0,0.0,0.0,0.0,0.0,0.0,0.0,0.0,0.0,0.0,0.0,0.0,0.0,0.0,0.0,0.0,0.0,0.0,0.0,0.0,0.0,0.0,0.0,0.0,0.0,0.0,0.0,0.0,-0.249,-0.3842,-0.2414,-0.1861,-0.319,-0.2113,-0.1335,-0.1335,-0.0504,0.0,0.0,0.0,0.0,0.0,0.0,0.0,0.0,0.0,0.0,0.0,0.0493,0.1255,0.2221,0.2748,0.3807,0.5243,0.5243,0.6039,0.7317,0.7404,0.7906,0.8635,0.8635,0.8635,0.8648,0.8723,0.8757,0.8777,0.0,0.0,0.0,0.0,0.0,0.0,0.0,0.0,0.0,0.0,-0.2495,-0.1784,-0.1737,-0.1737,-0.1737,-0.1737,-0.2801,-0.3977,-0.5147,-0.5257,0.0,0.0,0.0,0.0,-0.3627,-0.4883,-0.5544,-0.5544,-0.6832,-0.748,-0.748,-0.7527,-0.7527,-0.755,-0.758,-0.7604,-0.7604,-0.7611,-0.7611,-0.7705,-0.88,-0.9281,-0.9444,0.0,0.0,0.0,0.0,0.0,0.0,0.0,0.0,0.0,0.0,0.0,0.0,0.0,0.0,0.0,0.0,0.0,0.0,0.0,0.0,0.0,0.0,0.0,0.0,0.0,0.0,0.0,0.0,0.0,0.0,0.0,0.0,0.0,-0.3692,-0.2764,-0.2414,-0.3717,-0.1586,-0.0504,-0.1813,-0.0756,0.0,0.0,0.0,0.0,0.0,0.0,0.0,0.0,0.0,0.0025,0.0076,0.0077,0.0104,0.0156,0.1584,0.2288,0.2394,0.3881,0.5363,0.678,0.678,0.7592,0.8912,0.8912,0.8912,0.8912,0.8912,0.8912,0.8912,0.8912,0.8912,0.8912,0.0,0.0,0.0,0.0,0.0,0.0,0.0,0.0,0.0,0.0,-0.1451,-0.1475,-0.0595,-0.05,-0.05,-0.05,-0.0809,-0.1139,-0.1463,0.0,0.0,0.0,0.0,0.0,-0.3607,-0.3962,-0.4151,-0.4151,-0.4529,-0.4694,-0.4722,-0.569,-0.6138,-0.619,-0.727,-0.7753,-0.776,-0.7844,-0.7891,-0.7909,-0.8124,-0.8791,-0.9703,0.0,0.0,0.0,0.0,0.0,0.0,0.0,0.0,0.0,0.0,0.0,0.0,0.0,0.0,0.0,0.0,0.0,0.0,0.0,0.0,0.0,0.0,0.0,0.0,0.0,0.0,0.0,0.0,0.0,0.0,0.0,0.0,-0.0681,-0.1058,-0.0781,-0.0681,-0.1058,-0.0454,-0.0151,-0.0504,-0.0227,0.0,0.0,0.0,0.0,0.0,0.0,0.0,0.0,0.0,0.0518,0.1572,0.1607,0.2164,0.3268,0.3674,0.4435,0.549,0.5914,0.6903,0.8295,0.8295,0.8535,0.8912,0.8912,0.8912,0.8912,0.8912,0.8912,0.8912,0.8912,0.8912,0.9044,0.0,0.0,0.0,0.0,0.0,0.0,0.0,0.0,0.0,0.0,-0.061,-0.0781,-0.0073,0.0,0.0,0.0,0.0,-0.0219,-0.0723,0.0,0.0,0.0,0.0,-0.2608,-0.2093,-0.2653,-0.2918,-0.2918,-0.35,-0.3767,-0.3791,-0.4566,-0.4929,-0.4953,-0.5821,-0.6219,-0.6224,-0.6294,-0.6326,-0.6321,-0.6246,0.0,-0.9048,-0.9125,-0.9279,-0.9337,-0.858,-0.7955,-0.7378,-0.6595,0.0,0.0,0.0,0.0,0.0,0.0,0.0,0.0,0.0,0.0,0.0,0.0,0.0,0.0,0.0,0.0,0.0,0.0,0.0,0.0,0.0,0.0,0.0,0.0,0.0,0.0,0.0,0.0,0.0,0.0,0.0,0.0,0.0,0.0,0.0,0.0,0.0,0.0279,0.0893,0.0918,0.1208,0.1857,0.1885,0.2288,0.3159,0.3158,0.3624,0.4507,0.513,0.5859,0.6717,0.7337,0.8097,0.0,0.8912,0.8912,0.8912,0.8912,0.8912,0.0,0.0,0.0,0.0,0.0,0.8946,0.9252,0.0,0.0,0.0,0.0,0.0,0.0,0.0,0.0,0.0,0.0,0.0,0.0278,0.0429,0.0328,0.0227,0.0227,0.0076,-0.0451,0.0,0.0,0.0,-0.1645,-0.1598,-0.1091,-0.0025,-0.1159,-0.1762,-0.1788,-0.2964,-0.3541,-0.3541,-0.3717,-0.3767,-0.3792,-0.3942,-0.3989,-0.3989,-0.3989,-0.3989,-0.3989,0.0,0.0,-0.7559,-0.7559,-0.6805,-0.5777,-0.5777,-0.5022,-0.3989,-0.3989,0.0,0.0,0.0,0.0,0.0,0.0,0.0,0.0,0.0,0.0,0.0,0.0,0.0,0.0,0.0,0.0,0.0,0.0,0.0,0.0,0.0,0.0,0.0,0.0,0.0,0.005,0.0202,0.0227,0.0177,0.0025,0.0,0.005,0.0202,0.0228,0.0304,0.0456,0.0507,0.1073,0.2384,0.0,0.0,0.0,0.0,0.4581,0.4748,0.4743,0.4834,0.5025,0.6318,0.6955,0.6982,0.8291,0.8912,0.8912,0.8912,0.8919,0.8933,0.8933,0.8946,0.896,0.894,0.8946,0.896,0.896,0.9181,0.9709,0.0,0.0,0.0,0.0,0.0,0.0,0.0,0.0,0.0,0.146,0.1611,0.2012,0.3115,0.2264,0.1611,0.1611,0.0631,-0.0101,0.0,0.0,-0.06,-0.0351,-0.0351,-0.0226,0.0,-0.0252,-0.0378,-0.0378,-0.0656,-0.0781,-0.0806,-0.1887,-0.2389,-0.244,-0.3516,-0.3989,-0.3989,-0.3989,-0.3989,0.0,0.0,0.0,-0.4768,-0.4768,-0.4618,-0.4393,-0.4393,-0.4218,-0.3989,-0.3989,-0.3989,-0.3989,-0.3989,0.0,0.0,0.0,0.0,0.0,0.0,0.0,0.0,0.0,0.0,0.0,0.0,0.0,0.0,0.0,0.0,0.0,0.0,0.0,0.0,0.0,0.0,0.0378,0.146,0.1611,0.121,0.0126,0.0,0.0429,0.1511,0.171,0.2213,0.3315,0.3543,0.3762,0.4037,0.4067,0.4206,0.4496,0.45,0.5072,0.6276,0.6268,0.6862,0.806,0.0,0.0,0.8491,0.8768,0.8912,0.8912,0.8912,0.9008,0.9138,0.9138,0.9213,0.9286,0.9186,0.9213,0.9293,0.9293,1.014,1.1502,0.0,0.0,0.0,0.0,0.0,0.0,0.0,0.0,0.0,0.0,0.299,0.3265,0.3917,0.3391,0.299,0.299,0.2389,0.0,0.0,0.2012,0.2012,0.2012,0.2012,0.1687,0.1008,0.1008,0.0681,0.0,0.0,0.0,-0.0025,-0.0681,-0.1008,-0.1033,-0.1687,-0.1987,-0.1987,-0.1987,0.0,0.0,0.0,0.0,-0.2138,-0.3491,-0.3591,-0.299,-0.299,-0.2563,-0.1987,-0.1987,-0.1987,-0.1987,-0.1987,-0.1987,-0.2138,0.0,0.0,0.0,0.0,0.0,0.0,0.0,0.0,0.0,0.0,0.0,0.0,0.0,0.0,0.0,0.0,0.0,0.1008,0.1008,0.1561,0.2271,0.3002,0.3109,0.282,0.2089,0.2055,0.2373,0.3033,0.3264,0.3639,0.4292,0.4432,0.482,0.5558,0.5589,0.593,0.6668,0.67,0.7062,0.7792,0.7792,0.818,0.8912,0.8912,0.8912,0.8912,0.9015,0.9049,0.9049,0.9123,0.9198,0.9294,0.9294,0.9383,0.9571,1.0323,1.0603,1.0611,1.0611,1.1669,1.3212,0.0,0.0,0.0,0.0,0.0,0.0,0.0,0.0,0.0,0.0,0.4393,0.4493,0.4743,0.4543,0.4293,0.0,0.0,0.0,0.0,0.3989,0.3989,0.3989,0.3989,0.3491,0.2414,0.2389,0.1861,0.0781,0.0781,0.0656,0.0378,0.0378,0.0252,0.0,0.0,0.0,0.0,0.0,0.0,0.0,0.0,0.0,-0.0227,-0.2389,-0.2563,-0.1611,-0.1611,-0.0907,0.0,0.0,0.0,0.0,0.0,0.0,-0.0202,-0.1284,-0.1611,0.0,0.0,0.0,0.0,0.0,0.0,0.0,0.0,0.0,0.0378,0.0378,0.0605,0.0781,0.0781,0.1662,0.2391,0.2427,0.3332,0.4192,0.4578,0.4645,0.4696,0.4854,0.4497,0.4361,0.4619,0.4827,0.5037,0.5306,0.535,0.5875,0.7051,0.7138,0.768,0.885,0.8912,0.8912,0.8912,0.8912,0.8926,0.8953,0.8953,0.8967,0.9,0.9172,0.9226,0.9233,0.939,0.9626,0.9917,0.9945,1.0178,1.074,1.2342,1.2909,1.278,1.2463,1.3432,1.4908,0.0,0.0,0.0,0.0,0.0,0.0,0.0,0.0,0.0,0.0,0.0,0.0,0.0,0.0,0.0,0.0,0.0,0.0,0.3989,0.3989,0.3989,0.3989,0.3989,0.3942,0.3792,0.3767,0.3692,0.3566,0.3566,0.2939,0.1788,0.1788,0.1134,0.0,0.0,0.0,0.0,0.0,0.0,0.0,0.0,0.0,-0.0025,-0.0328,-0.0353,-0.0227,-0.0227,-0.0126,0.0,0.0,0.0,0.0,0.0,0.0,-0.0025,-0.0177,0.0,-0.0227,-0.0227,-0.0227,-0.0177,-0.0025,0.0,0.0,0.0,0.0,0.1788,0.1788,0.2714,0.3566,0.3566,0.3667,0.3811,0.3927,0.409,0.466,0.6034,0.6238,0.6679,0.7851,0.5913,0.4944,0.6132,0.6365,0.6948,0.8138,0.8341,0.848,0.8631,0.8665,0.8727,0.8885,0.8912,0.8912,0.8912,0.8912,0.9001,0.9158,0.9158,0.9226,0.9334,0.9376,0.9383,0.939,0.9517,1.0399,1.1707,1.1844,1.2734,1.4212,1.5799,1.6434,1.6265,1.4824,1.5306,1.671,0.0,0.0,0.0,0.0,0.0,0.0,0.0,0.0,0.0,0.0,0.0,0.0,0.0,0.0,0.0,0.0,0.0,0.0,0.6326,0.6326,0.6326,0.6326,0.6326,0.5972,0.5172,0.5172,0.4768,0.3989,0.3989,0.3717,0.3165,0.3165,0.2864,0.2289,0.1511,0.1159,0.1109,0.0,0.0,0.0,0.0,0.0,0.0,0.0,0.0,0.0,0.0,0.0,0.0,0.0,0.0,0.0,0.0,0.0,0.0,0.0,0.0,0.0,0.0,0.0,0.0,0.0,0.058,0.1159,0.1159,0.2213,0.3165,0.3165,0.3616,0.4028,0.4101,0.4794,0.5388,0.0,0.6182,0.6962,0.7677,0.7781,0.8026,0.8656,0.7735,0.724,0.7734,0.7904,0.8209,0.8763,0.8872,0.8912,0.8912,0.8912,0.8912,0.8912,0.8912,0.8953,0.9062,0.9062,0.9165,0.9315,0.9315,0.9349,0.9417,0.9476,1.0082,1.1081,1.2073,1.2901,1.3523,1.3578,1.3974,1.4748,1.6374,1.6991,1.6903,1.6227,1.7032,1.8256,0.0,0.0,0.0,0.0,0.0,0.0,0.0,0.0,0.0,0.0,0.0,0.0,0.0,0.0,0.0,0.0,0.0,0.0,0.0,0.7988,0.7988,0.7988,0.7988,0.7534,0.6581,0.6556,0.6077,0.5093,0.5093,0.4918,0.4543,0.4543,0.4343,0.3964,0.299,0.2563,0.249,0.0,0.0,0.0,0.0,0.0,0.1033,0.0278,0.0227,0.0504,0.0126,0.0,0.0,0.0,0.0,0.0,0.0,0.0,0.0,0.0,0.0,0.0076,0.0454,0.0,0.0,0.1008,0.1838,0.2563,0.2563,0.3591,0.4576,0.4624,0.493,0.5213,0.536,0.621,0.6952,0.7082,0.7932,0.8601,0.8723,0.8743,0.8784,0.8899,0.8912,0.8865,0.8757,0.8845,0.8912,0.8912,0.8912,0.8912,0.8912,0.8946,0.8967,0.8967,0.9007,0.911,0.924,0.9247,0.9322,0.9471,0.9902,1.0128,1.0201,1.0732,1.1682,1.2928,1.4093,1.4837,1.5252,1.5252,1.5518,1.6031,1.7291,1.7769,1.7769,1.7872,1.858,1.9333,0.0,0.0,0.0,0.0,0.0,0.0,0.0,0.0,0.0,0.0,0.0,0.0,0.0,0.0,0.0,0.0,0.0,0.0,0.0,0.7988,0.7988,0.7988,0.7988,0.7988,0.7939,0.7939,0.7914,0.7889,0.7889,0.721,0.5927,0.5927,0.5247,0.3989,0.3964,0.3942,0.3942,0.0,0.0,0.0,0.0,0.0,0.3591,0.0983,0.0806,0.1762,0.0479,0.0,0.0,0.0,0.0,0.0,0.0,0.0,0.0,0.0,0.0,0.0,0.0,0.0,0.2264,0.3566,0.3917,0.3942,0.3942,0.4972,0.6007,0.619,0.7271,0.82,0.834,0.8393,0.8474,0.8622,0.8676,0.873,0.8885,0.8906,0.8906,0.8912,0.8912,0.8912,0.0,0.8906,0.8912,0.8912,0.8912,0.8912,0.8912,0.9097,0.92,0.92,0.9322,0.9396,0.9403,0.9403,0.9449,0.9605,1.1173,1.1993,1.217,1.3726,1.448,1.454,1.4579,1.5488,1.6932,1.6932,1.7864,1.9283,1.9578,1.9727,1.9767,2.0017,1.9967,1.9786,0.0,0.0,0.0,0.0,0.0,0.0,0.0,0.0,0.0,0.0,0.0,0.0,0.0,0.0,0.0,0.0,0.0,0.0,0.0,0.7988,0.7988,0.7988,0.7988,0.7988,0.7988,0.7988,0.7988,0.7988,0.7988,0.7764,0.7335,0.7335,0.708,0.6625,0.5722,0.5322,0.5272,0.4368,0.0,0.0,0.0,0.0,0.3892,0.299,0.2389,0.1937,0.0,0.0,0.0,0.0,0.0,0.0,0.0,0.0,0.0,0.0,0.0,0.0,0.0,0.0,0.3441,0.3892,0.4668,0.5365,0.5505,0.6571,0.7565,0.7722,0.8118,0.8485,0.8608,0.8635,0.8682,0.8811,0.8831,0.8852,0.8906,0.8912,0.8912,0.8912,0.8912,0.0,0.0,0.0,0.0,0.8912,0.9028,0.9111,0.9111,0.9254,0.9335,0.9335,0.9383,0.9946,1.1115,1.1115,1.1732,1.2928,1.3483,1.3758,1.3855,1.5459,1.6197,1.6256,1.7337,1.8181,1.8859,1.8859,1.9272,1.9947,2.0024,2.0064,2.0064,2.017,2.0264,2.0361,0.0,0.0,0.0,0.0,0.0,0.0,0.0,0.0,0.0,0.0,0.0,0.0,0.0,0.0,0.0,0.0,0.0,0.0,0.0,0.0,0.7988,0.7988,0.7988,0.7988,0.7988,0.7988,0.7988,0.7988,0.7988,0.7988,0.7988,0.7988,0.7988,0.7963,0.711,0.6706,0.6656,0.5797,0.0,0.0,0.0,0.0,0.5318,0.4368,0.3767,0.0,0.0,0.0,0.0,0.0,0.0,0.0,0.0,0.0,0.0,0.0,0.0,0.0,0.0,0.4067,0.4851,0.5393,0.6189,0.6858,0.7056,0.7769,0.841,0.8533,0.856,0.8608,0.8737,0.8764,0.8811,0.8988,0.9015,0.9015,0.9015,0.9015,0.9015,0.9015,0.9015,0.9069,0.0,0.0,0.0,0.9068,0.9213,0.926,0.926,0.9946,1.0324,1.0324,1.0932,1.1804,1.2917,1.2947,1.3779,1.5459,1.5459,1.5755,1.6356,1.7492,1.8,1.8071,1.9201,1.9786,1.996,1.996,2.0037,2.021,2.0317,2.0388,2.0401,2.0477,2.0668,2.0788,0.0,0.0,0.0,0.0,0.0,0.0,0.0,0.0,0.0,0.0,0.0,0.0,0.0,0.0,0.0,0.0,0.0,0.0,0.0,0.0,0.0,0.7988,0.7988,0.7988,0.7988,0.7988,0.7988,0.7988,0.7988,0.7988,0.7988,0.7988,0.7988,0.7988,0.7988,0.7988,0.7988,0.7988,0.7988,0.0,0.0,0.0,0.7708,0.5168,0.0,0.0,0.0,0.0,0.0,0.0,0.0,0.0,0.0,0.0,0.0,0.0,0.0,0.4393,0.5652,0.6057,0.6469,0.7922,0.8301,0.8342,0.8485,0.8519,0.8533,0.8689,0.8723,0.8743,0.0,0.0,0.896,0.9158,0.9207,0.9207,0.9207,0.9214,0.9221,0.0,0.0,0.0,0.0,0.0,0.0,0.9663,0.0,0.9562,0.9649,1.124,1.2123,1.2123,1.3749,1.4629,1.4718,1.4807,1.5607,1.712,1.7132,1.7948,1.9428,1.9693,1.9826,1.984,2.0077,2.021,2.0224,2.0224,2.0237,2.0277,2.0588,2.0726,2.0766,2.1002,2.1109,2.1069,0.0,0.0,0.0,0.0,0.0,0.0,0.0,0.0,0.0,0.0,0.0,0.0,0.0,0.0,0.0,0.0,0.0,0.0,0.0,0.0,0.0,0.0,0.0,0.0,0.0,0.0,0.0,0.0,0.0,0.7988,0.7988,0.7988,0.7988,0.0,0.7988,0.7988,0.7988,0.7988,0.7988,0.7963,0.0,0.0,0.7914,0.0,0.0,0.0,0.0,0.0,0.0,0.0,0.0,0.0,0.0,0.0,0.3566,0.0,0.0,0.5577,0.5902,0.683,0.7808,0.8211,0.8376,0.8492,0.8615,0.8655,0.8696,0.8825,0.8852,0.8899,0.0,0.0,0.0,0.9158,0.9207,0.0,0.9207,0.9281,0.0,0.0,0.0,1.1179,1.1328,1.2416,0.0,0.0,1.2064,1.1862,1.3055,1.3633,1.3956,1.3956,1.4361,1.5192,1.6374,1.7572,1.8373,1.8794,1.8972,1.9296,1.9693,1.9987,2.009,2.0104,2.017,2.033,2.0561,2.0561,2.0695,2.0895,2.0962,2.1002,2.1002,2.1082,2.1109,2.1096,0.0,0.0,0.0,0.0,0.0,0.0,0.0,0.0,0.0,0.0,0.0,0.0,0.0,0.0,0.0,0.0,0.0,0.0,0.0,0.0,0.0,0.0,0.0,0.0,0.0,0.0,0.0,0.0,0.0,0.0,0.0,0.7988,0.7988,0.7988,0.7988,0.7988,0.7988,0.0,0.0,0.0,0.0,0.0,0.0,0.0,0.0,0.0,0.0,0.0,0.0,0.0,0.0,0.4089,0.4693,0.4872,0.4993,0.5572,0.0,0.7018,0.7018,0.768,0.8403,0.8471,0.8526,0.8621,0.875,0.8784,0.8804,0.8892,0.8912,0.0,0.0,0.0,0.0,0.0,0.0,0.0,0.9376,1.0055,1.0543,0.0,1.196,0.0,1.3124,1.3967,1.4821,0.0,1.4094,1.3525,1.4446,1.5237,1.5636,1.5636,1.6356,1.7209,1.8214,1.9135,1.9626,1.9746,1.9907,1.9987,2.0,2.0294,2.0428,2.0441,0.0,2.0708,2.0869,2.0869,2.0962,2.1109,2.1109,2.1109,2.1109,2.1109,2.1109,2.1109,0.0,0.0,0.0,0.0,0.0,0.0,0.0,0.0,0.0,0.0,0.0,0.0,0.0,0.0,0.0,0.0,0.0,0.0,0.0,0.0,0.0,0.0,0.0,0.0,0.0,0.0,0.0,0.0,0.0,0.0,0.0,0.0,0.0,0.0,0.0,0.0,0.0,0.0,0.0,0.0,0.0,0.0,0.0,0.0,0.0,0.0,0.0,0.0,0.0,0.0,0.5497,0.4743,0.5902,0.6257,0.6506,0.7684,0.8167,0.8301,0.8321,0.843,0.8547,0.8676,0.8723,0.875,0.8879,0.8912,0.8912,0.8912,0.0,0.0,0.9179,0.0,0.9166,0.9802,0.0,0.9858,1.0206,1.1462,1.2346,1.2346,1.3781,1.4796,1.4905,1.5104,1.5814,1.7208,1.602,1.5233,1.5233,1.655,1.7337,1.7373,1.8729,1.9559,1.9853,1.9853,1.9987,2.0197,2.0237,2.0264,2.0277,2.0601,2.0766,2.0779,2.1002,0.0,2.1109,2.1109,2.1109,2.1109,2.1109,2.1109,2.1109,2.1149,2.1162,2.1176,0.0,0.0,0.0,0.0,0.0,0.0,0.0,0.0,0.0,0.0,0.0,0.0,0.0,0.0,0.0,0.0,0.0,0.0,0.0,0.0,0.0,0.0,0.0,0.0,0.0,0.0,0.0,0.0,0.0,0.0,0.0,0.0,0.0,0.0,0.0,0.0,0.0,0.0,0.0,0.0,0.0,0.0,0.0,0.0,0.0,0.0,0.0,0.0,0.0,0.0,0.7509,0.736,0.7584,0.7658,0.7734,0.8143,0.8274,0.8321,0.8437,0.8554,0.8676,0.8703,0.8777,0.8879,0.8906,0.8912,0.0,0.0,0.0,0.8994,0.9322,0.9247,0.0,1.1315,0.0,0.0,0.0,0.0,1.4153,0.0,0.0,0.0,0.0,0.0,0.0,0.0,0.0,1.8561,1.8561,1.8823,1.9086,1.9322,1.9601,1.9867,2.0117,2.013,2.0157,2.021,2.0481,2.0601,2.0615,2.0895,2.1029,2.1042,2.1082,0.0,2.1109,2.1109,2.1109,2.1109,2.1109,2.1109,2.1136,2.1422,2.1502,2.1542,0.0,0.0,0.0,0.0,0.0,0.0,0.0,0.0,0.0,0.0,0.0,0.0,0.0,0.0,0.0,0.0,0.0,0.0,0.0,0.0,0.0,0.0,0.0,0.0,0.0,0.0,0.0,0.0,0.0,0.0,0.0,0.0,0.0,0.0,0.0,0.0,0.0,0.0,0.0,0.0,0.0,0.0,0.0,0.0,0.0,0.0,0.0,0.0,0.0,0.0,0.7988,0.7988,0.7988,0.8067,0.8174,0.8274,0.8403,0.8513,0.8581,0.871,0.8804,0.8804,0.8858,0.8912,0.8912,0.0,0.0,0.0,0.0,0.9117,0.9369,0.0,0.0,0.0,0.0,0.0,0.0,0.0,0.0,0.0,0.0,0.0,0.0,0.0,0.0,0.0,0.0,1.9562,1.9401,1.9535,1.972,1.9983,2.0027,2.013,2.0468,2.0468,2.0535,2.0664,2.0828,2.0895,2.0909,2.1042,2.1109,2.1109,2.1109,0.0,2.1109,2.1109,2.1109,2.1122,2.1283,2.1368,2.1408,2.1703,2.181,2.1836,0.0,0.0,0.0,0.0,0.0,0.0,0.0,0.0,0.0,0.0,0.0,0.0,0.0,0.0,0.0,0.0,0.0,0.0,0.0,0.0,0.0,0.0,0.0,0.0,0.0,0.0,0.0,0.0,0.0,0.0,0.0,0.0,0.0,0.0,0.0,0.0,0.0,0.0,0.0,0.0,0.0,0.0,0.0,0.0,0.0,0.0,0.0,0.0,0.0,0.0,0.8067,0.8067,0.8101,0.8194,0.8308,0.8369,0.8526,0.8716,0.8723,0.8818,0.8968,0.9292,0.9375,0.9375,0.9375,0.9375,0.0,0.0,0.0,0.9347,0.0,0.0,0.0,0.0,0.0,0.0,0.0,0.0,0.0,0.0,0.0,0.0,0.0,0.0,0.0,0.0,0.0,0.0,1.9559,1.9773,2.0027,2.029,2.0304,2.0468,2.0762,2.0806,2.0882,2.1109,2.1109,2.1109,2.1109,2.1109,2.1109,2.1109,2.1109,0.0,0.0,2.1203,2.1243,2.1323,2.1582,2.1676,2.1716,2.201,2.2084,2.2084,0.0,0.0,0.0,0.0,0.0,0.0,0.0,0.0,0.0,0.0,0.0,0.0,0.0,0.0,0.0,0.0,0.0,0.0,0.0,0.0,0.0,0.0,0.0,0.0,0.0,0.0,0.0,0.0,0.0,0.0,0.0,0.0,0.0,0.0,0.0,0.0,0.0,0.0,0.0,0.0,0.0,0.0,0.0,0.0,0.0,0.0,0.0,0.0,0.0,0.0,0.0,0.8301,0.8423,0.8389,0.8349,0.8587,0.0,0.0,0.8852,0.8899,0.921,1.0562,1.0891,1.0891,1.0891,0.0,0.0,0.0,1.0173,0.9717,1.1437,0.0,0.0,0.0,0.0,1.7126,0.0,0.0,0.0,0.0,0.0,0.0,0.0,0.0,0.0,0.0,0.0,0.0,2.0117,2.0144,2.0304,2.0628,2.0641,2.0775,2.1069,2.1069,2.1082,2.1109,2.1109,2.1109,2.1109,2.1109,2.1109,2.1109,2.1109,0.0,0.0,2.1542,2.1703,2.1911,2.1937,2.1951,2.201,2.2271,2.2345,2.2418,0.0,0.0,0.0,0.0,0.0,0.0,0.0,0.0,0.0,0.0,0.0,0.0,0.0,0.0,0.0,0.0,0.0,0.0,0.0,0.0,0.0,0.0,0.0,0.0,0.0,0.0,0.0,0.0,0.0,0.0,0.0,0.0,0.0,0.0,0.0,0.0,0.0,0.0,0.0,0.0,0.0,0.0,0.0,0.0,0.0,0.0,0.0,0.0,0.0,0.0,0.0,0.0,0.8574,0.8581,0.0,0.0,0.9441,0.9208,1.1057,1.0891,1.059,1.2055,1.2426,1.2426,1.2426,0.0,0.0,1.2802,1.257,1.256,1.3306,1.3526,0.0,0.0,0.0,0.0,0.0,0.0,0.0,0.0,0.0,0.0,0.0,0.0,0.0,0.0,0.0,0.0,2.0717,2.0601,2.0628,2.0922,2.0935,2.0989,2.1109,2.1109,2.1109,2.1109,2.1109,2.1109,2.1109,2.1109,2.1203,2.1408,2.1408,0.0,0.0,2.185,2.1917,2.2004,2.2178,2.2245,2.2285,2.2579,2.2686,2.2699,0.0,0.0,0.0,0.0,0.0,0.0,0.0,0.0,0.0,0.0,0.0,0.0,0.0,0.0,0.0,0.0,0.0,0.0,0.0,0.0,0.0,0.0,0.0,0.0,0.0,0.0,0.0,0.0,0.0,0.0,0.0,0.0,0.0,0.0,0.0,0.0,0.0,0.0,0.0,0.0,0.0,0.0,0.0,0.0,0.0,0.0,0.0,0.0,0.0,0.0,0.0,0.0,0.0,0.0,0.0,0.0,1.0276,1.0104,1.2615,1.2534,1.2109,1.3561,1.3911,1.3959,0.0,0.0,1.4404,1.4542,1.45,1.4547,1.5075,1.5264,1.5695,1.6815,1.7413,1.8098,1.9243,0.0,0.0,0.0,0.0,0.0,0.0,0.0,0.0,0.0,0.0,0.0,2.1096,2.0909,2.0895,2.1096,2.1109,2.1109,2.1109,2.1109,2.1109,2.1109,2.1109,2.1149,2.1243,2.1243,2.1435,2.1716,2.1716,0.0,0.0,2.2111,2.2164,2.2271,2.2472,2.2552,2.2579,2.2813,2.2893,2.2893,0.0,0.0,0.0,0.0,0.0,0.0,0.0,0.0,0.0,0.0,0.0,0.0,0.0,0.0,0.0,0.0,0.0,0.0,0.0,0.0,0.0,0.0,0.0,0.0,0.0,0.0,0.0,0.0,0.0,0.0,0.0,0.0,0.0,0.0,0.0,0.0,0.0,0.0,0.0,0.0,0.0,0.0,0.0,0.0,0.0,0.0,0.0,0.0,0.0,0.0,0.0,0.0,0.0,0.0,0.0,0.0,1.1082,1.1401,1.2886,1.3291,1.3615,1.5037,1.5396,1.5482,0.0,0.0,1.6034,1.657,1.547,1.4937,1.6651,1.6962,1.6962,1.6991,1.8344,1.9388,1.9401,0.0,0.0,0.0,0.0,0.0,0.0,0.0,0.0,0.0,0.0,0.0,2.1109,2.1109,2.1109,2.1109,2.1109,2.1109,2.1109,2.1109,2.1109,2.1109,2.1109,2.1269,2.1582,2.1582,2.1743,0.0,0.0,0.0,0.0,2.2418,2.2592,2.2893,2.2893,2.2893,2.2893,2.2893,2.2893,2.2893,0.0,0.0,0.0,0.0,0.0,0.0,0.0,0.0,0.0,0.0,0.0,0.0,0.0,0.0,0.0,0.0,0.0,0.0,0.0,0.0,0.0,0.0,0.0,0.0,0.0,0.0,0.0,0.0,0.0,0.0,0.0,0.0,0.0,0.0,0.0,0.0,0.0,0.0,0.0,0.0,0.0,0.0,0.0,0.0,0.0,0.0,0.0,0.0,0.0,0.0,0.0,0.0,0.0,0.0,0.0,0.0,0.0,0.0,1.4341,1.4743,1.5064,1.6552,1.6909,1.6986,1.7282,0.0,1.7772,1.8133,1.7991,1.7981,1.8535,1.8648,1.8648,1.8648,1.9068,1.9468,0.0,0.0,0.0,0.0,0.0,0.0,0.0,0.0,0.0,0.0,0.0,0.0,2.1109,2.1109,2.1109,2.1109,2.1109,2.1109,2.1109,2.1109,2.1109,2.1109,2.1309,2.1489,2.1628,2.1796,2.2004,0.0,0.0,0.0,0.0,2.276,2.2813,2.2893,2.2893,2.2893,2.2893,2.2893,2.2893,2.2893,0.0,0.0,0.0,0.0,0.0,0.0,0.0,0.0,0.0,0.0,0.0,0.0,0.0,0.0,0.0,0.0,0.0,0.0,0.0,0.0,0.0,0.0,0.0,0.0,0.0,0.0,0.0,0.0,0.0,0.0,0.0,0.0,0.0,0.0,0.0,0.0,0.0,0.0,0.0,0.0,0.0,0.0,0.814,0.0,0.0,0.0,0.0,0.0,0.0,0.0,0.0,0.0,0.0,0.0,0.0,0.0,0.0,0.0,0.0,1.6221,1.6446,1.7358,1.7675,0.0,0.0,0.0,1.8731,1.9038,1.9239,1.9401,1.9401,1.9401,1.9401,1.9401,0.0,0.0,0.0,0.0,0.0,0.0,0.0,0.0,0.0,0.0,0.0,0.0,0.0,0.0,2.1109,2.1109,2.1109,2.1109,2.1109,2.1109,2.1109,2.1216,2.1269,2.1283,2.1609,2.181,2.1917,2.2071,2.2311,0.0,0.0,0.0,0.0,2.2893,2.2893,2.2893,2.2893,2.2893,2.2893,2.2893,2.2893,2.2893,0.0,0.0,0.0,0.0,0.0,0.0,0.0,0.0,0.0,0.0,0.0,0.0,0.0,0.0,0.0,0.0,0.0,0.0,0.0,0.0,0.0,0.0,0.0,0.0,0.0,0.0,0.0,0.7988,0.7988,0.7988,0.7988,0.0,0.0,0.0,0.0,0.0,0.0,0.0,0.0,0.0,0.0,0.0,0.0,0.0,0.0,0.0,0.0,0.0,0.0,0.0,0.0,0.0,0.0,0.0,0.0,0.0,0.0,0.0,0.0,0.0,0.0,0.0,0.0,0.0,0.0,0.0,0.0,1.9334,1.9401,1.9401,1.9401,1.9401,1.9401,0.0,0.0,0.0,0.0,2.0347,0.0,0.0,0.0,0.0,0.0,0.0,0.0,0.0,0.0,0.0,2.1109,2.1109,2.1122,2.1136,2.1149,2.1149,2.1149,2.1462,2.1622,2.1622,2.1917,2.2164,2.2385,2.2411,2.2605,0.0,0.0,0.0,0.0,2.2893,2.2893,2.2893,2.2893,2.2893,2.2893,2.2893,2.2893,2.2893,0.0,0.0,0.0,0.0,0.0,0.0,0.0,0.0,0.0,0.0,0.0,0.0,0.0,0.0,0.0,0.0,0.0,0.0,0.0,0.0,0.0,0.0,0.0,0.0,0.0,0.0,0.0,0.7988,0.7988,0.7988,0.7988,0.7988,0.0,0.0,0.0,0.0,0.0,0.0,0.0,0.0,0.0,0.0,0.0,0.0,0.0,0.0,0.8804,0.9585,0.0,0.0,0.0,0.0,0.0,0.0,0.0,0.0,1.7331,0.0,0.0,0.0,0.0,0.0,0.0,0.0,0.0,0.0,0.0,0.0,0.0,1.9401,1.9401,1.9401,1.9468,0.0,0.0,0.0,2.0401,0.0,0.0,0.0,0.0,0.0,0.0,0.0,0.0,0.0,0.0,2.1109,2.1109,2.1109,2.1216,2.1475,2.1475,2.1475,2.1475,2.177,2.1917,2.1917,2.2178,2.2352,2.2432,2.2659,2.2827,0.0,0.0,0.0,2.2893,2.2893,2.2893,2.2893,2.2893,2.2893,2.2893,2.2893,2.2893,2.2893,0.0,0.0,0.0,0.0,0.0,0.0,0.0,0.0,0.0,0.0,0.0,0.0,0.0,0.0,0.0,0.0,0.0,0.0,0.0,0.0,0.0,0.0,0.0,0.0,0.0,0.0,0.0,0.0,0.0,0.7988,0.0,0.0,0.0,0.0,0.0,0.0,0.0,0.0,0.0,0.0,0.0,0.0,0.0,0.0,0.0,0.0,0.9881,1.0863,0.0,1.2859,1.41,1.553,0.0,0.0,0.0,0.0,1.7608,0.0,0.0,0.0,0.0,0.0,0.0,0.0,0.0,0.0,0.0,0.0,0.0,1.9401,1.9401,1.9508,0.0,0.0,2.0027,0.0,0.0,0.0,0.0,0.0,0.0,2.1109,0.0,0.0,2.1109,0.0,0.0,2.1162,2.1309,2.1341,2.1475,2.177,2.1917,2.1917,2.1783,2.2044,2.2178,2.2191,2.2485,2.2619,2.2632,2.2827,2.2893,0.0,0.0,0.0,2.2893,2.2893,2.2893,2.2893,2.2893,2.2893,2.2893,2.2893,2.2893,2.2893,0.0,0.0,0.0,0.0,0.0,0.0,0.0,0.0,0.0,0.0,0.0,0.0,0.0,0.0,0.0,0.0,0.0,0.0,0.0,0.0,0.0,0.0,0.0,0.0,0.0,0.0,0.0,0.0,0.0,0.0,0.0,0.0,0.0,0.0,0.0,0.0,0.0,0.0,0.0,0.0,0.0,0.0,0.0,0.0,0.0,0.0,0.0,0.0,0.0,1.5011,1.5556,1.5956,1.7199,0.0,0.0,0.0,0.0,0.0,0.0,0.0,0.0,0.0,0.0,0.0,0.0,0.0,0.0,0.0,0.0,0.0,0.0,1.9669,0.0,0.0,0.0,0.0,2.1069,2.1109,2.1109,2.1109,2.1109,0.0,2.1109,2.1109,2.1109,2.1109,0.0,2.1283,2.1569,2.1622,2.1783,2.2044,2.2285,2.2325,2.2158,2.2365,2.2485,2.2485,2.2773,2.2893,2.2893,2.2893,2.2893,2.2893,0.0,0.0,2.2893,2.2893,2.2893,2.2893,2.2893,2.2893,2.2893,2.2893,2.2893,2.2893,0.0,0.0,0.0,0.0,0.0,0.0,0.0,0.0,0.0,0.0,0.0,0.0,0.0,0.0,0.0,0.0,0.0,0.0,0.0,0.0,0.0,0.0,0.0,0.0,0.0,0.0,0.0,0.0,0.0,0.0,0.7988,0.7988,0.8081,0.0,0.0,0.0,0.0,0.0,0.0,0.0,0.0,0.0,0.0,0.0,0.0,0.0,0.0,0.0,0.0,1.5331,1.6221,1.7305,1.7529,0.0,0.0,0.0,0.0,0.0,1.7876,1.8169,0.0,0.0,0.0,0.0,0.0,0.0,0.0,0.0,0.0,0.0,0.0,1.9773,1.996,0.0,0.0,2.1056,0.0,0.0,2.1109,2.1109,0.0,2.1109,2.1109,2.1109,2.1109,2.1109,0.0,2.1542,2.1614,2.1823,2.2044,2.2338,2.2392,2.2525,2.276,2.28,2.2827,2.2827,2.288,2.2893,2.2893,2.2893,2.2893,2.2893,0.0,2.2893,2.2893,2.2893,2.2893,2.2893,2.2893,2.2893,2.2893,2.2893,2.2893,2.2893,0.0,0.0,0.0,0.0,0.0,0.0,0.0,0.0,0.0,0.0,0.0,0.0,0.0,0.0,0.0,0.0,0.0,0.0,0.0,0.0,0.0,0.0,0.0,0.0,0.0,0.0,0.0,0.0,0.0,0.8054,0.8167,0.8241,0.8316,0.841,0.0,0.0,0.0,0.0,0.0,0.0,0.0,0.0,0.0,0.0,0.0,0.0,0.0,0.0,0.0,0.0,1.7041,1.7608,1.7608,0.0,0.0,0.0,0.0,0.0,1.7982,1.8356,1.8731,0.0,0.0,0.0,0.0,0.0,0.0,0.0,0.0,0.0,0.0,0.0,2.0414,2.0842,0.0,2.1109,2.1109,2.1109,2.1109,0.0,0.0,2.1109,2.1109,2.1256,2.1381,2.1381,2.1649,0.0,2.2004,2.2151,2.2352,2.2645,2.2659,2.2726,2.2893,2.2893,2.2893,2.2893,2.2893,2.2893,2.2893,2.2893,2.2893,2.2893,0.0,2.2893,2.2893,2.2893,2.2893,2.2893,2.2893,2.2893,2.2893,2.2893,2.2893,2.2893,0.0,0.0,0.0,0.0,0.0,0.0,0.0,0.0,0.0,0.0,0.0,0.0,0.0,0.0,0.0,0.0,0.0,0.0,0.0,0.0,0.0,0.0,0.0,0.0,0.0,0.0,0.7988,0.7988,0.8047,0.8174,0.8349,0.8492,0.8533,0.0,0.0,0.0,0.0,1.0307,0.0,0.0,0.0,0.0,0.0,0.0,0.0,0.0,0.0,0.0,0.0,0.0,0.0,0.0,0.0,0.0,0.0,0.0,1.7836,1.8022,1.8155,1.8556,1.8916,0.0,0.0,0.0,0.0,0.0,0.0,0.0,0.0,0.0,0.0,2.0428,0.0,2.1069,2.1109,2.1109,2.1109,2.1109,2.1109,2.1109,2.1109,2.1136,2.1203,2.1448,2.1609,2.1689,2.1924,2.2178,2.2371,2.2485,2.2619,2.2893,2.2893,2.2893,2.2893,2.2893,2.2893,2.2893,2.2893,2.2893,2.2893,2.2893,2.2893,2.2893,2.2893,2.2893,2.2893,2.2893,2.2893,2.2893,2.2893,2.2893,2.2893,2.2893,2.2893,2.2893,0.0,0.0,0.0,0.0,0.0,0.0,0.0,0.0,0.0,0.0,0.0,0.0,0.0,0.0,0.0,0.0,0.0,0.0,0.0,0.0,0.0,0.0,0.0,0.0,0.0,0.7988,0.7988,0.7988,0.818,0.8355,0.8498,0.8621,0.8696,0.8757,0.0,0.0,0.8975,1.0464,1.1038,0.0,0.0,0.0,0.0,0.0,0.0,0.0,0.0,0.0,0.0,0.0,0.0,0.0,0.0,0.0,0.0,0.0,1.7969,1.8115,1.8689,1.8863,1.8956,1.9294,0.0,0.0,0.0,0.0,0.0,0.0,0.0,0.0,0.0,2.0869,2.1082,2.1109,2.1109,2.1109,2.1109,0.0,2.1109,2.1109,2.1109,2.1216,2.1529,2.1569,2.1703,2.1937,2.2218,2.2392,2.2385,2.2686,2.288,2.2893,2.2893,2.2893,2.2893,2.2893,2.2893,2.2893,2.2893,2.2893,2.2893,2.2893,2.2893,2.2893,2.2893,2.2893,2.2893,2.2893,2.2893,2.2893,2.2893,2.2893,2.2893,2.2893,2.2893,2.2893,0.0,0.0,0.0,0.0,0.0,0.0,0.0,0.0,0.0,0.0,0.0,0.0,0.0,0.0,0.0,0.0,0.0,0.0,0.0,0.0,0.0,0.0,0.0,0.806,0.818,0.8067,0.806,0.818,0.8425,0.8574,0.8628,0.875,0.0,0.0,0.0,1.0433,1.1674,1.2245,1.2462,0.0,0.0,0.0,0.0,0.0,0.0,0.0,0.0,0.0,0.0,0.0,1.7608,0.0,0.0,0.0,0.0,0.0,1.8156,1.841,1.8783,1.9065,1.9225,1.9361,0.0,0.0,0.0,0.0,0.0,0.0,0.0,0.0,0.0,0.0,2.1109,2.1109,2.1109,2.1109,2.1109,2.1109,2.1109,2.1109,2.1269,2.1462,2.1569,2.1917,2.2138,2.2245,2.2525,2.2699,2.2699,2.284,2.2893,2.2893,2.2893,2.2893,2.2893,2.2893,2.2893,2.2893,2.2893,2.2893,2.2893,2.2893,2.2893,2.2893,2.2893,2.2893,2.2893,2.2893,2.2893,2.2893,2.2893,2.2893,2.2893,2.2893,2.2893,2.2893,0.0,0.0,0.0,0.0,0.0,0.0,0.0,0.0,0.0,0.0,0.0,0.0,0.0,0.0,0.0,0.0,0.0,0.0,0.0,0.0,0.0,0.0,0.0,0.816,0.8294,0.8208,0.8228,0.8362,0.8587,0.8946,0.9448,0.0,0.0,0.0,0.0,1.1565,1.267,1.3588,0.0,0.0,0.0,0.0,0.0,0.0,0.0,0.0,0.0,0.0,0.0,0.0,1.7608,0.0,0.0,0.0,0.0,0.0,0.0,1.8691,1.8985,1.9241,1.9401,0.0,0.0,0.0,0.0,0.0,0.0,0.0,0.0,0.0,0.0,0.0,0.0,0.0,2.1109,2.1109,2.1109,2.1189,2.1256,2.1256,2.1542,2.1756,2.185,2.2178,2.2425,2.2552,2.2786,2.2893,2.2893,2.2893,2.2893,2.2893,2.2893,2.2893,2.2893,2.2893,2.2893,2.2893,2.2893,2.2893,2.2893,2.2893,2.2893,2.2893,2.2893,2.2893,2.2893,2.2893,2.2893,2.2893,2.2893,2.2893,2.2893,2.2893,2.2893,2.2893,0.0,0.0,0.0,0.0,0.0,0.0,0.0,0.0,0.0,0.0,0.0,0.0,0.0,0.0,0.0,0.0,0.0,0.0,0.0,0.0,0.0,0.0,0.0,0.8294,0.8301,0.8437,0.8512,0.8512,0.8662,0.9537,1.1137,1.1137,0.0,0.0,0.0,0.0,1.1347,0.0,0.0,0.0,0.0,1.6313,0.0,0.0,0.0,0.0,0.0,0.0,0.0,0.0,1.7608,0.0,0.0,0.0,0.0,0.0,1.8704,1.8956,1.9321,1.9401,1.9401,0.0,0.0,0.0,0.0,0.0,0.0,0.0,0.0,0.0,0.0,0.0,0.0,2.1109,2.1109,2.1109,2.1109,2.1395,2.1582,2.1582,2.185,2.2098,2.2358,2.2385,2.2539,2.288,2.2893,2.2893,2.2893,2.2893,2.2893,2.2893,2.2893,2.2893,2.2893,2.2893,2.2893,2.2893,2.2893,2.2893,2.2893,2.2893,2.2893,2.2893,2.2893,2.2893,2.2893,2.2893,2.2893,2.2893,2.2893,2.2893,2.2893,2.2893,2.2893,2.2893,0.0,0.0,0.0,0.0,0.0,0.0,0.0,0.0,0.0,0.0,0.0,0.0,0.0,0.0,0.0,0.0,0.0,0.0,0.0,0.0,0.0,0.0,0.0,0.0,0.0,0.0,1.0291,1.019,1.032,1.1159,0.0,0.0,0.0,1.4126,0.0,0.0,0.0,0.0,0.0,0.0,1.6962,1.7199,0.0,0.0,0.0,0.0,0.0,0.0,0.0,0.0,0.0,0.0,0.0,0.0,0.0,1.8623,1.8823,1.8956,1.9321,1.9401,0.0,1.9401,0.0,0.0,0.0,0.0,0.0,0.0,0.0,0.0,0.0,0.0,0.0,2.1109,2.1109,2.1189,2.1422,2.1529,2.1662,2.1863,2.2111,2.2325,2.2371,2.2605,2.28,2.2893,2.2893,2.2893,2.2893,2.2893,2.2893,2.2893,2.2893,2.2893,2.2893,2.2893,2.2893,2.2893,2.2893,2.2893,2.2893,2.2893,2.2893,2.2893,2.2893,2.2893,2.2893,2.2893,2.2893,2.2893,2.2893,2.2893,2.2893,2.2893,2.2893,2.2893,0.0,0.0,0.0,0.0,0.0,0.0,0.0,0.0,0.0,0.0,0.0,0.0,0.0,0.0,0.0,0.0,0.0,0.0,0.0,0.0,0.0,0.0,0.0,0.0,0.0,1.1441,1.2207,0.0,0.0,0.0,0.0,0.0,0.0,1.5384,0.0,1.5663,0.0,0.0,0.0,1.7608,1.7608,1.7608,1.7608,0.0,0.0,0.0,0.0,0.0,0.0,0.0,0.0,0.0,1.7929,0.0,0.0,1.8756,1.8983,1.9132,1.9348,1.9401,0.0,1.9535,1.9666,1.9907,2.0321,0.0,0.0,0.0,0.0,0.0,0.0,0.0,0.0,2.1109,2.1203,2.1381,2.1555,2.1783,2.1997,2.2138,2.2418,2.2592,2.2592,2.2786,2.2893,2.2893,2.2893,2.2893,2.2893,2.2893,2.2893,2.2893,2.2893,2.2893,2.2893,2.2893,2.2893,2.2893,2.2893,2.2893,2.2893,2.2893,2.2893,2.2893,2.2893,2.2893,2.2893,2.2893,2.2893,2.2893,2.2893,2.2893,2.2893,2.2893,2.2893,2.2893,0.0,0.0,0.0,0.0,0.0,0.0,0.0,0.0,0.0,0.0,0.0,0.0,0.0,0.0,0.0,0.0,0.0,0.0,0.0,0.0,0.0,0.0,0.0,0.0,0.0,0.0,0.0,0.0,0.0,0.0,0.0,0.0,1.561,1.5663,0.0,1.6843,0.0,1.7041,1.7608,1.7608,1.7608,1.7608,1.7608,1.7608,0.0,0.0,0.0,0.0,0.0,0.0,0.0,0.0,1.7969,1.8263,1.8584,1.8878,1.9158,1.9401,1.9401,1.9415,1.9495,1.9733,1.984,0.0,2.0619,2.0922,2.1109,2.1109,0.0,2.1109,2.1109,2.1109,2.1122,2.1149,2.1408,2.1609,2.1662,2.2084,2.2398,2.2458,2.2699,2.2893,2.2893,2.2893,2.2893,2.2893,2.2893,2.2893,2.2893,2.2893,2.2893,2.2893,2.2893,2.2893,2.2893,2.2893,2.2893,2.2893,2.2893,2.2893,2.2893,2.2893,2.2893,2.2893,2.2893,2.2893,2.2893,2.2893,2.2893,2.2893,2.2893,2.2893,2.2893,2.2893,2.2893,2.2893,0.0,0.0,0.0,0.0,0.0,0.0,0.0,0.0,0.0,0.0,0.0,0.0,0.0,0.0,0.0,0.0,0.0,0.0,0.0,0.0,0.0,0.0,0.0,0.0,0.0,0.0,0.0,0.0,0.0,0.0,0.0,0.0,0.0,1.7147,0.0,1.7424,1.7147,1.7477,1.7608,1.7608,1.7608,1.7608,1.7608,1.7608,0.0,0.0,0.0,0.0,0.0,0.0,0.0,0.0,1.8303,1.8597,1.8891,1.9185,1.9348,1.9401,1.9401,1.9562,0.0,1.9786,2.0147,2.0619,2.0935,2.1069,2.1109,2.1109,2.1109,2.1109,2.1109,2.1109,2.1189,2.1448,2.1542,2.1743,2.2164,2.2338,2.2498,2.2773,2.2853,2.2893,2.2893,2.2893,2.2893,2.2893,2.2893,2.2893,2.2893,2.2893,2.2893,2.2893,2.2893,2.2893,2.2893,2.2893,2.2893,2.2893,2.2893,2.2893,2.2893,2.2893,2.2893,2.2893,2.2893,2.2893,2.2893,2.2893,2.2893,2.2893,2.2893,2.2893,2.2893,2.2893,2.2893,2.2893,0.0,0.0,0.0,0.0,0.0,0.0,0.0,0.0,0.0,0.0,0.0,0.0,0.0,0.0,0.0,0.0,0.0,0.0,0.0,0.0,0.0,0.0,0.0,0.0,0.0,0.0,0.0,0.0,0.0,0.0,0.0,0.0,0.0,1.7608,0.0,1.7608,1.7608,1.7608,1.7608,1.7608,1.7608,1.7608,1.7608,1.7608,0.0,0.0,0.0,0.0,0.0,0.0,0.0,0.0,0.0,0.0,1.8985,1.9308,1.9401,1.9401,1.9401,1.9615,1.9867,2.0147,0.0,2.0922,2.1069,2.1109,2.1109,2.1109,2.1109,2.1109,2.1109,2.1229,2.1408,2.1555,2.1823,2.2071,2.2378,2.2539,2.2686,2.288,2.2893,2.2893,2.2893,2.2893,2.2893,2.2893,2.2893,2.2893,2.2893,2.2893,2.2893,2.2893,2.2893,2.2893,2.2893,2.2893,2.2893,2.2893,2.2893,2.2893,2.2893,2.2893,2.2893,2.2893,2.2893,2.2893,2.2893,2.2893,2.2893,2.2893,2.2893,2.2893,2.2893,2.2893,2.2893,2.2893,0.0,0.0,0.0,0.0,0.0,0.0,0.0,0.0,0.0,0.0,0.0,0.0,0.0,0.0,0.0,0.0,0.0,0.0,0.0,0.0,0.0,0.0,0.0,0.0,0.0,0.0,0.0,0.0,0.0,0.0,0.0,0.0,0.0,1.7608,0.0,0.0,1.7608,1.7608,1.7608,1.7608,1.7608,1.7608,0.0,0.0,0.0,0.0,0.0,0.0,0.0,1.8103,0.0,0.0,0.0,0.0,1.9052,1.9321,1.9401,1.9401,1.9455,1.9722,2.008,2.0615,2.0935,0.0,2.1109,2.1109,2.1109,2.1109,2.1109,2.1122,2.1176,2.1422,2.1622,2.1716,2.2111,2.2432,2.2485,2.2746,2.2893,2.2893,2.2893,2.2893,2.2893,2.2893,2.2893,2.2893,2.2893,2.2893,2.2893,2.2893,2.2893,2.2893,2.2893,2.2893,2.2893,2.2893,2.2893,2.2893,2.2893,2.2893,2.2893,2.2893,2.2893,2.2893,2.2893,2.2893,2.2893,2.2893,2.2893,2.2893,2.2893,2.2893,2.2893,2.2893,2.2893,2.2893,0.0,0.0,0.0,0.0,0.0,0.0,0.0,0.0,0.0,0.0,0.0,0.0,0.0,0.0,0.0,0.0,0.0,0.0,0.0,0.0,0.0,0.0,0.0,0.0,0.0,0.0,0.0,0.0,0.0,0.0,0.0,0.0,0.0,0.0,0.0,0.0,0.0,1.7608,1.7608,1.7608,1.7608,1.7608,0.0,0.0,0.0,0.0,0.0,0.0,0.0,0.0,1.8624,0.0,0.0,0.0,1.9348,1.9388,1.9401,1.9455,1.9679,2.0147,2.0641,0.0,2.1082,2.1109,0.0,0.0,2.1109,0.0,2.1109,2.1189,2.1475,2.1555,2.1756,2.2218,2.2331,2.2512,2.28,2.2867,2.2893,2.2893,2.2893,2.2893,2.2893,2.2893,2.2893,2.2893,2.2893,2.2893,2.2893,2.2893,2.2893,2.2893,2.2893,2.2893,2.2893,2.2893,2.2893,2.2893,2.2893,2.2893,2.2893,2.2893,2.2893,2.2893,2.2893,2.2893,2.2893,2.2893,2.2893,2.2893,2.2893,2.2893,2.2893,2.2893,2.2893,2.2893,0.0,0.0,0.0,0.0,0.0,0.0,0.0,0.0,0.0,0.0,0.0,0.0,0.0,0.0,0.0,0.0,0.0,0.0,0.0,0.0,0.0,0.0,0.0,0.0,0.0,0.0,0.0,0.0,0.0,0.0,0.0,1.7608,1.7608,0.0,0.0,0.0,0.0,0.0,0.0,0.0,0.0,0.0,0.0,0.0,0.0,0.0,0.0,0.0,0.0,0.0,0.0,0.0,0.0,0.0,0.0,0.0,1.9508,1.9706,2.016,2.0512,2.0748,0.0,2.1109,2.1109,2.1109,2.1109,2.1109,2.1109,2.1243,2.1435,2.1555,2.1716,2.197,2.2352,2.2565,2.2712,2.288,2.2893,2.2893,2.2893,2.2893,2.2893,2.2893,2.2893,2.2893,2.2893,2.2893,2.2893,2.2893,2.2893,2.2893,2.2893,2.2893,2.2893,2.2893,2.2893,2.2893,2.2893,2.2893,2.2893,2.2893,2.2893,2.2893,2.2893,2.2893,2.2893,2.2893,2.2893,2.2893,2.2893,2.2893,2.2893,2.2893,2.2893,2.2893,2.2893,0.0,0.0,0.0,0.0,0.0,0.0,0.0,0.0,0.0,0.0,0.0,0.0,0.0,0.0,0.0,0.0,0.0,0.0,0.0,0.0,0.0,0.0,0.0,0.0,0.0,0.0,0.0,0.0,0.0,0.0,1.7608,1.7608,1.7608,0.0,1.7608,0.0,0.0,0.0,0.0,0.0,0.0,0.0,0.0,0.0,0.0,0.0,0.0,0.0,0.0,0.0,0.0,0.0,0.0,0.0,0.0,0.0,0.0,2.0103,2.1043,2.1063,2.0953,2.1577,2.1411,2.1109,0.0,0.0,2.1109,0.0,2.1381,2.1609,2.1689,2.193,2.2191,2.2485,2.2746,2.2893,2.2893,2.2893,2.2893,2.2893,2.2893,2.2893,2.2893,2.2893,2.2893,2.2893,2.2893,2.2893,2.2893,2.2893,2.2893,2.2893,2.2893,2.2893,2.2893,2.2893,2.2893,2.2893,2.2893,2.2893,2.2893,2.2893,2.2893,2.2893,2.2893,2.2893,2.2893,2.2893,2.2893,2.2893,2.2893,2.2893,2.2893,2.2893,2.2893,2.2893,0.0,0.0,0.0,0.0,0.0,0.0,0.0,0.0,0.0,0.0,0.0,0.0,0.0,0.0,0.0,0.0,0.0,0.0,0.0,0.0,0.0,0.0,0.0,0.0,0.0,0.0,0.0,0.0,0.0,0.0,1.7608,1.7608,1.7608,1.7608,1.7608,1.7742,1.7969,0.0,0.0,0.0,0.0,0.0,0.0,0.0,0.0,0.0,0.0,0.0,0.0,0.0,0.0,0.0,0.0,0.0,0.0,0.0,0.0,0.0,2.2475,2.2055,2.1461,2.3076,2.2278,2.1109,0.0,0.0,2.1109,2.1109,2.1381,2.1662,2.1943,2.2205,2.2498,2.2827,2.288,2.2893,2.2893,2.2893,2.2893,2.2893,2.2893,2.2893,2.2893,2.2893,2.2893,2.2893,2.2893,2.2893,2.2893,2.2893,2.2893,2.2893,2.2893,2.2893,2.2893,2.2893,2.2893,2.2893,2.2893,2.2893,2.2893,2.2893,2.2893,2.2893,2.2893,2.2893,2.2893,2.2893,2.2893,2.2893,2.2893,2.2893,2.2893,2.2893,2.2893,2.2893,0.0,0.0,0.0,0.0,0.0,0.0,0.0,0.0,0.0,0.0,0.0,0.0,0.0,0.0,0.0,0.0,0.0,0.0,0.0,0.0,0.0,0.0,0.0,0.0,0.0,0.0,0.0,0.0,0.0,1.7608,1.7608,1.7782,1.7849,1.7849,1.7849,1.7916,1.8009,1.8223,0.0,0.0,0.0,0.0,0.0,0.0,0.0,0.0,0.0,0.0,0.0,0.0,0.0,0.0,0.0,0.0,0.0,0.0,0.0,0.0,0.0,0.0,2.3107,2.4748,2.3093,2.1393,2.2466,2.1884,2.1162,2.1381,2.1662,2.1957,2.2205,2.2352,2.2512,2.2853,2.2893,2.2893,2.2893,2.2893,2.2893,2.2893,2.2893,2.2893,2.2893,2.2893,2.2893,2.2893,2.2893,2.2893,2.2893,2.2893,2.2893,2.2893,2.2893,2.2893,2.2893,2.2893,2.2893,2.2893,2.2893,2.2893,2.2893,2.2893,2.2893,2.2893,2.2893,2.2893,2.2893,2.2893,2.2893,2.2893,2.2893,2.2893,2.2893,2.2893,2.2893,2.2893,0.0,0.0,0.0,0.0,0.0,0.0,0.0,0.0,0.0,0.0,0.0,0.0,0.0,0.0,0.0,0.0,0.0,0.0,0.0,0.0,0.0,0.0,0.0,0.0,0.0,0.0,0.0,0.0,0.0,0.0,0.0,0.0,1.8169,1.8169,1.8276,0.0,0.0,0.0,0.0,1.8826,0.0,0.0,1.9092,0.0,0.0,0.0,0.0,0.0,0.0,0.0,0.0,0.0,0.0,0.0,0.0,0.0,0.0,0.0,0.0,0.0,0.0,0.0,2.4363,2.2889,2.3481,2.2748,2.1872,2.1644,2.181,2.2071,2.2365,2.2498,2.2632,2.2867,2.2893,2.2893,2.2893,2.2893,2.2893,2.2893,2.2893,2.2893,2.2893,2.2893,2.2893,2.2893,2.2893,0.0,2.2893,2.2893,2.2893,2.2893,2.2893,2.2893,2.2893,2.2893,2.2893,2.2893,2.2893,2.2893,2.2893,2.2893,2.2893,2.2893,2.2893,2.2893,2.2893,2.2893,2.2893,2.2893,2.2893,2.2893,2.2893,2.2893,2.2893,2.2893,0.0,0.0,0.0,0.0,0.0,0.0,0.0,0.0,0.0,0.0,0.0,0.0,0.0,0.0,0.0,0.0,0.0,0.0,0.0,0.0,0.0,0.0,0.0,0.0,0.0,0.0,0.0,0.0,0.0,0.0,0.0,0.0,1.8504,0.0,1.8783,1.8903,1.8903,0.0,1.9105,1.9401,0.0,1.9401,1.9401,0.0,0.0,0.0,1.9924,2.0342,0.0,0.0,0.0,0.0,0.0,0.0,0.0,0.0,0.0,0.0,0.0,0.0,0.0,0.0,0.0,0.0,2.4085,0.0,2.3319,2.1979,2.1888,2.215,2.2378,2.2672,2.2893,2.2893,2.2893,2.2893,2.2893,2.2893,2.2893,2.2893,2.2893,2.2893,2.2893,2.2893,2.2893,2.2893,2.2893,2.2893,2.2893,2.2893,2.2893,2.2893,2.2893,2.2893,2.2893,2.2893,2.2893,2.2893,2.2893,2.2893,2.2893,2.2893,2.2893,2.2893,2.2893,2.2893,2.2893,2.2893,2.2893,2.2893,2.2893,2.2893,2.2893,2.2893,2.2893,2.2893,0.0,0.0,0.0,0.0,0.0,0.0,0.0,0.0,0.0,0.0,0.0,0.0,0.0,0.0,0.0,0.0,0.0,0.0,0.0,0.0,0.0,0.0,0.0,0.0,0.0,0.0,0.0,0.0,0.0,0.0,0.0,0.0,0.0,0.0,1.9118,1.9267,1.9267,1.9267,0.0,0.0,1.9401,1.9401,0.0,0.0,0.0,0.0,0.0,2.0342,0.0,0.0,2.4076,2.5432,0.0,0.0,0.0,0.0,0.0,0.0,2.9541,0.0,0.0,0.0,0.0,0.0,0.0,0.0,2.5344,2.3919,2.3963,2.3951,2.2944,2.284,2.2893,2.2893,2.2893,2.2893,2.2893,2.2893,2.2893,2.2893,2.2893,2.2893,2.2893,2.2893,2.2893,0.0,2.2893,2.2893,2.2893,2.2893,2.2893,2.2893,2.2893,2.2893,2.2893,2.2893,2.2893,2.2893,2.2893,2.2893,2.2893,2.2893,2.2893,2.2893,2.2893,2.2893,2.2893,2.2893,2.2893,2.2893,2.2893,2.2893,2.2893,2.2893,2.2893,2.2893,0.0,0.0,0.0,0.0,0.0,0.0,0.0,0.0,0.0,0.0,0.0,0.0,0.0,0.0,0.0,0.0,0.0,0.0,0.0,0.0,0.0,0.0,0.0,0.0,0.0,0.0,0.0,0.0,0.0,0.0,0.0,0.0,0.0,0.0,0.0,0.0,0.0,0.0,0.0,0.0,1.9401,0.0,0.0,1.9401,1.978,0.0,0.0,0.0,2.2928,2.3533,2.5319,0.0,0.0,0.0,0.0,0.0,0.0,0.0,0.0,0.0,0.0,0.0,0.0,0.0,2.7512,2.6939,2.591,2.3825,2.3699,2.3761,2.3045,2.2893,2.2893,2.2893,2.2893,2.2893,2.2893,2.2893,2.2893,2.2893,2.2893,2.2893,2.2893,2.2893,2.2893,2.2893,2.2893,2.2893,2.2893,2.2893,2.2893,2.2893,2.2893,2.2893,2.2893,2.2893,2.2893,2.2893,2.2893,2.2893,2.2893,2.2893,2.2893,2.2893,2.2893,2.2893,2.2893,2.2893,2.2893,2.2893,2.2893,2.2893,2.2893,2.2893,2.2893,2.2893,0.0,0.0,0.0,0.0,0.0,0.0,0.0,0.0,0.0,0.0,0.0,0.0,0.0,0.0,0.0,0.0,0.0,0.0,0.0,0.0,0.0,0.0,0.0,0.0,0.0,0.0,0.0,0.0,0.0,0.0,0.0,0.0,0.0,0.0,0.0,0.0,0.0,0.0,0.0,1.9401,1.9401,1.9401,0.0,0.0,2.0254,0.0,2.0221,2.1628,2.3908,2.3267,2.5372,0.0,0.0,0.0,0.0,0.0,3.0898,0.0,0.0,0.0,0.0,0.0,0.0,0.0,2.7211,2.682,2.6224,2.3418,2.3114,2.33,2.3215,2.3201,2.3133,2.2928,2.2893,2.2893,2.2893,2.2893,2.2893,2.2893,2.2893,2.2893,2.2893,2.2893,2.2893,2.2893,2.2893,2.2893,2.2893,2.2893,2.2893,2.2893,2.2893,2.2893,2.2893,2.2893,2.2893,2.2893,2.2893,2.2893,2.2893,2.2893,2.2893,2.2893,2.2893,2.2893,2.2893,2.2893,2.2893,2.2893,2.2893,2.2893,2.2893,2.2893,2.2893,2.2893,0.0,0.0,0.0,0.0,0.0,0.0,0.0,0.0,0.0,0.0,0.0,0.0,0.0,0.0,0.0,0.0,0.0,0.0,0.0,0.0,0.0,0.0,0.0,0.0,0.0,0.0,0.0,0.0,0.0,0.0,0.0,0.0,0.0,0.0,0.0,0.0,0.0,0.0,0.0,1.9401,1.9401,0.0,1.9428,1.9626,1.9883,2.0146,2.013,2.0525,2.1454,0.0,2.7388,3.0364,0.0,0.0,0.0,0.0,0.0,0.0,0.0,0.0,0.0,0.0,0.0,0.0,3.0079,3.055,3.05,2.8473,2.8646,2.8327,2.5502,2.4979,2.452,2.3133,2.2893,2.2893,2.2893,2.2893,2.2893,2.2893,2.2893,2.2893,2.2893,2.2893,2.2893,2.2893,2.2893,2.2893,2.2893,2.2893,2.2893,2.2893,2.2893,2.2893,2.2893,2.2893,2.2893,2.2893,2.2893,2.2893,2.2893,2.2893,2.2893,2.2893,2.2893,2.2893,2.2893,2.2893,2.2893,2.2893,2.2893,2.2893,2.2893,2.2893,2.2893,2.2893,0.0,0.0,0.0,0.0,0.0,0.0,0.0,0.0,0.0,0.0,0.0,0.0,0.0,0.0,0.0,0.0,0.0,0.0,0.0,0.0,0.0,0.0,0.0,0.0,0.0,0.0,0.0,0.0,0.0,0.0,0.0,0.0,0.0,0.0,0.0,0.0,0.0,0.0,1.9615,1.9615,1.9615,0.0,1.9613,1.9907,1.9983,2.0054,2.0347,2.158,2.3505,2.6103,2.8755,0.0,0.0,3.0898,3.0898,0.0,3.0898,3.0898,0.0,0.0,0.0,3.0898,0.0,0.0,0.0,3.0287,3.0377,2.8664,2.8233,2.7619,2.5838,2.4791,2.3924,2.303,2.2893,2.2893,2.2893,2.2893,2.2893,2.2893,2.2893,2.2893,2.2893,2.2893,2.2893,2.2893,2.2893,2.2893,2.2893,2.2893,2.2893,2.2893,2.2893,2.2893,2.2893,2.2893,2.2893,2.2893,2.2893,2.2893,2.2893,2.2893,2.2893,2.2893,2.2893,2.2893,2.2893,2.2893,2.2893,2.2893,2.2893,2.2893,2.2893,2.2893,2.2893,2.2893,0.0,0.0,0.0,0.0,0.0,0.0,0.0,0.0,0.0,0.0,0.0,0.0,0.0,0.0,0.0,0.0,0.0,0.0,0.0,0.0,0.0,0.0,0.0,1.8771,0.0,0.0,0.0,0.0,0.0,0.0,0.0,0.0,0.0,0.0,0.0,0.0,0.0,0.0,0.0,1.988,0.0,2.0142,2.0353,2.0322,2.049,2.0774,2.0779,2.2811,2.5771,2.7404,0.0,3.005,3.0704,3.0674,0.0,0.0,0.0,0.0,0.0,0.0,0.0,0.0,0.0,3.0098,0.0,0.0,0.0,2.7933,2.7344,0.0,0.0,0.0,0.0,0.0,0.0,0.0,0.0,2.2853,0.0,2.2893,2.2893,2.2893,2.2893,2.2893,2.2893,2.2893,2.2893,2.2893,2.2893,2.2893,2.2893,2.2893,2.2893,2.2893,2.2893,2.2893,2.2893,2.2893,2.2893,2.2893,2.2893,2.2893,2.2893,2.2893,2.2893,2.2893,2.2893,2.2893,2.2893,2.2893,2.2893,2.2893,2.2893,2.2893,2.2893,2.2907,0.0,0.0,0.0,0.0,0.0,0.0,0.0,0.0,0.0,0.0,0.0,0.0,0.0,0.0,0.0,0.0,0.0,0.0,1.9294,0.0,0.0,0.0,0.0,0.0,1.9348,0.0,0.0,0.0,0.0,0.0,0.0,0.0,0.0,0.0,1.9401,0.0,0.0,0.0,1.9947,0.0,2.0468,2.1315,0.0,2.1077,2.1525,2.2609,2.1468,2.2281,2.4116,0.0,2.6409,2.7073,0.0,2.9873,0.0,0.0,0.0,0.0,0.0,0.0,0.0,0.0,2.8664,0.0,0.0,0.0,2.9689,2.9829,0.0,0.0,0.0,0.0,0.0,0.0,0.0,0.0,2.2512,2.2699,2.2893,2.2893,2.2893,2.2893,2.2893,2.2893,2.2893,2.2893,2.2893,2.2893,2.2893,2.2893,2.2893,2.2893,2.2893,2.2893,2.2893,2.2893,2.2893,2.2893,2.2893,2.2893,2.2893,2.2893,2.2893,2.2893,2.2893,2.2893,2.2893,2.2893,2.2893,2.2893,2.2893,2.2893,2.2893,2.2893,2.2893,2.2934,0.0,0.0,0.0,0.0,0.0,0.0,0.0,0.0,0.0,0.0,0.0,0.0,0.0,0.0,0.0,0.0,0.0,0.0,0.0,0.0,0.0,0.0,0.0,0.0,0.0,0.0,0.0,0.0,1.9401,0.0,0.0,0.0,0.0,0.0,1.9626,0.0,2.0037,0.0,0.0,0.0,0.0,0.0,0.0,2.1524,2.1347,2.186,2.1308,2.2184,2.3698,0.0,2.5832,0.0,0.0,0.0,0.0,0.0,0.0,0.0,0.0,0.0,0.0,0.0,0.0,0.0,0.0,0.0,2.8746,0.0,0.0,0.0,0.0,0.0,0.0,0.0,2.2813,0.0,0.0,0.0,2.2893,0.0,0.0,0.0,2.2893,2.2893,2.2893,2.2893,2.2893,2.2893,2.2893,2.2893,2.2893,2.2893,2.2893,2.2893,2.2893,2.2893,2.2893,2.2893,2.2893,2.2893,2.2893,2.2893,2.2893,2.2893,2.2893,2.2893,2.2893,2.2893,2.2893,2.2893,2.2893,2.2893,2.2893,2.2893,2.3014,2.3153,0.0,0.0,0.0,0.0,0.0,0.0,0.0,0.0,0.0,0.0,0.0,0.0,1.5201,1.776,0.0,0.0,0.0,1.9401,0.0,0.0,1.9401,0.0,0.0,0.0,0.0,0.0,0.0,0.0,0.0,0.0,0.0,0.0,0.0,0.0,0.0,2.008,2.0344,0.0,0.0,2.0846,2.1029,2.1821,2.2841,2.2059,2.1506,2.1109,2.1109,2.1884,2.2983,2.345,2.484,0.0,2.6076,0.0,0.0,0.0,0.0,0.0,2.878,0.0,0.0,0.0,0.0,0.0,0.0,0.0,0.0,0.0,0.0,0.0,0.0,0.0,0.0,0.0,0.0,0.0,0.0,0.0,0.0,0.0,0.0,0.0,0.0,2.2893,2.2893,2.2893,2.2893,2.2893,2.2893,2.2893,2.2893,2.2893,2.2893,2.2893,2.2893,2.2893,2.2893,2.2893,2.2893,2.2893,2.2893,2.2893,2.2893,2.2893,2.2893,2.2893,2.2893,2.2893,2.2893,2.2893,2.2893,2.2893,2.2893,2.2893,2.306,2.3305,0.0,0.8912,0.0,0.0,0.0,0.0,0.0,0.0,0.0,0.0,0.0,0.0,0.0,0.0,0.0,0.0,0.0,1.9401,1.9401,0.0,1.9401,0.0,0.0,0.0,0.0,0.0,0.0,0.0,0.0,0.0,0.0,0.0,0.0,0.0,0.0,2.0388,2.0686,2.0699,2.0842,2.1096,2.1109,2.1141,2.1362,0.0,2.2497,2.1109,2.1109,0.0,0.0,2.3045,2.2591,0.0,0.0,0.0,0.0,0.0,0.0,0.0,0.0,0.0,0.0,2.7479,0.0,0.0,0.0,0.0,2.5279,0.0,0.0,0.0,0.0,0.0,0.0,0.0,0.0,0.0,0.0,0.0,0.0,0.0,0.0,0.0,0.0,2.2893,2.2893,2.2893,2.2893,2.2893,2.2893,2.2893,2.2893,2.2893,2.2893,2.2893,2.2893,2.2893,2.2893,2.2893,2.2893,2.2893,2.2893,2.2893,2.2893,2.2893,2.2893,2.2893,2.2893,2.2893,2.2893,2.2893,2.2893,2.2893,2.2893,2.2893,2.306,2.3332,0.0,0.0,0.0,0.0,0.0,0.0,0.0,1.0643,0.0,0.0,0.0,0.0,0.0,0.0,1.9401,0.0,0.0,1.9401,1.9401,1.9401,0.0,0.0,0.0,1.9401,0.0,0.0,0.0,0.0,0.0,0.0,0.0,0.0,0.0,0.0,0.0,2.0695,0.0,0.0,0.0,0.0,0.0,2.1109,2.1172,0.0,0.0,2.1109,2.1109,2.1109,0.0,2.1758,2.231,2.2748,2.2764,2.4005,2.5357,2.4844,2.5595,0.0,0.0,0.0,2.5882,2.5433,0.0,0.0,0.0,0.0,0.0,0.0,0.0,0.0,0.0,0.0,0.0,0.0,0.0,0.0,0.0,0.0,0.0,0.0,0.0,0.0,0.0,0.0,2.2893,2.2893,2.2893,2.2893,2.2893,2.2893,2.2893,2.2893,2.2893,2.2893,2.2893,2.2893,2.2893,2.2893,2.2893,2.2893,2.2893,2.2893,2.2893,2.2893,2.2893,2.2893,2.2893,2.2893,2.2893,2.2893,2.2893,2.3027,2.3166,2.3166,2.3354,2.3688,0.926,0.0,0.0,0.0,0.0,0.0,0.0,0.0,0.0,0.0,1.5359,0.0,1.7806,0.0,1.9401,0.0,1.9495,1.9548,1.9548,1.9613,0.0,1.9679,1.9679,0.0,0.0,0.0,0.0,0.0,0.0,2.0024,0.0,0.0,0.0,0.0,0.0,0.0,2.1109,0.0,2.1109,0.0,0.0,2.1109,0.0,0.0,2.1109,2.1109,0.0,2.1109,2.1122,2.1229,2.2019,2.2714,2.1728,2.2986,2.4615,2.3592,2.4188,2.5077,2.4745,2.4645,0.0,2.4761,2.4127,0.0,2.4085,0.0,0.0,0.0,0.0,0.0,0.0,0.0,0.0,0.0,0.0,0.0,0.0,0.0,0.0,0.0,0.0,0.0,0.0,0.0,2.2893,2.2893,2.2893,2.2893,0.0,2.2893,2.2893,2.2893,2.2893,2.2893,2.2893,2.2893,2.2893,2.2893,2.2893,2.2893,2.2893,2.2893,2.2893,2.2893,2.2893,2.2893,2.2893,2.2893,2.2893,2.2907,2.3014,2.3153,2.3292,2.3292,2.3581,2.3995,0.0,0.0,0.0,0.0,0.9704,0.0,0.0,0.0,1.2898,0.0,1.6109,1.7718,1.924,1.9415,1.9428,1.9441,1.9666,0.0,1.9826,2.005,0.0,0.0,2.0197,2.0197,2.0197,0.0,0.0,0.0,0.0,0.0,0.0,0.0,0.0,0.0,2.0989,0.0,2.1109,2.1109,2.1109,2.1109,2.1109,2.1109,2.1109,2.1122,2.1136,2.1136,2.1136,2.1136,2.1176,2.1502,2.1609,2.1649,2.193,2.1991,2.2004,2.2004,2.2017,2.2481,2.4452,2.4988,2.5062,2.5308,2.5383,0.0,0.0,0.0,2.2893,0.0,0.0,0.0,0.0,0.0,0.0,0.0,0.0,0.0,0.0,0.0,0.0,0.0,0.0,0.0,0.0,2.2893,2.2893,2.2893,2.2893,0.0,0.0,2.2893,2.2893,2.2893,2.2893,2.2893,2.2893,2.2893,2.2893,2.2893,2.2893,2.2893,2.2893,2.2893,2.2893,2.2893,2.2893,2.2893,2.2893,2.2893,2.2893,2.2934,2.3207,2.3305,2.3332,2.3332,2.3728,2.4262,0.9551,0.9666,0.9737,0.0,0.9765,1.021,0.0,0.0,0.0,0.0,1.7777,1.9031,1.9637,1.9693,1.9773,1.9987,2.005,0.0,0.0,0.0,0.0,2.0197,2.0197,2.0197,2.0197,2.0197,0.0,2.0561,0.0,0.0,2.0851,0.0,0.0,0.0,0.0,0.0,2.1109,2.1109,2.1109,2.1109,2.1109,2.1109,0.0,0.0,2.1475,2.1475,2.1475,2.1475,2.1515,2.181,2.1903,2.1917,2.1997,2.2138,2.2311,2.2311,2.2458,2.2781,2.3324,2.3439,2.3501,2.3536,2.3563,2.3461,0.0,0.0,0.0,0.0,0.0,0.0,0.0,0.0,0.0,0.0,0.0,0.0,0.0,0.0,0.0,0.0,0.0,0.0,2.2893,2.2893,2.2893,2.2893,2.2893,0.0,0.0,0.0,2.2893,2.2893,2.2893,2.2893,2.2893,2.2893,2.2893,2.2893,2.2893,2.2893,2.2893,2.2893,2.2893,2.2893,2.2893,2.2893,2.2893,2.2893,2.2893,2.2934,2.3207,2.3559,2.3981,2.3981,2.4172,2.4492,0.97,0.0,0.0,1.0717,0.0,0.0,1.2067,0.0,0.0,1.7079,1.8695,0.0,1.9973,1.9957,2.0024,2.0184,2.0317,0.0,0.0,0.0,0.0,2.0584,2.0584,2.0584,2.0584,2.0584,0.0,2.0869,0.0,0.0,2.1109,0.0,0.0,0.0,0.0,2.1109,0.0,2.1109,2.1109,2.1122,2.1256,0.0,0.0,2.1662,2.177,2.1796,2.1917,2.1877,2.1823,2.2071,2.2178,2.2205,2.2358,2.2519,2.2605,2.2605,2.276,2.2893,2.2893,2.2893,2.2893,2.2893,2.2893,2.2893,2.2893,2.2893,2.2893,0.0,0.0,0.0,0.0,0.0,0.0,0.0,0.0,0.0,0.0,0.0,0.0,0.0,0.0,0.0,2.2893,2.2893,2.2893,2.2893,2.2893,0.0,0.0,0.0,2.2893,2.2893,2.2893,2.2893,2.2893,2.2893,2.2893,2.2893,2.2893,2.2893,2.2893,2.2893,2.2893,2.2893,2.2893,2.2893,2.2893,2.2893,2.2974,2.3113,2.3541,2.3959,2.4359,2.4359,2.4452,2.4599,0.0,0.0,0.0,0.0,0.0,0.0,0.0,1.5473,0.0,1.7727,0.0,2.0224,2.0264,2.0264,2.0277,2.0317,0.0,2.0766,2.0766,2.0962,2.1109,2.1109,2.1109,2.1109,2.1109,2.1109,0.0,0.0,0.0,0.0,0.0,0.0,0.0,0.0,0.0,0.0,0.0,2.1149,2.1162,2.1189,2.1515,2.1649,2.1676,2.197,2.2044,2.2084,2.2378,2.2285,2.2084,2.2378,2.2472,2.2525,2.2813,2.2893,2.2893,2.2893,2.2893,2.2893,2.2893,2.2893,2.2893,2.2893,2.2893,2.2893,2.2893,2.2893,2.2893,2.2893,2.2893,2.2893,0.0,0.0,0.0,0.0,0.0,0.0,0.0,0.0,0.0,0.0,0.0,0.0,2.2893,2.2893,2.2893,0.0,0.0,0.0,0.0,0.0,2.2893,2.2893,2.2893,2.2893,2.2893,2.2893,2.2893,2.2893,2.2893,2.2893,2.2893,2.2893,2.2893,2.2893,2.2893,2.2893,2.2893,2.2934,2.3126,2.3452,2.4008,2.4346,2.4599,2.4599,2.4599,2.4599,0.0,0.0,0.0,0.0,0.0,1.6586,1.6861,1.7183,1.7973,1.9503,2.0019,2.029,2.0575,2.0601,2.0695,2.0935,2.1002,0.0,0.0,0.0,0.0,2.1109,2.1109,2.1109,2.1109,2.1109,2.1109,0.0,0.0,0.0,0.0,0.0,0.0,0.0,0.0,0.0,2.1122,2.1408,0.0,2.1529,2.1823,2.1943,2.197,2.2231,2.2338,2.2378,2.2706,2.2592,2.2392,2.2686,2.2813,2.2827,2.288,2.2893,2.2893,2.2893,2.2893,2.2893,2.2893,2.2893,2.2893,2.2893,2.2893,2.2893,2.2893,2.2893,2.2893,2.2893,2.2893,2.2893,2.2893,0.0,0.0,0.0,0.0,0.0,0.0,0.0,0.0,0.0,0.0,0.0,0.0,0.0,0.0,0.0,0.0,0.0,0.0,0.0,2.2893,0.0,2.2893,2.2893,0.0,0.0,2.2893,2.2893,2.2893,2.2893,2.2893,2.2893,2.2893,2.2893,2.2893,2.2893,2.292,2.314,2.3567,2.4062,2.4168,2.4346,2.4599,2.4599,2.4599,2.4599,0.0,0.0,0.0,0.0,0.0,0.0,0.0,1.9208,0.0,2.0349,2.0601,2.0735,2.0882,2.0895,2.0962,2.1096,2.1109,2.1109,2.1109,2.1109,2.1109,2.1109,2.1109,0.0,2.1109,2.1109,2.1109,2.1109,0.0,0.0,0.0,0.0,0.0,0.0,0.0,2.1368,0.0,0.0,0.0,2.1836,2.2098,2.2205,2.2245,2.2539,2.2645,2.2672,2.284,2.28,2.2672,2.2853,2.2893,2.2893,2.2893,2.2893,2.2893,2.2893,2.2893,2.2893,2.2893,2.2893,2.2893,2.2893,2.2893,2.2893,2.2893,2.2893,2.2893,2.2893,2.2893,2.2893,2.2893,2.2893,0.0,0.0,0.0,0.0,0.0,0.0,0.0,0.0,0.0,0.0,0.0,0.0,0.0,0.0,0.0,0.0,0.0,0.0,2.2893,0.0,0.0,0.0,2.2893,0.0,2.2893,2.2893,2.2893,2.2893,2.2893,2.2893,2.2893,2.2893,2.2893,2.2987,2.314,2.3594,2.3955,2.4222,2.4332,2.4479,2.4599,2.4599,2.4599,2.4599,0.0,1.6098,0.0,0.0,1.8508,0.0,2.0566,2.0806,2.0806,2.0806,2.0962,2.1109,2.1109,2.1109,2.1109,2.1109,2.1109,2.1109,2.1109,2.1109,2.1109,2.1109,2.1109,2.1109,2.1109,2.1109,2.1109,0.0,0.0,0.0,0.0,0.0,0.0,0.0,0.0,0.0,0.0,0.0,2.2084,2.2111,2.2392,2.2512,2.2539,2.2813,2.2893,2.2893,2.2893,2.2893,2.2893,2.2893,2.2893,2.2893,2.2893,2.2893,2.2893,2.2893,2.2893,2.2893,2.2893,2.2893,2.2893,2.2893,2.2893,2.2893,2.2893,2.2893,2.2893,2.2893,2.2893,2.2893,2.2893,2.2893,0.0,0.0,0.0,0.0,0.0,0.0,0.0,0.0,0.0,0.0,0.0,0.0,0.0,0.0,0.0,0.0,2.2893,0.0,0.0,0.0,0.0,2.2893,2.2893,0.0,2.2893,2.2893,2.2893,2.2893,2.2893,2.2893,2.2893,2.2893,2.2974,2.3166,2.3519,2.4008,2.4235,2.4315,2.4506,2.4599,2.4599,2.4599,2.4599,2.4599,0.0,0.0,0.0,0.0,0.0,0.0,2.0997,2.1069,2.1069,2.1069,2.1096,2.1109,2.1109,2.1109,2.1109,2.1109,2.1109,2.1109,2.1109,2.1109,2.1109,2.1109,2.1109,2.1109,2.1109,2.1109,2.1109,0.0,0.0,0.0,0.0,0.0,0.0,0.0,0.0,0.0,0.0,2.2258,2.2345,2.2405,2.2733,2.2853,2.2853,2.288,2.2893,2.2893,2.2893,2.2893,2.2893,2.2893,2.2893,2.2893,2.2893,2.2893,2.2893,2.2893,2.2893,2.2893,2.2893,2.2893,2.2893,2.2893,2.2893,2.2893,2.2893,2.2893,2.2893,2.2893,2.2893,2.2893,2.2893,2.2893,2.2893,0.0,0.0,0.0,0.0,0.0,0.0,0.0,0.0,0.0,0.0,2.2893,0.0,0.0,0.0,0.0,0.0,0.0,0.0,2.2893,2.2893,2.2893,2.2893,2.2893,2.2893,2.2893,2.2893,2.2893,2.2893,2.2893,2.2893,2.2907,2.3166,2.3607,2.4128,2.4182,2.4356,2.4559,2.4586,2.4599,2.4599,2.4599,2.4599,2.4599,0.0,0.0,0.0,0.0,0.0,0.0,0.0,2.1109,2.1109,2.1109,2.1109,2.1109,2.1109,2.1109,2.1109,2.1109,2.1109,2.1109,2.1109,2.1109,2.1109,2.1109,2.1109,2.1109,2.1109,2.1109,2.1203,0.0,0.0,0.0,0.0,0.0,0.0,0.0,0.0,2.2245,2.2258,2.2565,2.2686,2.2699,2.2853,2.2893,2.2893,2.2893,2.2893,2.2893,2.2893,2.2893,2.2893,2.2893,2.2893,2.2893,2.2893,2.2893,2.2893,2.2893,2.2893,2.2893,2.2893,2.2893,2.2893,2.2893,2.2893,2.2893,2.2893,2.2893,2.2893,2.2893,2.2893,2.2893,2.2893,2.2893,2.2893,2.2893,0.0,0.0,0.0,0.0,0.0,0.0,0.0,0.0,0.0,0.0,0.0,0.0,0.0,0.0,0.0,0.0,0.0,2.2893,0.0,2.2893,2.2893,2.2893,2.2893,2.2893,2.2893,2.2893,2.2893,2.2893,2.3,2.3166,2.3647,2.3995,2.4222,2.4359,2.4492,2.4599,2.4599,2.4599,2.4599,2.4599,2.4599,2.4599,2.0583,0.0,2.1109,0.0,2.1109,2.1109,2.1109,2.1109,2.1109,2.1109,2.1109,2.1109,2.1109,2.1109,2.1109,2.1109,2.1109,2.1149,2.1229,2.1243,2.1283,2.1363,2.1363,0.0,2.1363,2.1363,2.147,2.1716,2.1716,0.0,0.0,0.0,0.0,0.0,2.2418,2.2552,2.2565,2.2813,2.2893,2.2893,2.2893,2.2893,2.2893,2.2893,2.2893,2.2893,2.2893,2.2893,2.2893,2.2893,2.2893,2.2893,2.2893,2.2893,2.2893,2.2893,2.2893,2.2893,2.2893,2.2893,2.2893,2.2893,2.2893,2.2893,2.2893,2.2893,2.2893,2.2893,2.2893,2.2893,2.2893,2.2893,2.2893,2.2893,0.0,0.0,0.0,0.0,0.0,0.0,0.0,2.2893,2.2893,0.0,0.0,0.0,0.0,0.0,0.0,0.0,0.0,0.0,0.0,0.0,2.2893,2.2893,2.2893,2.2893,2.2893,2.2893,2.2893,2.2987,2.322,2.3572,2.4022,2.4249,2.4342,2.4519,2.4599,2.4599,2.4599,2.4599,2.4599,2.4599,2.4599,2.4599,2.1109,2.1109,2.1109,2.1109,2.1109,2.1109,2.1109,2.1109,2.1109,2.1109,2.1109,2.1109,2.1109,2.1109,2.1109,2.1109,2.1109,2.1229,2.1555,2.1582,2.1703,0.0,0.0,2.1977,2.1977,2.1977,2.1977,2.201,0.0,0.0,2.2024,0.0,2.2418,2.2432,2.2726,2.2893,2.2893,2.2893,2.2893,2.2893,2.2893,2.2893,2.2893,2.2893,2.2893,2.2893,2.2893,2.2893,2.2893,2.2893,2.2893,2.2893,2.2893,2.2893,2.2893,2.2893,2.2893,2.2893,2.2893,2.2893,2.2893,2.2893,2.2893,2.2893,2.2893,2.2893,2.2893,2.2893,2.2893,2.2893,2.2893,2.2893,2.2893,2.2893,0.0,0.0,0.0,0.0,0.0,0.0,2.2893,2.2893,2.2893,0.0,0.0,0.0,0.0,0.0,0.0,0.0,0.0,2.2893,2.2893,0.0,2.2893,2.2893,2.2893,2.2893,2.2893,2.2893,2.2907,2.318,2.3599,2.4195,2.4195,2.4369,2.4599,2.4599,2.4599,2.4599,2.4599,2.4599,2.4599,2.4599,2.4599,2.4599,2.1109,2.1109,2.1109,2.1109,2.1109,2.1176,2.1408,2.1448,2.1515,2.1683,2.171,2.171,2.171,2.1569,2.1529,0.0,2.171,2.175,0.0,2.1877,2.1917,2.201,2.1991,2.1991,2.1991,2.1991,2.2084,2.2285,0.0,0.0,0.0,2.2706,2.276,2.276,2.2853,2.2893,2.2893,2.2893,2.2893,2.2893,2.2893,2.2893,2.2893,2.2893,2.2893,2.2893,2.2893,2.2893,2.2893,2.2893,2.2893,2.2893,2.2893,2.2893,2.2893,2.2893,2.2893,2.2893,2.2893,2.2893,2.2893,2.2893,2.2893,2.2893,2.2893,2.2893,2.2893,2.2893,2.2893,2.2893,2.2893,2.2893,2.2893,2.2893,2.2893,0.0,0.0,0.0,0.0,0.0,2.2893,2.2893,0.0,2.2893,0.0,0.0,0.0,0.0,0.0,0.0,0.0,0.0,2.2893,0.0,2.2893,2.2893,2.2893,2.2893,2.2893,2.3014,2.3193,2.3487,2.3848,2.4209,2.4372,2.4519,2.4599,2.4599,2.4599,2.4599,2.4599,2.4599,2.4599,2.4599,2.4599,2.4599,2.1109,2.1203,2.1269,2.1269,2.1363,2.1496,2.1716,2.1743,2.181,2.1997,2.1991,2.2031,2.2138,2.1991,0.0,2.1977,2.1991,2.2031,2.2138,2.2151,2.2205,2.2345,2.2345,2.2345,2.2345,2.2345,0.0,2.2579,2.2579,2.2686,2.2893,2.2893,2.2893,2.2893,2.2893,2.2893,2.2893,2.2893,2.2893,2.2893,2.2893,2.2893,2.2893,2.2893,2.2893,2.2893,2.2893,2.2893,2.2893,2.2893,2.2893,2.2893,2.2893,2.2893,2.2893,2.2893,2.2893,2.2893,2.2893,2.2893,2.2893,2.2893,2.2893,2.2893,2.2893,2.2893,2.2893,2.2893,2.2893,2.2893,2.2893,2.2893,2.2893,2.2893,2.2893,2.2893,2.2893,0.0,0.0,0.0,0.0,0.0,0.0,2.2893,2.2893,0.0,0.0,0.0,0.0,0.0,2.2893,2.2893,2.2893,2.2893,2.2893,2.2893,2.2893,2.2893,2.3014,2.3193,2.35,2.3794,2.4088,2.4382,2.4519,2.4599,2.4599,2.4599,2.4599,2.4599,2.4599,2.4599,2.4599,2.4599,2.4599,2.4599,2.1176,2.1422,2.1609,2.1609,2.1836,2.2024,2.2004,2.2017,2.205,2.2044,2.2044,2.2151,2.2418,2.2411,2.2338,2.2071,0.0,0.0,2.2432,2.2411,2.2579,2.288,2.2893,2.2893,2.2893,2.2893,2.2893,2.2893,2.2893,2.2893,2.2893,2.2893,2.2893,2.2893,2.2893,2.2893,2.2893,2.2893,2.2893,2.2893,2.2893,2.2893,2.2893,2.2893,2.2893,2.2893,2.2893,2.2893,2.2893,2.2893,2.2893,2.2893,2.2893,2.2893,2.2893,2.2893,2.2893,2.2893,2.2893,2.2893,2.2893,2.2893,2.2893,2.2893,2.2893,2.2893,2.2893,2.2893,2.2893,2.2893,2.2893,2.2893,2.2893,2.2893,2.2893,2.2893,2.2893,0.0,0.0,0.0,0.0,0.0,2.2893,2.2893,2.2893,0.0,0.0,0.0,0.0,0.0,2.2893,2.2893,2.2893,2.2893,2.2893,2.2893,2.2907,2.2934,2.3193,2.3487,2.3843,2.4075,2.4369,2.4599,2.4599,2.4599,2.4599,2.4599,2.4599,2.4599,2.4599,2.4599,2.4599,2.4599,2.4599,2.4599,2.1777,2.183,2.1917,2.1917,2.197,2.2058,2.2285,2.2311,2.2405,2.2653,2.2693,2.2719,2.2786,2.2786,2.276,2.2693,2.2693,2.2719,2.2786,2.2786,2.2827,2.2893,2.2893,2.2893,2.2893,2.2893,2.2893,2.2893,2.2893,2.2893,2.2893,2.2893,2.2893,2.2893,2.2893,2.2893,2.2893,2.2893,2.2893,2.2893,2.2893,2.2893,2.2893,2.2893,2.2893,2.2893,2.2893,2.2893,2.2893,2.2893,2.2893,2.2893,2.2893,2.2893,2.2893,2.2893,2.2893,2.2893,2.2893,2.2893,2.2893,2.2893,2.2893,2.2893,2.2893,2.2893,2.2893,2.2893,2.2893,2.2893,2.2893,2.2893,2.2893,2.2893,2.2893,2.2893,2.2893,2.2893,0.0,0.0,2.2893,2.2893,2.2893,2.2893,2.2893,0.0,0.0,2.2893,2.2893,2.2893,2.2893,2.2893,2.2893,2.2893,2.2893,2.2893,2.3014,2.322,2.3252,2.3594,2.4102,2.4168,2.4369,2.4599,2.4599,2.4599,2.4599,2.4599,2.4599,2.4599,2.4599,2.4599,2.4599,2.4599,2.4599,2.4599,2.1991,2.2098,2.2178,2.2178,2.2298,2.2465,2.2592,2.2619,2.2686,2.288,2.2893,2.2893,2.2893,2.2893,2.2893,2.2893,2.2893,2.2893,2.2893,2.2893,2.2893,2.2893,2.2893,2.2893,2.2893,2.2893,2.2893,2.2893,2.2893,2.2893,2.2893,2.2893,2.2893,2.2893,2.2893,2.2893,2.2893,2.2893,2.2893,2.2893,2.2893,2.2893,2.2893,2.2893,2.2893,2.2893,2.2893,2.2893,2.2893,2.2893,2.2893,2.2893,2.2893,2.2893,2.2893,2.2893,2.2893,2.2893,2.2893,2.2893,2.2893,2.2893,2.2893,2.2893,2.2893,2.2893,2.2893,2.2893,2.2893,2.2893,2.2893,2.2893,2.2893,2.2893,2.2893,2.2893,2.2893,2.2893,2.2893,2.2893,2.2893,2.2893,2.2893,2.2893,2.2893,2.2893,2.2893,0.0,2.2893,2.2893,2.2893,2.2893,2.2893,2.2893,2.2893,2.3006,2.3153,2.3292,2.3572,2.3888,2.4209,2.4342,2.4452,2.4599,2.4599,2.4599,2.4599,2.4599,2.4599,2.4599,2.4599,2.4599,2.4599,2.4599,2.4599,2.4599,2.2158,2.2311,2.2485,2.2485,2.2699,2.2893,2.2893,2.2893,2.2893,2.2893,2.2893,2.2893,2.2893,2.2893,2.2893,2.2893,2.2893,2.2893,2.2893,2.2893,2.2893,2.2893,2.2893,2.2893,2.2893,2.2893,2.2893,2.2893,2.2893,2.2893,2.2893,2.2893,2.2893,2.2893,2.2893,2.2893,2.2893,2.2893,2.2893,2.2893,2.2893,2.2893,2.2893,2.2893,2.2893,2.2893,2.2893,2.2893,2.2893,2.2893,2.2893,2.2893,2.2893,2.2893,2.2893,2.2893,2.2893,2.2893,2.2893,2.2893,2.2893,2.2893,2.2893,2.2893,2.2893,2.2893,2.2893,2.2893,2.2893,2.2893,2.2893,2.2893,2.2893,2.2893,2.2893,2.2893,2.2893,0.0,2.2893,2.2893,2.2893,2.2893,2.2893,2.2893,2.2893,2.2893,2.2893,2.2893,2.2893,2.2893,2.2893,2.2893,2.2893,2.292,2.296,2.3193,2.3332,2.3425,2.3968,2.4222,2.4275,2.4492,2.4599,2.4599,2.4599,2.4599,2.4599,2.4599,2.4599,2.4599,2.4599,2.4599,2.4599,2.4599,2.4599,2.4599,2.276,2.28,2.2827,2.2827,2.2867,2.2893,2.2893,2.2893,2.2893,2.2893,2.2893,2.2893,2.2893,2.2893,2.2893,2.2893,2.2893,2.2893,2.2893,2.2893,2.2893,2.2893,2.2893,2.2893,2.2893,2.2893,2.2893,2.2893,2.2893,2.2893,2.2893,2.2893,2.2893,2.2893,2.2893,2.2893,2.2893,2.2893,2.2893,2.2893,2.2893,2.2893,2.2893,2.2893,2.2893,2.2893,2.2893,2.2893,2.2893,2.2893,2.2893,2.2893,2.2893,2.2893,2.2893,2.2893,2.2893,2.2893,2.2893,2.2893,2.2893,2.2893,2.2893,2.2893,2.2893,2.2893,2.2893,2.2893,2.2893,2.2893,2.2893,2.2893,2.2893,2.2893,2.2893,2.2893,2.2893,0.0,2.2893,2.2893,2.2893,2.2893,2.2893,2.2893,2.2893,2.2893,2.2893,2.2893,2.2893,2.2893,2.2893,2.2893,2.2893,2.3027,2.3247,2.3265,2.3581,2.4062,2.4155,2.4329,2.4532,2.4572,2.4599,2.4599,2.4599,2.4599,2.4599,2.4599,2.4599,2.4599,2.4599,2.4599,2.4599,2.4599,2.4599,2.4599,2.2893,2.2893,2.2893,2.2893,2.2893,2.2893,2.2893,2.2893,2.2893,2.2893,2.2893,2.2893,2.2893,2.2893,2.2893,2.2893,2.2893,2.2893,2.2893,2.2893,2.2893,2.2893,2.2893,2.2893,2.2893,2.2893,2.2893,2.2893,2.2893,2.2893,2.2893,2.2893,2.2893,2.2893,2.2893,2.2893,2.2893,2.2893,2.2893,2.2893,2.2893,2.2893,2.2893,2.2893,2.2893,2.2893,2.2893,2.2893,2.2893,2.2893,2.2893,2.2893,2.2893,2.2893,2.2893,2.2893,2.2893,2.2893,2.2893,2.2893,2.2893,2.2893,2.2893,2.2893,2.2893,2.2893,2.2893,2.2893,2.2893,2.2893,2.2893,2.2893,2.2893,2.2893,2.2893,2.2893,2.2893,2.2893,2.2893,2.2893,2.2893,2.2893,2.2893,2.2893,2.2893,2.2893,2.2893,2.2893,2.2893,2.2893,2.2893,2.2893,2.2893,2.3041,2.3292,2.3487,2.3781,2.4209,2.4369,2.4466,2.4599,2.4599,2.4599,2.4599,2.4599,2.4599,2.4599,2.4599,2.4599,2.4599,2.4599,2.4599,2.4599,2.4599,2.4599,2.4599,2.2893,2.2893,2.2893,2.2893,2.2893,2.2893,2.2893,2.2893,2.2893,2.2893,2.2893,2.2893,2.2893,2.2893,2.2893,2.2893,2.2893,2.2893,2.2893,2.2893,2.2893,2.2893,2.2893,2.2893,2.2893,2.2893,2.2893,2.2893,2.2893,2.2893,2.2893,2.2893,2.2893,2.2893,2.2893,2.2893,2.2893,2.2893,2.2893,2.2893,2.2893,2.2893,2.2893,2.2893,2.2893,2.2893,2.2893,2.2893,2.2893,2.2893,2.2893,2.2893,2.2893,2.2893,2.2893,2.2893,2.2893,2.2893,2.2893,2.2893,2.2893,2.2893,2.2893,2.2893,2.2893,2.2893,2.2893,2.2893,2.2893,2.2893,2.2893,2.2893,2.2893,2.2893,0.0,2.2893,2.2893,2.2893,2.2893,2.2893,2.2893,2.2893,2.2893,2.2893,2.2893,2.2893,2.2893,2.2893,2.2893,2.2893,2.2934,2.3,2.3,2.3113,2.342,2.3728,2.4022,2.4302,2.4492,2.4599,2.4599,2.4599,2.4599,2.4599,2.4599,2.4599,2.4599,2.4599,2.4599,2.4599,2.4599,2.4599,2.4599,2.4599,2.4599,2.4599,2.2893,2.2893,2.2893,2.2893,2.2893,2.2893,2.2893,2.2893,2.2893,2.2893,2.2893,2.2893,2.2893,2.2893,2.2893,2.2893,2.2893,2.2893,2.2893,2.2893,2.2893,2.2893,2.2893,2.2893,2.2893,2.2893,2.2893,2.2893,2.2893,2.2893,2.2893,2.2893,2.2893,2.2893,2.2893,2.2893,2.2893,2.2893,2.2893,2.2893,2.2893,2.2893,2.2893,2.2893,2.2893,2.2893,2.2893,2.2893,2.2893,2.2893,2.2893,2.2893,2.2893,2.2893,2.2893,2.2893,2.2893,2.2893,2.2893,2.2893,2.2893,2.2893,2.2893,2.2893,2.2893,2.2893,2.2893,2.2893,2.2893,2.2893,2.2893,2.2893,2.2893,2.2893,0.0,0.0,2.2893,2.2893,2.2893,2.2893,2.2893,2.2893,2.2893,2.2893,2.2893,2.2893,2.2893,2.2893,2.2893,2.2893,2.2993,2.3252,2.3252,2.3434,2.3763,2.4022,2.4315,2.4572,2.4586,2.4599,2.4599,2.4599,2.4599,2.4599,2.4599,2.4599,2.4599,2.4599,2.4599,2.4599,2.4599,2.4599,2.4599,2.4599,2.4599,2.4599,2.2893,2.2893,2.2893,2.2893,2.2893,2.2893,2.2893,2.2893,2.2893,2.2893,2.2893,2.2893,2.2893,2.2893,2.2893,2.2893,2.2893,2.2893,2.2893,2.2893,2.2893,2.2893,2.2893,2.2893,2.2893,2.2893,2.2893,2.2893,2.2893,2.2893,2.2893,2.2893,2.2893,2.2893,2.2893,2.2893,2.2893,2.2893,2.2893,2.2893,2.2893,2.2893,2.2893,2.2893,2.2893,2.2893,2.2893,2.2893,2.2893,2.2893,2.2893,2.2893,2.2893,2.2893,2.2893,2.2893,2.2893,2.2893,2.2893,2.2893,2.2893,2.2893,2.2893,2.2893,2.2893,2.2893,2.2893,2.2893,2.2893,2.2893,2.2893,2.2893,2.2893,2.2893,0.0,2.2893,2.2893,2.2893,2.2893,2.2893,2.2893,2.2893,2.2893,2.2893,2.2893,2.2893,2.2893,2.2893,2.2893,2.3046,2.3207,2.3292,2.3639,2.3928,2.4035,2.4155,2.4342,2.4599,2.4599,2.4599,2.4599,2.4599,2.4599,2.4599,2.4599,2.4599,2.4599,2.4599,2.4599,2.4599,2.4599,2.4599,2.4599,2.4599,2.4599,2.4599,2.2893,2.2893,2.2893,2.2893,2.2893,2.2893,2.2893,2.2893,2.2893,2.2893,2.2893,2.2893,2.2893,2.2893,2.2893,2.2893,2.2893,2.2893,2.2893,2.2893,2.2893,2.2893,2.2893,2.2893,2.2893,2.2893,2.2893,2.2893,2.2893,2.2893,2.2893,2.2893,2.2893,2.2893,2.2893,2.2893,2.2893,2.2893,2.2893,2.2893,2.2893,2.2893,2.2893,2.2893,2.2893,2.2893,2.2893,2.2893,2.2893,2.2893,2.2893,2.2893,2.2893,2.2893,2.2893,2.2893,2.2893,2.2893,2.2893,2.2893,2.2893,2.2893,2.2893,2.2893,2.2893,2.2893,2.2893,2.2893,2.2893,2.2893,2.2893,2.2893,2.2893,2.2893,2.2893,2.2893,2.2893,2.2893,2.2893,2.2893,2.2893,2.2893,2.2893,2.2893,2.2893,2.2893,2.2893,2.2934,2.3041,2.3207,2.3372,2.3594,2.3995,2.4249,2.4342,2.4342,2.4436,2.4599,2.4599,2.4599,2.4599,2.4599,2.4599,2.4599,2.4599,2.4599,2.4599,2.4599,2.4599,2.4599,2.4599,2.4599,2.4599,2.4599,2.4599,2.4599,2.2893,2.2893,2.2893,2.2893,2.2893,2.2893,2.2893,2.2893,2.2893,2.2893,2.2893,2.2893,2.2893,2.2893,2.2893,2.2893,2.2893,2.2893,2.2893,2.2893,2.2893,2.2893,2.2893,2.2893,2.2893,2.2893,2.2893,2.2893,2.2893,2.2893,2.2893,2.2893,2.2893,2.2893,2.2893,2.2893,2.2893,2.2893,2.2893,2.2893,2.2893,2.2893,2.2893,2.2893,2.2893,2.2893,2.2893,2.2893,2.2893,2.2893,2.2893,2.2893,2.2893,2.2893,2.2893,2.2893,2.2893,2.2893,2.2893,2.2893,2.2893,2.2893,2.2893,2.2893,2.2893,2.2893,2.2893,2.2893,2.2893,2.2893,2.2893,2.2893,2.2893,2.2893,2.2893,2.2893,2.2893,2.2893,2.2893,2.2893,2.2893,2.2893,2.2893,2.2893,2.2893,2.2893,2.2893,2.3041,2.3278,2.3292,2.3572,2.4182,2.4209,2.4342,2.4599,2.4599,2.4599,2.4599,2.4599,2.4599,2.4599,2.4599,2.4599,2.4599,2.4599,2.4599,2.4599,2.4599,2.4599,2.4599,2.4599,2.4599,2.4599,2.4599,2.4599,2.4599,2.2893,2.2893,2.2893,2.2893,2.2893,2.2893,2.2893,2.2893,2.2893,2.2893,2.2893,2.2893,2.2893,2.2893,2.2893,2.2893,2.2893,2.2893,2.2893,2.2893,2.2893,2.2893,2.2893,2.2893,2.2893,2.2893,2.2893,2.2893,2.2893,2.2893,2.2893,2.2893,2.2893,2.2893,2.2893,2.2893,2.2893,2.2893,2.2893,2.2893,2.2893,2.2893,2.2893,2.2893,2.2893,2.2893,2.2893,2.2893,2.2893,2.2893,2.2893,2.2893,2.2893,2.2893,2.2893,2.2893,2.2893,2.2893,2.2893,2.2893,2.2893,2.2893,2.2893,2.2893,2.2893,2.2893,2.2893,2.2893,2.2893,2.2893,2.2893,2.2893,2.2893,2.2893,2.2893,2.2893,2.2893,2.2893,2.2893,2.2893,2.2893,2.2893,2.2893,2.2893,2.2893,2.2893,2.306,2.3233,2.3292,2.3714,2.4022,2.4195,2.4359,2.4519,2.4599,2.4599,2.4599,2.4599,2.4599,2.4599,2.4599,2.4599,2.4599,2.4599,2.4599,2.4599,2.4599,2.4599,2.4599,2.4599,2.4599,2.4599,2.4599,2.4599,2.4599,2.4599,2.2893,2.2893,2.2893,2.2893,2.2893,2.2893,2.2893,2.2893,2.2893,2.2893,2.2893,2.2893,2.2893,2.2893,2.2893,2.2893,2.2893,2.2893,2.2893,2.2893,2.2893,2.2893,2.2893,2.2893,2.2893,2.2893,2.2893,2.2893,2.2893,2.2893,2.2893,2.2893,2.2893,2.2893,2.2893,2.2893,2.2893,2.2893,2.2893,2.2893,2.2893,2.2893,2.2893,2.2893,2.2893,2.2893,2.2893,2.2893,2.2893,2.2893,2.2893,2.2893,2.2893,2.2893,2.2893,2.2893,2.2893,2.2893,2.2893,2.2893,2.2893,2.2893,2.2893,2.2893,2.2893,2.2893,2.2893,2.2893,2.2893,2.2893,2.2893,2.2893,2.2893,2.2893,2.2893,2.2893,2.2893,2.2893,2.2893,2.2893,2.2893,2.2893,2.2893,2.2893,2.2947,2.3033,2.322,2.3399,2.3625,2.4008,2.4262,2.4332,2.4506,2.4599,2.4599,2.4599,2.4599,2.4599,2.4599,2.4599,2.4599,2.4599,2.4599,2.4599,2.4599,2.4599,2.4599,2.4599,2.4599,2.4599,2.4599,2.4599,2.4599,2.4599,2.4599,2.4599,2.2893,2.2893,2.2893,2.2893,2.2893,2.2893,2.2893,2.2893,2.2893,2.2893,2.2893,2.2893,2.2893,2.2893,2.2893,2.2893,2.2893,2.2893,2.2893,2.2893,2.2893,2.2893,2.2893,2.2893,2.2893,2.2893,2.2893,2.2893,2.2893,2.2893,2.2893,2.2893,2.2893,2.2893,2.2893,2.2893,2.2893,2.2893,2.2893,2.2893,2.2893,2.2893,2.2893,2.2893,2.2893,2.2893,2.2893,2.2893,2.2893,2.2893,2.2893,2.2893,2.2893,2.2893,2.2893,2.2893,2.2893,2.2893,2.2893,2.2893,2.2893,2.2893,2.2893,2.2893,2.2893,2.2893,2.2893,2.2893,2.2893,2.2893,2.2893,2.2893,2.2893,2.2893,2.2893,2.2893,2.2893,2.2893,2.2893,2.2893,2.2893,2.2893,2.2893,2.292,2.302,2.3265,2.3345,2.3634,2.4168,2.4222,2.4369,2.4586,2.4599,2.4599,2.4599,2.4599,2.4599,2.4599,2.4599,2.4599,2.4599,2.4599,2.4599,2.4599,2.4599,2.4599,2.4599,2.4599,2.4599,2.4599,2.4599,2.4599,2.4599,2.4599,2.4599,2.4599,2.2893,2.2893,2.2893,2.2893,2.2893,2.2893,2.2893,2.2893,2.2893,2.2893,2.2893,2.2893,2.2893,2.2893,2.2893,2.2893,2.2893,2.2893,2.2893,2.2893,2.2893,2.2893,2.2893,2.2893,2.2893,2.2893,2.2893,2.2893,2.2893,2.2893,2.2893,2.2893,2.2893,2.2893,2.2893,2.2893,2.2893,2.2893,2.2893,2.2893,2.2893,2.2893,2.2893,2.2893,2.2893,2.2893,2.2893,2.2893,2.2893,2.2893,2.2893,2.2893,2.2893,2.2893,2.2893,2.2893,2.2893,2.2893,2.2893,2.2893,2.2893,2.2893,2.2893,2.2893,2.2893,2.2893,2.2893,2.2893,2.2893,2.2893,2.2893,2.2893,2.2893,2.2893,2.2893,2.2893,2.2893,2.2893,2.2893,2.2893,2.2893,2.2893,2.2893,2.3086,2.326,2.3292,2.3754,2.4062,2.4195,2.4386,2.4532,2.4599,2.4599,2.4599,2.4599,2.4599,2.4599,2.4599,2.4599,2.4599,2.4599,2.4599,2.4599,2.4599,2.4599,2.4599,2.4599,2.4599,2.4599,2.4599,2.4599,2.4599,2.4599,2.4599,2.4599,2.4599,2.2893,2.2893,2.2893,2.2893,2.2893,2.2893,2.2893,2.2893,2.2893,2.2893,2.2893,2.2893,2.2893,2.2893,2.2893,2.2893,2.2893,2.2893,2.2893,2.2893,2.2893,2.2893,2.2893,2.2893,2.2893,2.2893,2.2893,2.2893,2.2893,2.2893,2.2893,2.2893,2.2893,2.2893,2.2893,2.2893,2.2893,2.2893,2.2893,2.2893,2.2893,2.2893,2.2893,2.2893,2.2893,2.2893,2.2893,2.2893,2.2893,2.2893,2.2893,2.2893,2.2893,2.2893,2.2893,2.2893,2.2893,2.2893,2.2893,2.2893,2.2893,2.2893,2.2893,2.2893,2.2893,2.2893,2.2893,2.2893,2.2893,2.2893,2.2893,2.2893,2.2893,2.2893,2.2893,2.2893,2.2893,2.2893,2.2893,2.2893,2.2893,2.2893,2.2893,2.314,2.338,2.3527,2.3955,2.4262,2.4359,2.4519,2.4599,2.4599,2.4599,2.4599,2.4599,2.4599,2.4599,2.4599,2.4599,2.4599,2.4599,2.4599,2.4599,2.4599,2.4599,2.4599,2.4599,2.4599,2.4599,2.4599,2.4599,2.4599,2.4599,2.4599,2.4599,2.4599,2.2893,2.2893,2.2893,2.2893,2.2893,2.2893,2.2893,2.2893,2.2893,2.2893,2.2893,2.2893,2.2893,2.2893,2.2893,2.2893,2.2893,2.2893,2.2893,2.2893,2.2893,2.2893,2.2893,2.2893,2.2893,2.2893,2.2893,2.2893,2.2893,2.2893,2.2893,2.2893,2.2893,2.2893,2.2893,2.2893,2.2893,2.2893,2.2893,2.2893,2.2893,2.2893,2.2893,2.2893,2.2893,2.2893,2.2893,2.2893,2.2893,2.2893,2.2893,2.2893,2.2893,2.2893,2.2893,2.2893,2.2893,2.2893,2.2893,2.2893,2.2893,2.2893,2.2893,2.2893,2.2893,2.2893,2.2893,2.2893,2.2893,2.2893,2.2893,2.2893,2.2893,2.2893,2.2893,2.2893,2.2893,2.2893,2.2893,2.2893,2.2893,2.292,2.2974,2.322,2.3527,2.3857,2.4115,2.4382,2.4586,2.4599,2.4599,2.4599,2.4599,2.4599,2.4599,2.4599,2.4599,2.4599,2.4599,2.4599,2.4599,2.4599,2.4599,2.4599,2.4599,2.4599,2.4599,2.4599,2.4599,2.4599,2.4599,2.4599,2.4599,2.4599,2.4599,2.4599,2.2893,2.2893,2.2893,2.2893,2.2893,2.2893,2.2893,2.2893,2.2893,2.2893,2.2893,2.2893,2.2893,2.2893,2.2893,2.2893,2.2893,2.2893,2.2893,2.2893,2.2893,2.2893,2.2893,2.2893,2.2893,2.2893,2.2893,2.2893,2.2893,2.2893,2.2893,2.2893,2.2893,2.2893,2.2893,2.2893,2.2893,2.2893,2.2893,2.2893,2.2893,2.2893,2.2893,2.2893,2.2893,2.2893,2.2893,2.2893,2.2893,2.2893,2.2893,2.2893,2.2893,2.2893,2.2893,2.2893,2.2893,2.2893,2.2893,2.2893,2.2893,2.2893,2.2893,2.2893,2.2893,2.2893,2.2893,2.2893,2.2893,2.2893,2.2893,2.2893,2.2893,2.2893,2.2893,2.2893,2.2893,2.2893,2.2893,2.2893,2.2893,2.3,2.3233,2.3541,2.387,2.4128,2.4372,2.4559,2.4599,2.4599,2.4599,2.4599,2.4599,2.4599,2.4599,2.4599,2.4599,2.4599,2.4599,2.4599,2.4599,2.4599,2.4599,2.4599,2.4599,2.4599,2.4599,2.4599,2.4599,2.4599,2.4599,2.4599,2.4599,2.4599,2.4599,2.4599,2.2893,2.2893,2.2893,2.2893,2.2893,2.2893,2.2893,2.2893,2.2893,2.2893,2.2893,2.2893,2.2893,2.2893,2.2893,2.2893,2.2893,2.2893,2.2893,2.2893,2.2893,2.2893,2.2893,2.2893,2.2893,2.2893,2.2893,2.2893,2.2893,2.2893,2.2893,2.2893,2.2893,2.2893,2.2893,2.2893,2.2893,2.2893,2.2893,2.2893,2.2893,2.2893,2.2893,2.2893,2.2893,2.2893,2.2893,2.2893,2.2893,2.2893,2.2893,2.2893,2.2893,2.2893,2.2893,2.2893,2.2893,2.2893,2.2893,2.2893,2.2893,2.2893,2.2893,2.2893,2.2893,2.2893,2.2893,2.2893,2.2893,2.2893,2.2893,2.2893,2.2893,2.2893,2.2893,2.2893,2.2893,2.2893,2.2893,2.2893,2.302,2.318,2.3278,2.3741,2.4062,2.4195,2.4439,2.4599,2.4599,2.4599,2.4599,2.4599,2.4599,2.4599,2.4599,2.4599,2.4599,2.4599,2.4599,2.4599,2.4599,2.4599,2.4599,2.4599,2.4599,2.4599,2.4599,2.4599,2.4599,2.4599,2.4599,2.4599,2.4599,2.4599,2.4599,2.4599]},{"header":{"parameterUnit":"m.s-1","parameterCategory":1,"la1":30.6,"la2":28.766,"lo1":-90.7593,"lo2":-88.6598,"dx":0.0162,"dy":0.0183,"nx":116,"ny":114,"refTime":"2023-02-13T06:00:00:Z","depth":0,"parameterNumber":3,"parameterNumberName":"V-component_of_WINDS"},"data":[0.0,0.0,0.0,0.0,0.0,0.0,0.0,0.0,0.0,0.0,0.0,0.0,0.0,0.0,0.0,0.0,0.0,0.0,0.0,0.0,0.0,0.0,0.0,0.0,0.0,0.0,0.0,0.0,0.0,0.0,0.0,0.0,0.0,0.0,0.0,0.0,0.0,0.0,0.0,0.0,0.0,0.0,0.0,0.0,0.0,0.0,0.0,0.0,0.0,0.0,0.0,0.0,0.0,0.0,0.0,0.0,0.0,0.0,0.0,0.0,0.0,0.0,0.0,0.0,0.0,0.0,0.0,0.0,0.0,0.0,0.0,0.0,0.0,0.0,0.0,0.0,0.0,0.0,0.0,0.0,0.0,0.0,0.0,0.0,0.0,0.0,0.0,0.0,0.0,0.0,0.0,0.0,0.0,0.0,0.0,0.0,0.0,0.0,0.0,0.0,0.0,0.0,0.0,0.0,0.0,0.0,0.0,0.0,0.0,0.0,0.0,0.0,0.0,0.0,0.0,0.0,0.0,0.0,0.0,0.0,0.0,0.0,0.0,0.0,0.0,0.0,0.0,0.0,0.0,0.0,0.0,0.0,0.0,0.0,0.0,0.0,0.0,0.0,0.0,0.0,0.0,0.0,0.0,0.0,0.0,0.0,0.0,0.0,0.0,0.0,0.0,0.0,0.0,0.0,0.0,0.0,0.0,0.0,0.0,0.0,0.0,0.0,0.0,0.0,0.0,0.0,0.0,0.0,0.0,0.0,0.0,0.0,0.0,0.0,0.0,0.0,0.0,0.0,0.0,0.0,0.0,0.0,0.0,0.0,0.0,0.0,0.0,0.0,0.0,0.0,0.0,0.0,0.0,0.0,0.0,0.0,0.0,0.0,0.0,0.0,0.0,0.0,0.0,0.0,0.0,0.0,0.0,0.0,0.0,0.0,0.0,0.0,0.0,0.0,0.0,0.0,0.0,0.0,0.0,0.0,0.0,0.0,0.0,0.0,0.0,0.0,0.0,0.0,0.0,0.0,0.0,0.0,0.0,0.0,0.0,0.0,0.0,0.0,0.0,0.0,0.0,0.0,0.0,0.0,0.0,0.0,0.0,0.0,0.0,0.0,0.0,0.0,0.0,0.0,0.0,0.0,0.0,0.0,0.0,0.0,0.0,0.0,0.0,0.0,0.0,0.0,0.0,0.0,0.0,0.0,0.0,0.0,0.0,0.0,0.0,0.0,0.0,0.0,0.0,0.0,0.0,0.0,0.0,0.0,0.0,0.0,0.0,0.0,0.0,0.0,0.0,0.0,0.0,0.0,0.0,0.0,0.0,0.0,0.0,0.0,0.0,0.0,0.0,0.0,0.0,0.0,0.0,0.0,0.0,0.0,0.0,0.0,0.0,0.0,0.0,0.0,0.0,0.0,0.0,0.0,0.0,0.0,0.0,0.0,0.0,0.0,0.0,0.0,0.0,0.0,0.0,0.0,0.0,0.0,0.0,0.0,0.0,0.0,0.0,0.0,0.0,0.0,0.0,0.0,0.0,0.0,0.0,0.0,0.0,0.0,0.0,0.0,0.0,0.0,0.0,0.0,0.0,0.0,0.0,0.0,0.0,0.0,0.0,0.0,0.0,0.0,0.0,0.0,0.0,0.0,0.0,0.0,0.0,0.0,0.0,0.0,0.0,0.0,0.0,0.0,0.0,0.0,0.0,0.0,0.0,0.0,0.0,0.0,0.0,0.0,0.0,0.0,0.0,0.0,0.0,0.0,0.0,0.0,0.0,0.0,0.0,0.0,0.0,0.0,0.0,0.0,0.0,0.0,0.0,0.0,0.0,0.0,0.0,0.0,0.0,0.0,0.0,0.0,0.0,0.0,0.0,0.0,0.0,0.0,0.0,0.0,0.0,0.0,0.0,0.0,0.0,0.0,0.0,0.0,0.0,0.0,0.0,0.0,0.0,0.0,0.0,0.0,0.0,0.0,0.0,0.0,0.0,0.0,0.0,0.0,0.0,0.0,0.0,0.0,0.0,0.0,0.0,0.0,0.0,0.0,0.0,0.0,0.0,0.0,0.0,0.0,0.0,0.0,0.0,0.0,0.0,0.0,0.0,0.0,0.0,0.0,0.0,0.0,0.0,0.0,0.0,0.0,0.0,0.0,0.0,0.0,0.0,0.0,0.0,0.0,0.0,0.0,0.0,0.0,0.0,0.0,0.0,0.0,0.0,0.0,0.0,0.0,0.0,0.0,0.0,0.0,0.0,0.0,0.0,0.0,0.0,0.0,0.0,0.0,0.0,0.0,0.0,0.0,0.0,0.0,0.0,0.0,0.0,0.0,0.0,0.0,0.0,0.0,0.0,0.0,0.0,0.0,0.0,0.0,0.0,0.0,0.0,0.0,0.0,0.0,0.0,0.0,0.0,0.0,0.0,0.0,0.0,0.0,0.0,0.0,0.0,0.0,0.0,0.0,0.0,0.0,0.0,0.0,0.0,0.0,0.0,0.0,0.0,0.0,0.0,0.0,0.0,0.0,0.0,0.0,0.0,0.0,0.0,0.0,0.0,0.0,0.0,0.0,0.0,0.0,0.0,0.0,0.0,0.0,0.0,0.0,0.0,0.0,0.0,0.0,0.0,0.0,0.0,0.0,0.0,0.0,0.0,0.0,0.0,0.0,0.0,0.0,0.0,0.0,0.0,0.0,0.0,0.0,0.0,0.0,0.0,0.0,0.0,0.0,0.0,0.0,0.0,0.0,0.0,0.0,0.0,0.0,0.0,0.0,0.0,0.0,0.0,0.0,0.0,0.0,0.0,0.0,0.0,0.0,0.0,0.0,0.0,0.0,0.0,0.0,0.0,0.0,0.0,0.0,0.0,0.0,0.0,0.0,0.0,0.0,0.0,0.0,0.0,0.0,0.0,0.0,0.0,0.0,0.0,0.0,0.0,0.0,0.0,0.0,0.0,0.0,0.0,0.0,0.0,0.0,0.0,0.0,0.0,0.0,0.0,0.0,0.0,0.0,0.0,0.0,0.0,0.0,0.0,0.0,0.0,0.0,0.0,0.0,0.0,0.0,0.0,0.0,0.0,0.0,0.0,0.0,0.0,0.0,0.0,0.0,0.0,0.0,0.0,0.0,0.0,0.0,0.0,0.0,0.0,0.0,0.0,0.0,0.0,0.0,0.0,0.0,0.0,0.0,0.0,0.0,0.0,0.0,0.0,0.0,0.0,0.0,0.0,0.0,0.0,0.0,0.0,0.0,0.0,0.0,0.0,0.0,0.0,0.0,0.0,0.0,0.0,0.0,0.0,0.0,0.0,0.0,0.0,0.0,0.0,0.0,0.0,0.0,0.0,0.0,0.0,0.0,0.0,0.0,0.0,0.0,0.0,0.0,0.0,0.0,0.0,0.0,0.0,0.0,0.0,0.0,0.0,0.0,0.0,0.0,0.0,0.0,0.0,0.0,0.0,0.0,0.0,0.0,0.0,0.0,0.0,0.0,0.0,0.0,0.0,0.0,0.0,0.0,0.0,0.0,0.0,0.0,0.0,0.0,0.0,0.0,0.0,0.0,0.0,0.0,0.0,0.0,0.0,0.0,0.0,0.0,0.0,0.0,0.0,0.0,0.0,0.0,0.0,0.0,0.0,0.0,0.0,0.0,0.0,0.0,0.0,0.0,0.0,0.0,0.0,0.0,0.0,0.0,0.0,0.0,0.0,0.0,0.0,0.0,0.0,0.0,0.0,0.0,0.0,0.0,0.0,0.0,0.0,0.0,0.0,0.0,0.0,0.0,0.0,0.0,0.0,0.0,0.0,0.0,0.0,0.0,0.0,0.0,0.0,0.0,0.0,0.0,0.0,0.0,0.0,0.0,0.0,0.0,0.0,0.0,0.0,0.0,0.0,0.0,0.0,0.0,0.0,0.0,0.0,0.0,0.0,0.0,0.0,0.0,0.0,0.0,0.0,0.0,0.0,0.0,0.0,0.0,0.0,0.0,0.0,0.0,0.0,0.0,0.0,0.0,0.0,0.0,0.0,0.0,0.0,0.0,0.0,0.0,0.0,0.0,0.0,0.0,0.0,0.0,0.0,0.0,0.0,0.0,0.0,0.0,0.0,0.0,0.0,0.0,0.0,0.0,0.0,0.0,0.0,0.0,0.0,0.0,0.0,0.0,0.0,0.0,0.0,0.0,0.0,0.0,0.0,0.0,0.0,0.0,0.0,0.0,0.0,0.0,0.0,0.0,0.0,0.0,0.0,0.0,0.0,0.0,0.0,0.0,0.0,0.0,0.0,0.0,0.0,0.0,0.0,0.0,0.0,0.0,0.0,0.0,0.0,0.0,0.0,0.0,0.0,0.0,0.0,0.0,0.0,0.0,0.0,0.0,0.0,0.0,0.0,0.0,0.0,0.0,0.0,0.0,0.0,0.0,0.0,0.0,0.0,0.0,0.0,0.0,0.0,0.0,0.0,0.0,0.0,0.0,0.0,0.0,0.0,0.0,0.0,0.0,0.0,0.0,0.0,0.0,0.0,0.0,0.0,0.0,0.0,0.0,0.0,0.0,0.0,0.0,0.0,0.0,0.0,0.0,0.0,0.0,0.0,0.0,0.0,0.0,0.0,0.0,0.0,0.0,0.0,0.0,0.0,0.0,0.0,0.0,0.0,0.0,0.0,0.0,0.0,0.0,0.0,0.0,0.0,0.0,0.0,0.0,0.0,0.0,0.0,0.0,0.0,0.0,0.0,0.0,0.0,0.0,0.0,0.0,0.0,0.0,0.0,0.0,0.0,0.0,0.0,0.0,0.0,0.0,0.0,0.0,0.0,0.0,0.0,0.0,0.0,0.0,0.0,0.0,0.0,0.0,0.0,0.0,0.0,0.0,0.0,0.0,0.0,0.0,0.0,0.0,0.0,0.0,0.0,0.0,0.0,0.0,0.0,0.0,0.0,0.0,0.0,0.0,0.0,0.0,0.0,0.0,0.0,0.0,0.0,0.0,0.0,0.0,0.0,0.0,0.0,0.0,0.0,0.0,0.0,0.0,0.0,0.0,0.0,0.0,0.0,0.0,0.0,0.0,0.0,0.0,0.0,0.0,0.0,0.0,0.0,0.0,0.0,0.0,0.0,0.0,0.0,0.0,0.0,0.0,0.0,0.0,0.0,0.0,0.0,0.0,0.0,0.0,0.0,0.0,0.0,0.0,0.0,0.0,0.0,0.0,0.0,0.0,0.0,0.0,0.0,0.0,0.0,0.0,0.0,0.0,0.0,0.0,0.0,0.0,0.0,0.0,0.0,0.0,0.0,0.0,0.0,0.0,0.0,0.0,0.0,0.0,0.0,0.0,0.0,0.0,0.0,0.0,0.0,0.0,0.0,0.0,0.0,0.0,0.0,0.0,0.0,0.0,0.0,0.0,0.0,0.0,0.0,0.0,0.0,0.0,0.0,0.0,0.0,0.0,0.0,0.0,0.0,0.0,0.0,0.0,0.0,0.0,0.0,0.0,0.0,0.0,0.0,0.0,0.0,0.0,0.0,0.0,0.0,0.0,0.0,0.0,0.0,0.0,0.0,0.0,0.0,0.0,0.0,0.0,0.0,0.0,0.0,0.0,0.0,0.0,0.0,0.0,0.0,0.0,0.0,0.0,0.0,0.0,0.0,0.0,0.0,0.0,0.0,0.0,0.0,0.0,0.0,0.0,0.0,0.0,0.0,0.0,0.0,0.0,0.0,0.0,0.0,0.0,0.0,0.0,0.0,0.0,0.0,0.0,0.0,0.0,0.0,0.0,0.0,0.0,0.0,0.0,0.0,0.0,0.0,0.0,0.0,0.0,0.0,0.0,0.0,0.0,0.0,0.0,0.0,0.0,0.0,0.0,0.0,0.0,0.0,0.0,0.0,0.0,0.0,0.0,0.0,0.0,0.0,0.0,0.0,0.0,0.0,0.0,0.0,0.0,0.0,0.0,0.0,0.0,0.0,0.0,0.0,0.0,0.0,0.0,0.0,0.0,0.0,0.0,0.0,0.0,0.0,0.0,0.0,0.0,0.0,0.0,0.0,0.0,0.0,0.0,0.0,0.0,0.0,0.0,0.0,0.0,0.0,0.0,0.0,0.0,0.0,0.0,0.0,0.0,4.6198,0.0,0.0,0.0,0.0,0.0,0.0,0.0,0.0,0.0,0.0,0.0,0.0,0.0,0.0,0.0,0.0,0.0,0.0,0.0,0.0,0.0,0.0,0.0,0.0,0.0,0.0,0.0,0.0,0.0,0.0,0.0,0.0,0.0,0.0,0.0,0.0,0.0,0.0,0.0,0.0,0.0,0.0,0.0,0.0,0.0,0.0,0.0,0.0,0.0,0.0,0.0,0.0,0.0,0.0,0.0,0.0,0.0,0.0,0.0,0.0,0.0,0.0,0.0,0.0,0.0,0.0,0.0,0.0,0.0,0.0,0.0,0.0,0.0,0.0,0.0,0.0,0.0,0.0,0.0,0.0,0.0,0.0,0.0,0.0,0.0,0.0,0.0,0.0,0.0,0.0,0.0,0.0,0.0,0.0,0.0,0.0,0.0,0.0,0.0,0.0,0.0,0.0,0.0,0.0,0.0,0.0,0.0,0.0,0.0,0.0,0.0,0.0,0.0,0.0,0.0,0.0,4.62,0.0,0.0,0.0,0.0,0.0,0.0,0.0,0.0,0.0,0.0,0.0,0.0,0.0,0.0,0.0,0.0,0.0,0.0,0.0,0.0,0.0,0.0,0.0,0.0,0.0,0.0,0.0,0.0,0.0,0.0,0.0,0.0,0.0,0.0,0.0,0.0,0.0,0.0,0.0,0.0,0.0,0.0,0.0,0.0,0.0,0.0,0.0,0.0,0.0,0.0,0.0,0.0,0.0,0.0,0.0,0.0,0.0,0.0,0.0,0.0,0.0,0.0,0.0,0.0,0.0,0.0,0.0,0.0,0.0,0.0,0.0,0.0,0.0,0.0,0.0,0.0,0.0,0.0,0.0,0.0,0.0,0.0,0.0,0.0,0.0,0.0,0.0,0.0,0.0,0.0,0.0,0.0,0.0,0.0,0.0,0.0,0.0,0.0,0.0,0.0,0.0,0.0,0.0,0.0,0.0,0.0,0.0,0.0,4.6247,4.6289,4.6289,4.6289,4.6289,4.6289,4.6288,4.62,4.6092,4.6192,0.0,0.0,0.0,0.0,0.0,0.0,0.0,0.0,0.0,0.0,0.0,0.0,0.0,0.0,0.0,0.0,0.0,0.0,0.0,0.0,0.0,0.0,0.0,0.0,0.0,0.0,0.0,0.0,0.0,0.0,0.0,0.0,0.0,0.0,0.0,0.0,0.0,0.0,3.9618,3.9498,3.9456,3.9432,0.0,0.0,0.0,0.0,0.0,0.0,0.0,0.0,0.0,0.0,0.0,0.0,0.0,0.0,0.0,0.0,0.0,0.0,0.0,0.0,0.0,0.0,0.0,0.0,0.0,0.0,0.0,0.0,0.0,0.0,0.0,0.0,0.0,0.0,0.0,0.0,0.0,0.0,0.0,0.0,0.0,0.0,0.0,0.0,4.5896,4.5896,0.0,0.0,0.0,0.0,0.0,0.0,0.0,0.0,0.0,0.0,0.0,0.0,0.0,4.5952,4.6076,4.6085,4.615,4.6288,4.6289,4.6289,4.6289,4.6289,4.6289,4.6289,4.6194,0.0,4.6082,4.593,0.0,0.0,0.0,0.0,0.0,0.0,0.0,0.0,0.0,0.0,0.0,0.0,0.0,0.0,0.0,0.0,0.0,0.0,0.0,0.0,0.0,0.0,0.0,0.0,0.0,0.0,0.0,0.0,0.0,0.0,0.0,0.0,0.0,0.0,0.0,0.0,3.9808,3.9949,4.0096,3.9939,3.9949,4.0082,3.9594,3.9332,3.9264,3.9339,0.0,0.0,0.0,0.0,0.0,0.0,0.0,0.0,0.0,0.0,0.0,0.0,0.0,0.0,0.0,0.0,0.0,0.0,0.0,0.0,0.0,0.0,0.0,0.0,0.0,0.0,0.0,0.0,0.0,0.0,0.0,0.0,0.0,0.0,0.0,0.0,0.0,0.0,0.0,4.5843,4.5847,4.5847,4.5825,4.5778,0.0,0.0,0.0,0.0,0.0,0.0,0.0,0.0,0.0,4.6001,4.6005,4.6078,4.6202,4.6202,4.6246,4.6289,4.6289,4.6289,4.6289,4.6289,4.6289,4.6289,4.615,4.6068,4.5981,4.5884,4.5864,4.5842,0.0,0.0,0.0,0.0,4.6317,4.6394,0.0,0.0,0.0,0.0,0.0,0.0,0.0,0.0,0.0,0.0,0.0,0.0,0.0,0.0,0.0,3.9873,0.0,0.0,0.0,0.0,0.0,0.0,0.0,0.0,0.0,0.0,0.0,0.0,4.0186,4.0313,4.0512,4.0304,4.0317,4.0508,4.03,4.0077,3.9845,3.977,3.9569,0.0,0.0,0.0,0.0,0.0,0.0,0.0,0.0,0.0,0.0,0.0,0.0,0.0,0.0,0.0,0.0,0.0,0.0,0.0,0.0,0.0,0.0,0.0,0.0,0.0,0.0,0.0,0.0,0.0,0.0,0.0,0.0,0.0,0.0,0.0,0.0,0.0,0.0,4.5855,4.585,4.5849,4.5842,4.5804,0.0,0.0,0.0,0.0,0.0,0.0,4.5959,4.5961,4.6005,4.6146,4.6148,4.62,4.6289,4.6289,4.6289,4.6289,4.6289,4.6289,4.6289,4.6289,4.6406,4.6558,4.6442,4.6442,4.6489,4.6255,4.6132,4.6095,4.6323,4.6401,4.646,4.6994,4.7197,4.7274,0.0,0.0,0.0,0.0,0.0,0.0,0.0,0.0,0.0,0.0,0.0,0.0,0.0,0.0,4.0623,4.0623,4.0514,4.0356,0.0,0.0,0.0,0.0,0.0,0.0,0.0,0.0,0.0,4.012,4.0356,4.0504,4.0516,4.0504,4.0504,4.0516,4.0504,4.0454,4.043,4.0167,4.0052,3.9997,0.0,0.0,0.0,0.0,0.0,0.0,0.0,0.0,0.0,0.0,0.0,0.0,0.0,0.0,0.0,0.0,0.0,0.0,0.0,0.0,0.0,0.0,0.0,0.0,0.0,0.0,0.0,0.0,0.0,0.0,0.0,0.0,0.0,0.0,0.0,0.0,0.0,0.0,0.0,4.5925,4.5998,0.0,0.0,0.0,0.0,4.5873,4.5916,4.5965,4.6082,4.6084,4.6148,4.6289,4.6289,4.6289,4.6289,4.6289,4.6289,4.6289,4.6289,4.6289,4.6289,4.6289,4.6673,4.7333,4.7213,4.7553,4.8136,4.7287,4.6905,4.6907,4.7677,4.7985,4.7985,4.8048,4.8043,4.8043,0.0,0.0,0.0,0.0,0.0,0.0,0.0,0.0,0.0,0.0,0.0,0.0,0.0,4.0757,4.0757,4.0757,4.0716,4.0666,4.0572,0.0,0.0,0.0,0.0,0.0,0.0,0.0,4.0162,4.036,4.0438,4.0516,4.0516,4.0516,4.0516,4.0516,4.1085,4.1354,4.1273,4.0619,4.0269,4.01,4.0409,4.0271,0.0,0.0,0.0,0.0,0.0,0.0,0.0,0.0,0.0,0.0,0.0,0.0,0.0,0.0,0.0,0.0,0.0,0.0,0.0,0.0,0.0,0.0,0.0,0.0,0.0,0.0,0.0,0.0,0.0,0.0,0.0,0.0,0.0,0.0,0.0,0.0,0.0,4.5933,4.6008,0.0,4.5892,4.5981,4.6014,4.6014,4.6093,4.6195,4.6244,4.6245,4.6247,4.6289,4.6289,4.6289,4.6289,4.6289,4.6289,4.6328,4.6875,4.7107,4.7049,4.7596,4.7955,4.8099,4.8061,4.8158,4.8315,4.8586,4.828,4.7697,4.8005,4.8082,4.8159,4.874,4.8933,4.9009,0.0,0.0,0.0,0.0,0.0,0.0,0.0,0.0,0.0,0.0,0.0,4.1695,4.1722,4.1729,4.1729,4.1729,4.17,4.1548,4.1234,0.0,0.0,0.0,0.0,0.0,0.0,4.1186,4.1219,4.1391,4.1397,4.1397,4.1397,4.1397,4.1397,4.1397,4.197,4.2235,4.2196,4.1627,4.1276,4.116,4.158,4.1472,4.1111,0.0,0.0,0.0,0.0,0.0,0.0,0.0,0.0,0.0,0.0,0.0,0.0,0.0,0.0,0.0,0.0,0.0,0.0,0.0,0.0,0.0,0.0,0.0,0.0,0.0,0.0,0.0,0.0,0.0,0.0,0.0,0.0,0.0,0.0,0.0,4.6065,4.5933,4.6069,4.6095,4.5983,4.6084,4.6152,4.6152,4.6247,4.6289,4.6289,4.6289,4.6289,4.6289,4.6289,4.6289,4.6289,4.6601,4.6758,4.6758,4.7575,4.7913,4.7878,4.8398,4.8719,4.886,4.886,4.8965,4.9146,4.9725,4.9569,4.8971,4.8971,4.8971,4.9048,4.963,4.9822,4.9938,0.0,0.0,0.0,0.0,0.0,0.0,0.0,0.0,0.0,0.0,4.3522,4.3596,4.3598,4.3598,4.3598,4.3598,4.3464,4.302,4.2108,4.2055,0.0,0.0,0.0,0.0,4.3364,4.328,4.32,4.32,4.3134,4.3106,4.3106,4.3098,4.3098,4.3094,4.3128,4.3124,4.3124,4.3162,4.3162,4.3145,4.2776,4.2634,4.2598,0.0,0.0,0.0,0.0,0.0,0.0,0.0,0.0,0.0,0.0,0.0,0.0,0.0,0.0,0.0,0.0,0.0,0.0,0.0,0.0,0.0,0.0,0.0,0.0,0.0,0.0,0.0,0.0,0.0,0.0,0.0,0.0,0.0,4.5946,4.6011,4.6069,4.5944,4.6145,4.6247,4.6136,4.6205,4.6289,4.6289,4.6289,4.6289,4.6289,4.6289,4.6328,4.6328,4.6328,4.6367,4.6367,4.7226,4.7617,4.7656,4.8372,4.8735,4.873,4.8634,4.8965,4.9617,4.9617,5.0052,5.0707,5.0707,5.0707,5.0707,5.0707,5.0707,5.0707,5.0707,5.0707,5.0707,0.0,0.0,0.0,0.0,0.0,0.0,0.0,0.0,0.0,0.0,4.3609,4.3608,4.3668,4.3669,4.3669,4.3669,4.3625,4.3501,4.3256,0.0,0.0,0.0,0.0,0.0,4.3405,4.3374,4.3356,4.3356,4.3318,4.3301,4.3337,4.3221,4.3159,4.3191,4.3736,4.397,4.4008,4.4628,4.4898,4.4855,4.4102,4.3695,4.3541,0.0,0.0,0.0,0.0,0.0,0.0,0.0,0.0,0.0,0.0,0.0,0.0,0.0,0.0,0.0,0.0,0.0,0.0,0.0,0.0,0.0,0.0,0.0,0.0,0.0,0.0,0.0,0.0,0.0,0.0,0.0,0.0,4.6245,4.6199,4.6204,4.6245,4.6199,4.6248,4.6289,4.6247,4.6288,4.6289,4.6289,4.6289,4.6289,4.6289,4.6289,4.6601,4.7226,4.7226,4.7497,4.8021,4.8293,4.835,4.8249,4.9081,4.945,4.9383,4.9964,5.031,5.0416,5.0416,5.0495,5.0707,5.0707,5.0707,5.0707,5.0707,5.0707,5.0707,5.0707,5.0707,5.0644,0.0,0.0,0.0,0.0,0.0,0.0,0.0,0.0,0.0,0.0,4.4761,4.4759,4.4765,4.4805,4.4805,4.4805,4.4805,4.4609,4.4213,0.0,0.0,0.0,0.0,4.422,4.4599,4.4569,4.4514,4.4514,4.4472,4.445,4.4448,4.4375,4.4336,4.4333,4.4779,4.4962,4.5001,4.5504,4.5736,4.5698,4.5156,0.0,4.4599,4.5102,4.523,4.5138,4.5328,4.5402,4.546,4.5659,0.0,0.0,0.0,0.0,0.0,0.0,0.0,0.0,0.0,0.0,0.0,0.0,0.0,0.0,0.0,0.0,0.0,0.0,0.0,0.0,0.0,0.0,0.0,0.0,4.6289,4.6289,4.6289,4.6289,4.6289,4.6289,4.6289,4.6289,4.6289,4.6289,4.6289,4.6289,4.6289,4.6444,4.6749,4.6749,4.7133,4.7933,4.7971,4.8188,4.8608,4.9,4.9124,4.9051,4.9854,5.0206,5.0177,5.0604,5.0764,0.0,5.0707,5.0707,5.0707,5.0707,5.0707,0.0,0.0,0.0,0.0,0.0,5.0899,5.1162,0.0,0.0,0.0,0.0,0.0,0.0,0.0,0.0,0.0,0.0,0.0,4.6288,4.6248,4.6288,4.6288,4.6288,4.6289,4.5935,0.0,0.0,0.0,4.5009,4.505,4.5456,4.6289,4.6196,4.6138,4.6137,4.5998,4.5957,4.5957,4.5944,4.5939,4.5937,4.5925,4.5882,4.5882,4.5882,4.5882,4.5882,0.0,0.0,4.5628,4.5628,4.5707,4.5809,4.5809,4.5859,4.5882,4.5882,0.0,0.0,0.0,0.0,0.0,0.0,0.0,0.0,0.0,0.0,0.0,0.0,0.0,0.0,0.0,0.0,0.0,0.0,0.0,0.0,0.0,0.0,0.0,0.0,4.6289,4.6289,4.6289,4.6288,4.6289,4.6289,4.6289,4.6289,4.6289,4.6367,4.6405,4.6404,4.6482,4.6824,4.7479,0.0,0.0,0.0,0.0,4.8691,4.8754,4.9539,4.9923,4.9904,5.0544,5.0894,5.089,5.0733,5.0707,5.0707,5.0707,5.0745,5.0822,5.0822,5.0899,5.0976,5.0861,5.0899,5.0976,5.0976,5.1413,5.1912,0.0,0.0,0.0,0.0,0.0,0.0,0.0,0.0,0.0,4.6149,4.6144,4.6089,4.5988,4.6077,4.6144,4.6144,4.6246,4.6211,0.0,0.0,4.5816,4.6014,4.6014,4.6093,4.6289,4.6288,4.6248,4.6248,4.6245,4.6204,4.6204,4.6094,4.6071,4.6068,4.5959,4.5882,4.5882,4.5882,4.5882,0.0,0.0,0.0,4.5846,4.5846,4.5862,4.5884,4.5884,4.59,4.5882,4.5882,4.5882,4.5882,4.5882,0.0,0.0,0.0,0.0,0.0,0.0,0.0,0.0,0.0,0.0,0.0,0.0,0.0,0.0,0.0,0.0,0.0,0.0,0.0,0.0,4.6289,4.6289,4.6248,4.6149,4.6144,4.6195,4.6289,4.6289,4.6248,4.6147,4.6766,4.7135,4.7032,4.7681,4.8134,4.8269,4.8306,4.8686,4.9523,4.9562,4.9821,5.0431,5.059,5.0631,5.0533,0.0,0.0,5.074,5.0693,5.0707,5.0707,5.0707,5.1087,5.1659,5.1659,5.2082,5.2664,5.1928,5.2082,5.2702,5.2702,5.2626,5.2425,0.0,0.0,0.0,0.0,0.0,0.0,0.0,0.0,0.0,0.0,4.5997,4.5978,4.5927,4.5969,4.5997,4.5997,4.6071,0.0,0.0,4.6089,4.6089,4.6089,4.6089,4.6141,4.62,4.62,4.6245,4.6289,4.6289,4.6289,4.6289,4.6245,4.62,4.6199,4.6141,4.609,4.609,4.609,0.0,0.0,0.0,0.0,4.6083,4.5961,4.5954,4.5997,4.5997,4.6022,4.609,4.609,4.609,4.609,4.609,4.609,4.6083,0.0,0.0,0.0,0.0,0.0,0.0,0.0,0.0,0.0,0.0,0.0,0.0,0.0,0.0,4.6289,0.0,0.0,4.62,4.62,4.6145,4.6233,4.6583,4.6654,4.6516,4.6124,4.6478,4.6737,4.6659,4.7427,4.7909,4.7855,4.8234,4.8668,4.9022,4.9057,4.9411,5.0223,5.0258,5.0446,5.0812,5.0812,5.0751,5.0707,5.0707,5.0707,5.0707,5.1125,5.1318,5.1318,5.1741,5.2164,5.2544,5.2544,5.3044,5.3764,5.3107,5.2853,5.2891,5.2891,5.2908,5.2866,0.0,0.0,0.0,0.0,0.0,0.0,0.0,0.0,0.0,0.0,4.5884,4.5874,4.5849,4.5869,4.5893,0.0,0.0,0.0,0.0,4.5882,4.5882,4.5882,4.5882,4.5961,4.6069,4.6071,4.6095,4.6204,4.6204,4.6245,4.6248,4.6248,4.6288,4.6289,4.6289,4.6289,4.6289,0.0,0.0,0.0,0.0,0.0,4.6288,4.6071,4.6022,4.6144,4.6144,4.6202,4.6289,4.6289,4.6289,4.6289,4.6289,4.6289,4.6289,4.6154,4.6144,0.0,0.0,0.0,0.0,0.0,0.0,0.0,0.0,0.0,4.6248,4.6248,4.6246,4.6204,4.6204,4.6142,4.611,4.6304,4.6208,4.6452,4.7279,4.7429,4.7149,4.6427,4.6973,4.7456,4.7432,4.8196,4.8685,4.8696,4.8848,4.9181,4.9776,4.9803,5.0078,5.0678,5.0707,5.0707,5.0707,5.0707,5.0784,5.0938,5.0938,5.1015,5.1207,5.1851,5.2159,5.2197,5.3082,5.3397,5.3344,5.3497,5.3931,5.4459,5.3998,5.3383,5.2852,5.2927,5.3133,5.3306,0.0,0.0,0.0,0.0,0.0,0.0,0.0,0.0,0.0,0.0,0.0,0.0,0.0,0.0,0.0,0.0,0.0,0.0,4.5882,4.5882,4.5882,4.5882,4.5882,4.5925,4.5937,4.5939,4.5946,4.5955,4.5955,4.6,4.6137,4.6137,4.6197,4.6289,4.6289,4.6289,4.6289,0.0,0.0,0.0,0.0,0.0,4.6289,4.6288,4.6249,4.6288,4.6288,4.6289,4.6289,4.6289,4.6289,4.6289,4.6289,4.6289,4.6289,4.6289,0.0,4.6288,4.6288,4.6288,4.6289,4.6289,4.6289,4.6289,0.0,0.0,4.6137,4.6137,4.6014,4.5955,4.5955,4.5948,4.6171,4.6945,4.7049,4.731,4.806,4.8192,4.8093,4.7876,4.8154,4.8302,4.8205,4.8963,4.9436,4.9294,5.0012,5.0504,5.0558,5.0591,5.062,5.0712,5.0707,5.0707,5.0707,5.0707,5.1048,5.1774,5.1774,5.2159,5.2933,5.3005,5.3044,5.3082,5.3972,5.4127,5.3779,5.4549,5.4749,5.4465,5.3985,5.3755,5.3725,5.414,5.4046,5.3711,0.0,0.0,0.0,0.0,0.0,0.0,0.0,0.0,0.0,0.0,0.0,0.0,0.0,0.0,0.0,0.0,0.0,0.0,4.5736,4.5736,4.5736,4.5736,4.5736,4.5745,4.5842,4.5842,4.5846,4.5882,4.5882,4.5944,4.5985,4.5985,4.6005,4.6076,4.6147,4.6196,4.6198,0.0,0.0,0.0,0.0,0.0,4.6289,4.6289,4.6289,4.6289,4.6289,4.6289,0.0,0.0,4.6289,4.6289,4.6289,4.6289,4.6289,4.6289,4.6289,0.0,4.6289,4.6289,0.0,0.0,4.6246,4.6196,4.6196,4.608,4.5985,4.5985,4.5952,4.6035,4.6578,4.659,4.6839,0.0,4.7766,4.8013,4.8814,4.8956,4.9114,4.9562,4.9714,4.9552,4.9003,4.9727,5.0232,5.0178,5.0476,5.0707,5.0707,5.0707,5.0707,5.0707,5.0707,5.0938,5.1395,5.1395,5.1813,5.2659,5.2659,5.2851,5.3236,5.3741,5.4068,5.4311,5.4459,5.4389,5.4238,5.4586,5.4648,5.4444,5.3977,5.3786,5.3814,5.4022,5.3814,5.3494,0.0,0.0,0.0,0.0,0.0,0.0,0.0,0.0,0.0,0.0,0.0,0.0,0.0,0.0,0.0,0.0,0.0,0.0,0.0,4.5594,4.5594,4.5594,4.5594,4.5632,4.574,4.5743,4.577,4.5811,4.5811,4.5831,4.5869,4.5869,4.5889,4.5884,4.5997,4.6022,4.6065,0.0,0.0,0.0,0.0,0.0,4.6199,4.6288,4.6288,4.6247,4.6289,4.6289,0.0,0.0,4.6289,4.6289,4.6289,4.6289,4.6289,4.6289,4.6289,4.6289,4.6248,0.0,0.0,4.62,4.6135,4.6022,4.6022,4.5954,4.5944,4.6175,4.6183,4.6427,4.7275,4.7368,4.7581,4.847,4.8536,4.8779,4.963,4.9745,4.9976,5.063,5.0707,5.0438,4.9822,5.0322,5.0707,5.0707,5.0707,5.0707,5.0707,5.0899,5.1015,5.1015,5.1246,5.1664,5.2236,5.2274,5.2697,5.3544,5.3426,5.3503,5.3728,5.4261,5.4664,5.4905,5.4617,5.442,5.4305,5.4305,5.423,5.4121,5.4019,5.3987,5.3987,5.4199,5.3961,5.3571,0.0,0.0,0.0,0.0,0.0,0.0,0.0,0.0,0.0,0.0,0.0,0.0,0.0,0.0,0.0,0.0,0.0,0.0,0.0,4.5594,4.5594,4.5594,4.5594,4.5594,4.5603,4.5603,4.5607,4.5612,4.5612,4.5684,4.579,4.579,4.5833,4.5882,4.5884,4.5925,4.5925,0.0,0.0,0.0,0.0,0.0,4.5954,4.62,4.6204,4.6138,4.6247,0.0,0.0,0.0,4.6289,4.6289,4.6289,4.6289,0.0,4.6289,4.6289,0.0,0.0,0.0,4.6077,4.5955,4.5927,4.5925,4.5925,4.5864,4.6016,4.6819,4.6901,4.7104,4.7912,4.8062,4.8365,4.9211,4.936,4.9668,5.0553,5.0668,5.0668,5.0707,5.0707,5.0707,0.0,5.0668,5.0707,5.0707,5.0707,5.0707,5.0707,5.1428,5.1846,5.1846,5.2697,5.3121,5.3159,5.3159,5.3587,5.4472,5.4013,5.4237,5.5038,5.467,5.4516,5.45,5.453,5.4238,5.3805,5.3805,5.3585,5.334,5.4064,5.4384,5.4494,5.5276,5.5045,5.4363,0.0,0.0,0.0,0.0,0.0,0.0,0.0,0.0,0.0,0.0,0.0,0.0,0.0,0.0,0.0,0.0,0.0,0.0,0.0,4.5594,4.5594,4.5594,4.5594,4.5594,4.5594,4.5594,4.5594,4.5594,4.5594,4.5633,4.5665,4.5665,4.5665,4.5694,4.5776,4.5825,4.583,4.5886,0.0,0.0,0.0,0.0,4.5929,4.5997,4.6071,4.6092,0.0,0.0,0.0,0.0,0.0,0.0,4.6289,0.0,0.0,4.6289,0.0,0.0,0.0,0.0,4.5965,4.5929,4.5857,4.5977,4.6511,4.657,4.6775,4.758,4.7713,4.7966,4.8817,4.8971,4.924,5.013,5.0245,5.0361,5.0668,5.0707,5.0707,5.0707,5.0707,0.0,0.0,0.0,0.0,5.0707,5.1202,5.1505,5.1505,5.2313,5.2774,5.2774,5.3044,5.3338,5.3586,5.3586,5.3894,5.4503,5.4328,5.4421,5.4678,5.4246,5.4031,5.4013,5.3758,5.3849,5.4195,5.4195,5.4423,5.4803,5.5108,5.5218,5.5218,5.5511,5.5768,5.5941,0.0,0.0,0.0,0.0,0.0,0.0,0.0,0.0,0.0,0.0,0.0,0.0,0.0,0.0,0.0,0.0,0.0,0.0,0.0,0.0,4.5594,4.5594,4.5594,4.5594,4.5594,4.5594,4.5594,4.5594,4.5594,4.5594,4.5594,4.5594,4.5594,4.5599,4.57,4.5722,4.5729,4.5767,0.0,0.0,0.0,0.0,4.5786,4.5886,4.5939,0.0,0.0,0.0,0.0,0.0,0.0,0.0,0.0,0.0,0.0,0.0,0.0,0.0,0.0,4.5914,4.5916,4.621,4.6228,4.641,4.721,4.7375,4.7543,4.8394,4.8548,4.8817,4.9707,4.9861,5.013,5.0971,5.1125,5.1125,5.1125,5.1125,5.1125,5.1125,5.1125,5.1433,0.0,0.0,0.0,5.1592,5.2082,5.2351,5.2351,5.302,5.3425,5.3425,5.3584,5.3798,5.4064,5.4057,5.4133,5.4246,5.4246,5.4161,5.4024,5.4036,5.3992,5.401,5.4034,5.4363,5.484,5.484,5.5144,5.5622,5.5915,5.6014,5.6051,5.6356,5.6785,5.7116,0.0,0.0,0.0,0.0,0.0,0.0,0.0,0.0,0.0,0.0,0.0,0.0,0.0,0.0,0.0,0.0,0.0,0.0,0.0,0.0,0.0,4.5594,4.5594,4.5594,4.5594,4.5594,4.5594,4.5594,4.5594,4.5594,4.5594,4.5594,4.5594,4.5594,4.5594,4.5594,4.5594,4.5594,4.5594,0.0,0.0,0.0,4.5603,4.5803,0.0,0.0,0.0,0.0,0.0,0.0,0.0,0.0,0.0,0.0,0.0,0.0,0.0,4.5884,4.5825,4.5812,4.6032,4.6716,4.6928,4.7158,4.7966,4.8159,4.8394,4.9279,4.9471,4.9745,0.0,0.0,5.0976,5.1774,5.1885,5.1885,5.1885,5.1923,5.1962,0.0,0.0,0.0,0.0,0.0,0.0,5.3271,0.0,5.321,5.3194,5.36,5.3847,5.3847,5.4262,5.4476,5.4452,5.4428,5.4204,5.3786,5.3823,5.3639,5.3287,5.4106,5.4473,5.4509,5.5254,5.5622,5.5658,5.5658,5.5695,5.5805,5.6565,5.6847,5.6957,5.7703,5.7997,5.7886,0.0,0.0,0.0,0.0,0.0,0.0,0.0,0.0,0.0,0.0,0.0,0.0,0.0,0.0,0.0,0.0,0.0,0.0,0.0,0.0,0.0,0.0,0.0,0.0,0.0,0.0,0.0,0.0,0.0,4.5594,4.5594,4.5594,4.5594,0.0,4.5594,4.5594,4.5594,4.5594,4.5594,4.5599,0.0,0.0,4.5607,0.0,0.0,0.0,0.0,0.0,0.0,0.0,0.0,0.0,0.0,0.0,4.5955,0.0,0.0,4.5834,4.5793,4.6217,4.6656,4.6864,4.7351,4.8005,4.8856,4.9086,4.9317,5.0207,5.0361,5.063,0.0,0.0,0.0,5.1774,5.1885,0.0,5.1885,5.2467,0.0,0.0,0.0,5.2734,5.3581,5.338,0.0,0.0,5.3861,5.3505,5.3227,5.3928,5.433,5.433,5.4426,5.4322,5.3977,5.3682,5.3454,5.3349,5.3949,5.4207,5.4106,5.4913,5.5291,5.5328,5.5511,5.5952,5.6492,5.6492,5.6859,5.7409,5.7593,5.7703,5.7703,5.7923,5.7997,5.796,0.0,0.0,0.0,0.0,0.0,0.0,0.0,0.0,0.0,0.0,0.0,0.0,0.0,0.0,0.0,0.0,0.0,0.0,0.0,0.0,0.0,0.0,0.0,0.0,0.0,0.0,0.0,0.0,0.0,0.0,0.0,4.5594,4.5594,4.5594,4.5594,4.5594,4.5594,0.0,0.0,0.0,0.0,0.0,0.0,0.0,0.0,0.0,0.0,0.0,0.0,0.0,0.0,4.5873,4.5854,4.5875,4.5822,4.5795,0.0,4.6268,4.6268,4.6835,4.7505,4.7889,4.8355,4.8894,4.9784,4.9976,5.0091,5.0592,5.0707,0.0,0.0,0.0,0.0,0.0,0.0,0.0,5.3005,5.3278,5.3462,0.0,5.3123,0.0,5.4014,5.3883,5.3898,0.0,5.4133,5.3996,5.3797,5.4025,5.4196,5.4196,5.4024,5.3963,5.4044,5.385,5.3922,5.4252,5.4693,5.4913,5.495,5.5757,5.6124,5.6161,0.0,5.6895,5.7336,5.7336,5.7593,5.7997,5.7997,5.7997,5.7997,5.7997,5.7997,5.7997,0.0,0.0,0.0,0.0,0.0,0.0,0.0,0.0,0.0,0.0,0.0,0.0,0.0,0.0,0.0,0.0,0.0,0.0,0.0,0.0,0.0,0.0,0.0,0.0,0.0,0.0,0.0,0.0,0.0,0.0,0.0,0.0,0.0,0.0,0.0,0.0,0.0,0.0,0.0,0.0,0.0,0.0,0.0,0.0,0.0,0.0,0.0,0.0,0.0,0.0,4.5804,4.5849,4.5793,4.5785,4.5751,4.5766,4.6317,4.6928,4.7043,4.7658,4.8471,4.9202,4.9471,4.9784,5.0515,5.0707,5.0707,5.0707,0.0,0.0,5.189,0.0,5.1654,5.404,0.0,5.3514,5.4243,5.4072,5.3877,5.3877,5.3528,5.358,5.432,5.4346,5.4144,5.3758,5.4083,5.4351,5.4351,5.3923,5.3758,5.3869,5.3537,5.3739,5.4546,5.4546,5.4913,5.5585,5.5695,5.5768,5.5805,5.6602,5.6957,5.6994,5.7703,0.0,5.7997,5.7997,5.7997,5.7997,5.7997,5.7997,5.7997,5.8107,5.8143,5.818,0.0,0.0,0.0,0.0,0.0,0.0,0.0,0.0,0.0,0.0,0.0,0.0,0.0,0.0,0.0,0.0,0.0,0.0,0.0,0.0,0.0,0.0,0.0,0.0,0.0,0.0,0.0,0.0,0.0,0.0,0.0,0.0,0.0,0.0,0.0,0.0,0.0,0.0,0.0,0.0,0.0,0.0,0.0,0.0,0.0,0.0,0.0,0.0,0.0,0.0,4.5636,4.5661,4.5624,4.5611,4.5757,4.6479,4.6774,4.7043,4.7697,4.8509,4.9202,4.9356,4.9938,5.0515,5.0668,5.0707,0.0,0.0,0.0,5.1169,5.2697,5.2274,0.0,5.3664,0.0,0.0,0.0,0.0,5.4359,0.0,0.0,0.0,0.0,0.0,0.0,0.0,0.0,5.343,5.343,5.3339,5.3618,5.4281,5.4222,5.4583,5.5365,5.5401,5.5475,5.5622,5.6271,5.6602,5.6638,5.7409,5.7776,5.7813,5.7923,0.0,5.7997,5.7997,5.7997,5.7997,5.7997,5.7997,5.807,5.8756,5.8976,5.9086,0.0,0.0,0.0,0.0,0.0,0.0,0.0,0.0,0.0,0.0,0.0,0.0,0.0,0.0,0.0,0.0,0.0,0.0,0.0,0.0,0.0,0.0,0.0,0.0,0.0,0.0,0.0,0.0,0.0,0.0,0.0,0.0,0.0,0.0,0.0,0.0,0.0,0.0,0.0,0.0,0.0,0.0,0.0,0.0,0.0,0.0,0.0,0.0,0.0,0.0,4.5594,4.5594,4.5594,4.5898,4.6355,4.6774,4.7505,4.8279,4.8663,4.9394,5.0091,5.0091,5.0399,5.0707,5.0707,0.0,0.0,0.0,0.0,5.1702,5.2967,0.0,0.0,0.0,0.0,0.0,0.0,0.0,0.0,0.0,0.0,0.0,0.0,0.0,0.0,0.0,0.0,5.3654,5.3214,5.3581,5.4179,5.4997,5.5023,5.5401,5.6235,5.6235,5.6418,5.687,5.7226,5.7409,5.7446,5.7813,5.7997,5.7997,5.7997,0.0,5.7997,5.7997,5.7997,5.8033,5.8474,5.8609,5.8719,5.9526,5.982,5.9893,0.0,0.0,0.0,0.0,0.0,0.0,0.0,0.0,0.0,0.0,0.0,0.0,0.0,0.0,0.0,0.0,0.0,0.0,0.0,0.0,0.0,0.0,0.0,0.0,0.0,0.0,0.0,0.0,0.0,0.0,0.0,0.0,0.0,0.0,0.0,0.0,0.0,0.0,0.0,0.0,0.0,0.0,0.0,0.0,0.0,0.0,0.0,0.0,0.0,0.0,4.5898,4.5898,4.609,4.6471,4.6966,4.7312,4.8355,4.9433,4.963,5.0168,5.0697,5.0599,5.0584,5.0584,5.0584,5.0584,0.0,0.0,0.0,5.2177,0.0,0.0,0.0,0.0,0.0,0.0,0.0,0.0,0.0,0.0,0.0,0.0,0.0,0.0,0.0,0.0,0.0,0.0,5.3739,5.4326,5.5023,5.5842,5.5879,5.6235,5.7042,5.7068,5.7373,5.7997,5.7997,5.7997,5.7997,5.7997,5.7997,5.7997,5.7997,0.0,0.0,5.8253,5.8364,5.8584,5.9196,5.9453,5.9563,6.037,6.0676,6.0676,0.0,0.0,0.0,0.0,0.0,0.0,0.0,0.0,0.0,0.0,0.0,0.0,0.0,0.0,0.0,0.0,0.0,0.0,0.0,0.0,0.0,0.0,0.0,0.0,0.0,0.0,0.0,0.0,0.0,0.0,0.0,0.0,0.0,0.0,0.0,0.0,0.0,0.0,0.0,0.0,0.0,0.0,0.0,0.0,0.0,0.0,0.0,0.0,0.0,0.0,0.0,4.6928,4.762,4.7428,4.7197,4.8702,0.0,0.0,5.0361,5.063,5.0614,5.023,5.0159,5.0159,5.0159,0.0,0.0,0.0,5.1584,5.2268,5.3518,0.0,0.0,0.0,0.0,5.3702,0.0,0.0,0.0,0.0,0.0,0.0,0.0,0.0,0.0,0.0,0.0,0.0,5.5365,5.5438,5.5879,5.6675,5.6712,5.7079,5.7886,5.7886,5.7923,5.7997,5.7997,5.7997,5.7997,5.7997,5.7997,5.7997,5.7997,0.0,0.0,5.9086,5.9526,6.0199,6.0272,6.0309,6.037,6.119,6.1496,6.1594,0.0,0.0,0.0,0.0,0.0,0.0,0.0,0.0,0.0,0.0,0.0,0.0,0.0,0.0,0.0,0.0,0.0,0.0,0.0,0.0,0.0,0.0,0.0,0.0,0.0,0.0,0.0,0.0,0.0,0.0,0.0,0.0,0.0,0.0,0.0,0.0,0.0,0.0,0.0,0.0,0.0,0.0,0.0,0.0,0.0,0.0,0.0,0.0,0.0,0.0,0.0,0.0,4.8625,4.8663,0.0,0.0,4.9578,5.0138,5.0003,5.0159,5.0224,4.9852,4.9721,4.9721,4.9721,0.0,0.0,5.0875,5.1858,5.2824,5.3366,5.3875,0.0,0.0,0.0,0.0,0.0,0.0,0.0,0.0,0.0,0.0,0.0,0.0,0.0,0.0,0.0,0.0,5.7017,5.6602,5.6675,5.7483,5.7519,5.7666,5.7997,5.7997,5.7997,5.7997,5.7997,5.7997,5.7997,5.7997,5.8253,5.8719,5.8719,0.0,0.0,5.993,6.0114,6.0456,6.0933,6.1117,6.1227,6.2034,6.2328,6.2365,0.0,0.0,0.0,0.0,0.0,0.0,0.0,0.0,0.0,0.0,0.0,0.0,0.0,0.0,0.0,0.0,0.0,0.0,0.0,0.0,0.0,0.0,0.0,0.0,0.0,0.0,0.0,0.0,0.0,0.0,0.0,0.0,0.0,0.0,0.0,0.0,0.0,0.0,0.0,0.0,0.0,0.0,0.0,0.0,0.0,0.0,0.0,0.0,0.0,0.0,0.0,0.0,0.0,0.0,0.0,0.0,4.981,5.0364,4.9673,4.9694,4.9839,4.9423,4.9326,4.9393,0.0,0.0,5.0648,5.1136,5.2284,5.3244,5.334,5.3896,5.4178,5.3842,5.3692,5.3506,5.323,0.0,0.0,0.0,0.0,0.0,0.0,0.0,0.0,0.0,0.0,0.0,5.796,5.7446,5.7409,5.796,5.7997,5.7997,5.7997,5.7997,5.7997,5.7997,5.7997,5.8107,5.8364,5.8364,5.8792,5.9563,5.9563,0.0,0.0,6.075,6.0896,6.119,6.1741,6.1961,6.2034,6.2572,6.2793,6.2793,0.0,0.0,0.0,0.0,0.0,0.0,0.0,0.0,0.0,0.0,0.0,0.0,0.0,0.0,0.0,0.0,0.0,0.0,0.0,0.0,0.0,0.0,0.0,0.0,0.0,0.0,0.0,0.0,0.0,0.0,0.0,0.0,0.0,0.0,0.0,0.0,0.0,0.0,0.0,0.0,0.0,0.0,0.0,0.0,0.0,0.0,0.0,0.0,0.0,0.0,0.0,0.0,0.0,0.0,0.0,0.0,5.0117,5.0006,4.9603,4.9496,4.9408,4.8994,4.8924,4.9101,0.0,0.0,5.0565,5.2158,5.2861,5.3298,5.3729,5.3795,5.3795,5.3786,5.3464,5.3177,5.3214,0.0,0.0,0.0,0.0,0.0,0.0,0.0,0.0,0.0,0.0,0.0,5.7997,5.7997,5.7997,5.7997,5.7997,5.7997,5.7997,5.7997,5.7997,5.7997,5.7997,5.8437,5.9196,5.9196,5.9636,0.0,0.0,0.0,0.0,6.1594,6.2071,6.2793,6.2793,6.2793,6.2793,6.2793,6.2793,6.2793,0.0,0.0,0.0,0.0,0.0,0.0,0.0,0.0,0.0,0.0,0.0,0.0,0.0,0.0,0.0,0.0,0.0,0.0,0.0,0.0,0.0,0.0,0.0,0.0,0.0,0.0,0.0,0.0,0.0,0.0,0.0,0.0,0.0,0.0,0.0,0.0,0.0,0.0,0.0,0.0,0.0,0.0,0.0,0.0,0.0,0.0,0.0,0.0,0.0,0.0,0.0,0.0,0.0,0.0,0.0,0.0,0.0,0.0,4.9202,4.9083,4.8986,4.8586,4.8504,4.8726,4.9574,0.0,5.0892,5.1925,5.2717,5.3257,5.3357,5.34,5.34,5.34,5.3293,5.3398,0.0,0.0,0.0,0.0,0.0,0.0,0.0,0.0,0.0,0.0,0.0,0.0,5.7997,5.7997,5.7997,5.7997,5.7997,5.7997,5.7997,5.7997,5.7997,5.7997,5.8547,5.8939,5.9221,5.9783,6.0456,0.0,0.0,0.0,0.0,6.2426,6.2572,6.2793,6.2793,6.2793,6.2793,6.2793,6.2793,6.2793,0.0,0.0,0.0,0.0,0.0,0.0,0.0,0.0,0.0,0.0,0.0,0.0,0.0,0.0,0.0,0.0,0.0,0.0,0.0,0.0,0.0,0.0,0.0,0.0,0.0,0.0,0.0,0.0,0.0,0.0,0.0,0.0,0.0,0.0,0.0,0.0,0.0,0.0,0.0,0.0,0.0,0.0,4.6163,0.0,0.0,0.0,0.0,0.0,0.0,0.0,0.0,0.0,0.0,0.0,0.0,0.0,0.0,0.0,0.0,4.8656,4.8622,4.8345,4.8563,0.0,0.0,0.0,5.1463,5.2307,5.2858,5.3214,5.3214,5.3214,5.3214,5.3214,0.0,0.0,0.0,0.0,0.0,0.0,0.0,0.0,0.0,0.0,0.0,0.0,0.0,0.0,5.7997,5.7997,5.7997,5.7997,5.7997,5.7997,5.7997,5.829,5.8437,5.8474,5.9269,5.982,6.0114,6.0639,6.13,0.0,0.0,0.0,0.0,6.2793,6.2793,6.2793,6.2793,6.2793,6.2793,6.2793,6.2793,6.2793,0.0,0.0,0.0,0.0,0.0,0.0,0.0,0.0,0.0,0.0,0.0,0.0,0.0,0.0,0.0,0.0,0.0,0.0,0.0,0.0,0.0,0.0,0.0,0.0,0.0,0.0,0.0,4.5594,4.5594,4.5594,4.5594,0.0,0.0,0.0,0.0,0.0,0.0,0.0,0.0,0.0,0.0,0.0,0.0,0.0,0.0,0.0,0.0,0.0,0.0,0.0,0.0,0.0,0.0,0.0,0.0,0.0,0.0,0.0,0.0,0.0,0.0,0.0,0.0,0.0,0.0,0.0,0.0,5.3031,5.3214,5.3214,5.3214,5.3214,5.3214,0.0,0.0,0.0,0.0,5.5904,0.0,0.0,0.0,0.0,0.0,0.0,0.0,0.0,0.0,0.0,5.7997,5.7997,5.8033,5.807,5.8107,5.8107,5.8107,5.8866,5.9306,5.9306,6.0114,6.0896,6.1606,6.1679,6.2108,0.0,0.0,0.0,0.0,6.2793,6.2793,6.2793,6.2793,6.2793,6.2793,6.2793,6.2793,6.2793,0.0,0.0,0.0,0.0,0.0,0.0,0.0,0.0,0.0,0.0,0.0,0.0,0.0,0.0,0.0,0.0,0.0,0.0,0.0,0.0,0.0,0.0,0.0,0.0,0.0,0.0,0.0,4.5594,4.5594,4.5594,4.5594,4.5594,0.0,0.0,0.0,0.0,0.0,0.0,0.0,0.0,0.0,0.0,0.0,0.0,0.0,0.0,5.0091,5.0187,0.0,0.0,0.0,0.0,0.0,0.0,0.0,0.0,4.8355,0.0,0.0,0.0,0.0,0.0,0.0,0.0,0.0,0.0,0.0,0.0,0.0,5.3214,5.3214,5.3214,5.3398,0.0,0.0,0.0,5.6051,0.0,0.0,0.0,0.0,0.0,0.0,0.0,0.0,0.0,0.0,5.7997,5.7997,5.7997,5.829,5.8902,5.8902,5.8902,5.8902,5.971,6.0114,6.0114,6.0933,6.141,6.163,6.2254,6.2609,0.0,0.0,0.0,6.2793,6.2793,6.2793,6.2793,6.2793,6.2793,6.2793,6.2793,6.2793,6.2793,0.0,0.0,0.0,0.0,0.0,0.0,0.0,0.0,0.0,0.0,0.0,0.0,0.0,0.0,0.0,0.0,0.0,0.0,0.0,0.0,0.0,0.0,0.0,0.0,0.0,0.0,0.0,0.0,0.0,4.5594,0.0,0.0,0.0,0.0,0.0,0.0,0.0,0.0,0.0,0.0,0.0,0.0,0.0,0.0,0.0,0.0,5.0248,5.0165,0.0,4.961,4.9272,4.8881,0.0,0.0,0.0,0.0,4.8296,0.0,0.0,0.0,0.0,0.0,0.0,0.0,0.0,0.0,0.0,0.0,0.0,5.3214,5.3214,5.3508,0.0,0.0,5.5023,0.0,0.0,0.0,0.0,0.0,0.0,5.7997,0.0,0.0,5.7997,0.0,0.0,5.8143,5.8547,5.8535,5.8902,5.971,6.0114,6.0114,5.9747,6.0566,6.0933,6.097,6.1777,6.2144,6.2181,6.2609,6.2793,0.0,0.0,0.0,6.2793,6.2793,6.2793,6.2793,6.2793,6.2793,6.2793,6.2793,6.2793,6.2793,0.0,0.0,0.0,0.0,0.0,0.0,0.0,0.0,0.0,0.0,0.0,0.0,0.0,0.0,0.0,0.0,0.0,0.0,0.0,0.0,0.0,0.0,0.0,0.0,0.0,0.0,0.0,0.0,0.0,0.0,0.0,0.0,0.0,0.0,0.0,0.0,0.0,0.0,0.0,0.0,0.0,0.0,0.0,0.0,0.0,0.0,0.0,0.0,0.0,4.9002,4.8873,4.8744,4.8402,0.0,0.0,0.0,0.0,0.0,0.0,0.0,0.0,0.0,0.0,0.0,0.0,0.0,0.0,0.0,0.0,0.0,0.0,5.3948,0.0,0.0,0.0,0.0,5.7886,5.7997,5.7997,5.7997,5.7997,0.0,5.7997,5.7997,5.7997,5.7997,0.0,5.8474,5.9159,5.9306,5.9747,6.0566,6.1227,6.1337,6.0774,6.1447,6.1777,6.1777,6.2462,6.2793,6.2793,6.2793,6.2793,6.2793,0.0,0.0,6.2793,6.2793,6.2793,6.2793,6.2793,6.2793,6.2793,6.2793,6.2793,6.2793,0.0,0.0,0.0,0.0,0.0,0.0,0.0,0.0,0.0,0.0,0.0,0.0,0.0,0.0,0.0,0.0,0.0,0.0,0.0,0.0,0.0,0.0,0.0,0.0,0.0,0.0,0.0,0.0,0.0,0.0,4.5594,4.5594,4.5975,0.0,0.0,0.0,0.0,0.0,0.0,0.0,0.0,0.0,0.0,0.0,0.0,0.0,0.0,0.0,0.0,4.8903,4.8656,4.8364,4.8325,0.0,0.0,0.0,0.0,0.0,4.9197,5.0004,0.0,0.0,0.0,0.0,0.0,0.0,0.0,0.0,0.0,0.0,0.0,5.4326,5.484,0.0,0.0,5.785,0.0,0.0,5.7997,5.7997,0.0,5.7997,5.7997,5.7997,5.7997,5.7997,0.0,5.9086,5.9184,5.9857,6.0566,6.1374,6.152,6.1887,6.2426,6.2536,6.2609,6.2609,6.2756,6.2793,6.2793,6.2793,6.2793,6.2793,0.0,6.2793,6.2793,6.2793,6.2793,6.2793,6.2793,6.2793,6.2793,6.2793,6.2793,6.2793,0.0,0.0,0.0,0.0,0.0,0.0,0.0,0.0,0.0,0.0,0.0,0.0,0.0,0.0,0.0,0.0,0.0,0.0,0.0,0.0,0.0,0.0,0.0,0.0,0.0,0.0,0.0,0.0,0.0,4.5821,4.6317,4.674,4.7163,4.7543,0.0,0.0,0.0,0.0,0.0,0.0,0.0,0.0,0.0,0.0,0.0,0.0,0.0,0.0,0.0,0.0,4.8458,4.8296,4.8296,0.0,0.0,0.0,0.0,0.0,4.949,5.0518,5.1463,0.0,0.0,0.0,0.0,0.0,0.0,0.0,0.0,0.0,0.0,0.0,5.6088,5.7262,0.0,5.7997,5.7997,5.7997,5.7997,0.0,0.0,5.7997,5.7997,5.84,5.8646,5.8646,5.938,0.0,6.0456,6.086,6.141,6.2218,6.2254,6.2438,6.2793,6.2793,6.2793,6.2793,6.2793,6.2793,6.2793,6.2793,6.2793,6.2793,0.0,6.2793,6.2793,6.2793,6.2793,6.2793,6.2793,6.2793,6.2793,6.2793,6.2793,6.2793,0.0,0.0,0.0,0.0,0.0,0.0,0.0,0.0,0.0,0.0,0.0,0.0,0.0,0.0,0.0,0.0,0.0,0.0,0.0,0.0,0.0,0.0,0.0,0.0,0.0,0.0,4.5594,4.5594,4.5782,4.6355,4.7197,4.8005,4.8394,0.0,0.0,0.0,0.0,4.9285,0.0,0.0,0.0,0.0,0.0,0.0,0.0,0.0,0.0,0.0,0.0,0.0,0.0,0.0,0.0,0.0,0.0,0.0,4.9087,4.9684,5.0051,5.1069,5.206,0.0,0.0,0.0,0.0,0.0,0.0,0.0,0.0,0.0,0.0,5.6124,0.0,5.7886,5.7997,5.7997,5.7997,5.7997,5.7997,5.7997,5.7997,5.807,5.8253,5.8829,5.9269,5.949,6.0236,6.0933,6.1569,6.1777,6.2144,6.2793,6.2793,6.2793,6.2793,6.2793,6.2793,6.2793,6.2793,6.2793,6.2793,6.2793,6.2793,6.2793,6.2793,6.2793,6.2793,6.2793,6.2793,6.2793,6.2793,6.2793,6.2793,6.2793,6.2793,6.2793,0.0,0.0,0.0,0.0,0.0,0.0,0.0,0.0,0.0,0.0,0.0,0.0,0.0,0.0,0.0,0.0,0.0,0.0,0.0,0.0,0.0,0.0,0.0,0.0,0.0,4.5594,4.5594,4.5594,4.6394,4.7235,4.8043,4.8894,4.9317,4.9346,0.0,0.0,5.0577,5.017,5.0047,0.0,0.0,0.0,0.0,0.0,0.0,0.0,0.0,0.0,0.0,0.0,0.0,0.0,0.0,0.0,0.0,0.0,4.9537,4.9941,5.1436,5.1914,5.2171,5.292,0.0,0.0,0.0,0.0,0.0,0.0,0.0,0.0,0.0,5.7336,5.7923,5.7997,5.7997,5.7997,5.7997,0.0,5.7997,5.7997,5.7997,5.829,5.9049,5.9159,5.9526,6.0272,6.1043,6.152,6.1606,6.2328,6.2756,6.2793,6.2793,6.2793,6.2793,6.2793,6.2793,6.2793,6.2793,6.2793,6.2793,6.2793,6.2793,6.2793,6.2793,6.2793,6.2793,6.2793,6.2793,6.2793,6.2793,6.2793,6.2793,6.2793,6.2793,6.2793,0.0,0.0,0.0,0.0,0.0,0.0,0.0,0.0,0.0,0.0,0.0,0.0,0.0,0.0,0.0,0.0,0.0,0.0,0.0,0.0,0.0,0.0,0.0,4.5859,4.6394,4.5898,4.5859,4.6394,4.7778,4.8625,4.8933,4.9784,0.0,0.0,0.0,5.0296,4.9943,4.9806,4.9752,0.0,0.0,0.0,0.0,0.0,0.0,0.0,0.0,0.0,0.0,0.0,4.8296,0.0,0.0,0.0,0.0,0.0,4.9968,5.0582,5.1693,5.238,5.2821,5.3104,0.0,0.0,0.0,0.0,0.0,0.0,0.0,0.0,0.0,0.0,5.7997,5.7997,5.7997,5.7997,5.7997,5.7997,5.7997,5.7997,5.8437,5.8866,5.9159,6.0114,6.0823,6.1117,6.1887,6.2365,6.2365,6.2646,6.2793,6.2793,6.2793,6.2793,6.2793,6.2793,6.2793,6.2793,6.2793,6.2793,6.2793,6.2793,6.2793,6.2793,6.2793,6.2793,6.2793,6.2793,6.2793,6.2793,6.2793,6.2793,6.2793,6.2793,6.2793,6.2793,0.0,0.0,0.0,0.0,0.0,0.0,0.0,0.0,0.0,0.0,0.0,0.0,0.0,0.0,0.0,0.0,0.0,0.0,0.0,0.0,0.0,0.0,0.0,4.6278,4.6889,4.6547,4.6663,4.7274,4.8702,4.9471,4.9616,0.0,0.0,0.0,0.0,4.9968,4.9659,4.9416,0.0,0.0,0.0,0.0,0.0,0.0,0.0,0.0,0.0,0.0,0.0,0.0,4.8296,0.0,0.0,0.0,0.0,0.0,0.0,5.1353,5.216,5.2774,5.3214,0.0,0.0,0.0,0.0,0.0,0.0,0.0,0.0,0.0,0.0,0.0,0.0,0.0,5.7997,5.7997,5.7997,5.8217,5.84,5.84,5.9086,5.9673,5.993,6.0933,6.1716,6.1961,6.2499,6.2793,6.2793,6.2793,6.2793,6.2793,6.2793,6.2793,6.2793,6.2793,6.2793,6.2793,6.2793,6.2793,6.2793,6.2793,6.2793,6.2793,6.2793,6.2793,6.2793,6.2793,6.2793,6.2793,6.2793,6.2793,6.2793,6.2793,6.2793,6.2793,0.0,0.0,0.0,0.0,0.0,0.0,0.0,0.0,0.0,0.0,0.0,0.0,0.0,0.0,0.0,0.0,0.0,0.0,0.0,0.0,0.0,0.0,0.0,4.6889,4.6928,4.7697,4.812,4.812,4.8966,4.9639,5.0105,5.0105,0.0,0.0,0.0,0.0,5.0018,0.0,0.0,0.0,0.0,4.8667,0.0,0.0,0.0,0.0,0.0,0.0,0.0,0.0,4.8296,0.0,0.0,0.0,0.0,0.0,5.1389,5.2171,5.2994,5.3214,5.3214,0.0,0.0,0.0,0.0,0.0,0.0,0.0,0.0,0.0,0.0,0.0,0.0,5.7997,5.7997,5.7997,5.7997,5.8682,5.9196,5.9196,5.993,6.0713,6.1533,6.1606,6.1924,6.2756,6.2793,6.2793,6.2793,6.2793,6.2793,6.2793,6.2793,6.2793,6.2793,6.2793,6.2793,6.2793,6.2793,6.2793,6.2793,6.2793,6.2793,6.2793,6.2793,6.2793,6.2793,6.2793,6.2793,6.2793,6.2793,6.2793,6.2793,6.2793,6.2793,6.2793,0.0,0.0,0.0,0.0,0.0,0.0,0.0,0.0,0.0,0.0,0.0,0.0,0.0,0.0,0.0,0.0,0.0,0.0,0.0,0.0,0.0,0.0,0.0,0.0,0.0,0.0,4.9209,4.8591,4.9482,4.982,0.0,0.0,0.0,4.9265,0.0,0.0,0.0,0.0,0.0,0.0,4.8486,4.8402,0.0,0.0,0.0,0.0,0.0,0.0,0.0,0.0,0.0,0.0,0.0,0.0,0.0,5.1253,5.1803,5.2171,5.2994,5.3214,0.0,5.3214,0.0,0.0,0.0,0.0,0.0,0.0,0.0,0.0,0.0,0.0,0.0,5.7997,5.7997,5.8217,5.8756,5.9049,5.9416,5.9967,6.075,6.1337,6.1569,6.2108,6.2536,6.2793,6.2793,6.2793,6.2793,6.2793,6.2793,6.2793,6.2793,6.2793,6.2793,6.2793,6.2793,6.2793,6.2793,6.2793,6.2793,6.2793,6.2793,6.2793,6.2793,6.2793,6.2793,6.2793,6.2793,6.2793,6.2793,6.2793,6.2793,6.2793,6.2793,6.2793,0.0,0.0,0.0,0.0,0.0,0.0,0.0,0.0,0.0,0.0,0.0,0.0,0.0,0.0,0.0,0.0,0.0,0.0,0.0,0.0,0.0,0.0,0.0,0.0,0.0,4.9435,4.9534,0.0,0.0,0.0,0.0,0.0,0.0,4.8886,0.0,4.8839,0.0,0.0,0.0,4.8296,4.8296,4.8296,4.8296,0.0,0.0,0.0,0.0,0.0,0.0,0.0,0.0,0.0,4.9344,0.0,0.0,5.162,5.2244,5.2564,5.3067,5.3214,0.0,5.3581,5.4032,5.4693,5.5831,0.0,0.0,0.0,0.0,0.0,0.0,0.0,0.0,5.7997,5.8253,5.8646,5.9123,5.9747,6.0334,6.0823,6.1594,6.2071,6.2071,6.2499,6.2793,6.2793,6.2793,6.2793,6.2793,6.2793,6.2793,6.2793,6.2793,6.2793,6.2793,6.2793,6.2793,6.2793,6.2793,6.2793,6.2793,6.2793,6.2793,6.2793,6.2793,6.2793,6.2793,6.2793,6.2793,6.2793,6.2793,6.2793,6.2793,6.2793,6.2793,6.2793,0.0,0.0,0.0,0.0,0.0,0.0,0.0,0.0,0.0,0.0,0.0,0.0,0.0,0.0,0.0,0.0,0.0,0.0,0.0,0.0,0.0,0.0,0.0,0.0,0.0,0.0,0.0,0.0,0.0,0.0,0.0,0.0,4.8856,4.8839,0.0,4.8486,0.0,4.8458,4.8296,4.8296,4.8296,4.8296,4.8296,4.8296,0.0,0.0,0.0,0.0,0.0,0.0,0.0,0.0,4.9454,5.0261,5.1059,5.1867,5.2637,5.3214,5.3214,5.3251,5.3471,5.4216,5.4509,0.0,5.6554,5.7483,5.7997,5.7997,0.0,5.7997,5.7997,5.7997,5.8033,5.8107,5.8719,5.9269,5.9416,6.0676,6.1643,6.1704,6.2365,6.2793,6.2793,6.2793,6.2793,6.2793,6.2793,6.2793,6.2793,6.2793,6.2793,6.2793,6.2793,6.2793,6.2793,6.2793,6.2793,6.2793,6.2793,6.2793,6.2793,6.2793,6.2793,6.2793,6.2793,6.2793,6.2793,6.2793,6.2793,6.2793,6.2793,6.2793,6.2793,6.2793,6.2793,6.2793,0.0,0.0,0.0,0.0,0.0,0.0,0.0,0.0,0.0,0.0,0.0,0.0,0.0,0.0,0.0,0.0,0.0,0.0,0.0,0.0,0.0,0.0,0.0,0.0,0.0,0.0,0.0,0.0,0.0,0.0,0.0,0.0,0.0,4.8421,0.0,4.8363,4.8421,4.8344,4.8296,4.8296,4.8296,4.8296,4.8296,4.8296,0.0,0.0,0.0,0.0,0.0,0.0,0.0,0.0,5.0288,5.1096,5.1903,5.2711,5.3067,5.3214,5.3214,5.3654,0.0,5.4363,5.5354,5.6554,5.7519,5.7886,5.7997,5.7997,5.7997,5.7997,5.7997,5.7997,5.8217,5.8829,5.9086,5.9636,6.0896,6.1374,6.1814,6.2462,6.2683,6.2793,6.2793,6.2793,6.2793,6.2793,6.2793,6.2793,6.2793,6.2793,6.2793,6.2793,6.2793,6.2793,6.2793,6.2793,6.2793,6.2793,6.2793,6.2793,6.2793,6.2793,6.2793,6.2793,6.2793,6.2793,6.2793,6.2793,6.2793,6.2793,6.2793,6.2793,6.2793,6.2793,6.2793,6.2793,0.0,0.0,0.0,0.0,0.0,0.0,0.0,0.0,0.0,0.0,0.0,0.0,0.0,0.0,0.0,0.0,0.0,0.0,0.0,0.0,0.0,0.0,0.0,0.0,0.0,0.0,0.0,0.0,0.0,0.0,0.0,0.0,0.0,4.8296,0.0,4.8296,4.8296,4.8296,4.8296,4.8296,4.8296,4.8296,4.8296,4.8296,0.0,0.0,0.0,0.0,0.0,0.0,0.0,0.0,0.0,0.0,5.216,5.2957,5.3214,5.3214,5.3214,5.3801,5.4583,5.5354,0.0,5.7483,5.7886,5.7997,5.7997,5.7997,5.7997,5.7997,5.7997,5.8327,5.8719,5.9123,5.9857,6.0639,6.1484,6.1924,6.2328,6.2756,6.2793,6.2793,6.2793,6.2793,6.2793,6.2793,6.2793,6.2793,6.2793,6.2793,6.2793,6.2793,6.2793,6.2793,6.2793,6.2793,6.2793,6.2793,6.2793,6.2793,6.2793,6.2793,6.2793,6.2793,6.2793,6.2793,6.2793,6.2793,6.2793,6.2793,6.2793,6.2793,6.2793,6.2793,6.2793,6.2793,0.0,0.0,0.0,0.0,0.0,0.0,0.0,0.0,0.0,0.0,0.0,0.0,0.0,0.0,0.0,0.0,0.0,0.0,0.0,0.0,0.0,0.0,0.0,0.0,0.0,0.0,0.0,0.0,0.0,0.0,0.0,0.0,0.0,4.8296,0.0,0.0,4.8296,4.8296,4.8296,4.8296,4.8296,4.8296,0.0,0.0,0.0,0.0,0.0,0.0,0.0,4.9821,0.0,0.0,0.0,0.0,5.2344,5.2994,5.3214,5.3214,5.3361,5.4095,5.517,5.6638,5.7519,0.0,5.7997,5.7997,5.7997,5.7997,5.7997,5.8033,5.818,5.8756,5.9306,5.9563,6.075,6.163,6.1777,6.2389,6.2793,6.2793,6.2793,6.2793,6.2793,6.2793,6.2793,6.2793,6.2793,6.2793,6.2793,6.2793,6.2793,6.2793,6.2793,6.2793,6.2793,6.2793,6.2793,6.2793,6.2793,6.2793,6.2793,6.2793,6.2793,6.2793,6.2793,6.2793,6.2793,6.2793,6.2793,6.2793,6.2793,6.2793,6.2793,6.2793,6.2793,6.2793,0.0,0.0,0.0,0.0,0.0,0.0,0.0,0.0,0.0,0.0,0.0,0.0,0.0,0.0,0.0,0.0,0.0,0.0,0.0,0.0,0.0,0.0,0.0,0.0,0.0,0.0,0.0,0.0,0.0,0.0,0.0,0.0,0.0,0.0,0.0,0.0,0.0,4.8296,4.8296,4.8296,4.8296,4.8296,0.0,0.0,0.0,0.0,0.0,0.0,0.0,0.0,5.1169,0.0,0.0,0.0,5.3067,5.3177,5.3214,5.3361,5.4069,5.5354,5.6712,0.0,5.7923,5.7997,0.0,0.0,5.7997,0.0,5.7997,5.8217,5.8902,5.9123,5.9673,6.1043,6.1459,6.1851,6.2536,6.2719,6.2793,6.2793,6.2793,6.2793,6.2793,6.2793,6.2793,6.2793,6.2793,6.2793,6.2793,6.2793,6.2793,6.2793,6.2793,6.2793,6.2793,6.2793,6.2793,6.2793,6.2793,6.2793,6.2793,6.2793,6.2793,6.2793,6.2793,6.2793,6.2793,6.2793,6.2793,6.2793,6.2793,6.2793,6.2793,6.2793,6.2793,6.2793,0.0,0.0,0.0,0.0,0.0,0.0,0.0,0.0,0.0,0.0,0.0,0.0,0.0,0.0,0.0,0.0,0.0,0.0,0.0,0.0,0.0,0.0,0.0,0.0,0.0,0.0,0.0,0.0,0.0,0.0,0.0,4.8296,4.8296,0.0,0.0,0.0,0.0,0.0,0.0,0.0,0.0,0.0,0.0,0.0,0.0,0.0,0.0,0.0,0.0,0.0,0.0,0.0,0.0,0.0,0.0,0.0,5.3508,5.4142,5.539,5.626,5.7005,0.0,5.7997,5.7997,5.7997,5.7997,5.7997,5.7997,5.8364,5.8792,5.9123,5.9563,6.026,6.141,6.1998,6.2401,6.2756,6.2793,6.2793,6.2793,6.2793,6.2793,6.2793,6.2793,6.2793,6.2793,6.2793,6.2793,6.2793,6.2793,6.2793,6.2793,6.2793,6.2793,6.2793,6.2793,6.2793,6.2793,6.2793,6.2793,6.2793,6.2793,6.2793,6.2793,6.2793,6.2793,6.2793,6.2793,6.2793,6.2793,6.2793,6.2793,6.2793,6.2793,6.2793,6.2793,0.0,0.0,0.0,0.0,0.0,0.0,0.0,0.0,0.0,0.0,0.0,0.0,0.0,0.0,0.0,0.0,0.0,0.0,0.0,0.0,0.0,0.0,0.0,0.0,0.0,0.0,0.0,0.0,0.0,0.0,4.8296,4.8296,4.8296,0.0,4.8296,0.0,0.0,0.0,0.0,0.0,0.0,0.0,0.0,0.0,0.0,0.0,0.0,0.0,0.0,0.0,0.0,0.0,0.0,0.0,0.0,0.0,0.0,5.4954,5.6189,5.6807,5.718,5.7615,5.7844,5.7997,0.0,0.0,5.7997,0.0,5.8646,5.9269,5.949,6.015,6.097,6.1777,6.2389,6.2793,6.2793,6.2793,6.2793,6.2793,6.2793,6.2793,6.2793,6.2793,6.2793,6.2793,6.2793,6.2793,6.2793,6.2793,6.2793,6.2793,6.2793,6.2793,6.2793,6.2793,6.2793,6.2793,6.2793,6.2793,6.2793,6.2793,6.2793,6.2793,6.2793,6.2793,6.2793,6.2793,6.2793,6.2793,6.2793,6.2793,6.2793,6.2793,6.2793,6.2793,0.0,0.0,0.0,0.0,0.0,0.0,0.0,0.0,0.0,0.0,0.0,0.0,0.0,0.0,0.0,0.0,0.0,0.0,0.0,0.0,0.0,0.0,0.0,0.0,0.0,0.0,0.0,0.0,0.0,0.0,4.8296,4.8296,4.8296,4.8296,4.8296,4.8746,4.9537,0.0,0.0,0.0,0.0,0.0,0.0,0.0,0.0,0.0,0.0,0.0,0.0,0.0,0.0,0.0,0.0,0.0,0.0,0.0,0.0,0.0,5.5716,5.6806,5.7784,5.7116,5.7474,5.7997,0.0,0.0,5.7997,5.7997,5.8646,5.9416,6.0187,6.1006,6.1814,6.2609,6.2756,6.2793,6.2793,6.2793,6.2793,6.2793,6.2793,6.2793,6.2793,6.2793,6.2793,6.2793,6.2793,6.2793,6.2793,6.2793,6.2793,6.2793,6.2793,6.2793,6.2793,6.2793,6.2793,6.2793,6.2793,6.2793,6.2793,6.2793,6.2793,6.2793,6.2793,6.2793,6.2793,6.2793,6.2793,6.2793,6.2793,6.2793,6.2793,6.2793,6.2793,6.2793,0.0,0.0,0.0,0.0,0.0,0.0,0.0,0.0,0.0,0.0,0.0,0.0,0.0,0.0,0.0,0.0,0.0,0.0,0.0,0.0,0.0,0.0,0.0,0.0,0.0,0.0,0.0,0.0,0.0,4.8296,4.8296,4.8857,4.9123,4.9123,4.9123,4.9307,4.9647,5.0151,0.0,0.0,0.0,0.0,0.0,0.0,0.0,0.0,0.0,0.0,0.0,0.0,0.0,0.0,0.0,0.0,0.0,0.0,0.0,0.0,0.0,0.0,5.7103,5.6326,5.7067,5.7892,5.7401,5.7667,5.8143,5.8646,5.9416,6.0224,6.1006,6.141,6.1851,6.2683,6.2793,6.2793,6.2793,6.2793,6.2793,6.2793,6.2793,6.2793,6.2793,6.2793,6.2793,6.2793,6.2793,6.2793,6.2793,6.2793,6.2793,6.2793,6.2793,6.2793,6.2793,6.2793,6.2793,6.2793,6.2793,6.2793,6.2793,6.2793,6.2793,6.2793,6.2793,6.2793,6.2793,6.2793,6.2793,6.2793,6.2793,6.2793,6.2793,6.2793,6.2793,6.2793,0.0,0.0,0.0,0.0,0.0,0.0,0.0,0.0,0.0,0.0,0.0,0.0,0.0,0.0,0.0,0.0,0.0,0.0,0.0,0.0,0.0,0.0,0.0,0.0,0.0,0.0,0.0,0.0,0.0,0.0,0.0,0.0,5.0004,5.0004,5.0298,0.0,0.0,0.0,0.0,5.1636,0.0,0.0,5.2454,0.0,0.0,0.0,0.0,0.0,0.0,0.0,0.0,0.0,0.0,0.0,0.0,0.0,0.0,0.0,0.0,0.0,0.0,0.0,5.6451,5.7191,5.6951,5.729,5.7922,5.8966,5.982,6.0639,6.1447,6.1814,6.2181,6.2719,6.2793,6.2793,6.2793,6.2793,6.2793,6.2793,6.2793,6.2793,6.2793,6.2793,6.2793,6.2793,6.2793,0.0,6.2793,6.2793,6.2793,6.2793,6.2793,6.2793,6.2793,6.2793,6.2793,6.2793,6.2793,6.2793,6.2793,6.2793,6.2793,6.2793,6.2793,6.2793,6.2793,6.2793,6.2793,6.2793,6.2793,6.2793,6.2793,6.2793,6.2793,6.2793,0.0,0.0,0.0,0.0,0.0,0.0,0.0,0.0,0.0,0.0,0.0,0.0,0.0,0.0,0.0,0.0,0.0,0.0,0.0,0.0,0.0,0.0,0.0,0.0,0.0,0.0,0.0,0.0,0.0,0.0,0.0,0.0,5.0839,0.0,5.1693,5.2024,5.2024,0.0,5.2491,5.3214,0.0,5.3214,5.3214,0.0,0.0,0.0,5.2937,5.2736,0.0,0.0,0.0,0.0,0.0,0.0,0.0,0.0,0.0,0.0,0.0,0.0,0.0,0.0,0.0,0.0,5.6655,0.0,5.7355,5.8883,5.9833,6.0652,6.1484,6.2291,6.2793,6.2793,6.2793,6.2793,6.2793,6.2793,6.2793,6.2793,6.2793,6.2793,6.2793,6.2793,6.2793,6.2793,6.2793,6.2793,6.2793,6.2793,6.2793,6.2793,6.2793,6.2793,6.2793,6.2793,6.2793,6.2793,6.2793,6.2793,6.2793,6.2793,6.2793,6.2793,6.2793,6.2793,6.2793,6.2793,6.2793,6.2793,6.2793,6.2793,6.2793,6.2793,6.2793,6.2793,0.0,0.0,0.0,0.0,0.0,0.0,0.0,0.0,0.0,0.0,0.0,0.0,0.0,0.0,0.0,0.0,0.0,0.0,0.0,0.0,0.0,0.0,0.0,0.0,0.0,0.0,0.0,0.0,0.0,0.0,0.0,0.0,0.0,0.0,5.2527,5.2847,5.2847,5.2847,0.0,0.0,5.3214,5.3214,0.0,0.0,0.0,0.0,0.0,5.2736,0.0,0.0,5.2001,5.157,0.0,0.0,0.0,0.0,0.0,0.0,5.4056,0.0,0.0,0.0,0.0,0.0,0.0,0.0,5.7344,5.8924,5.9875,6.0804,6.2192,6.2646,6.2793,6.2793,6.2793,6.2793,6.2793,6.2793,6.2793,6.2793,6.2793,6.2793,6.2793,6.2793,6.2793,0.0,6.2793,6.2793,6.2793,6.2793,6.2793,6.2793,6.2793,6.2793,6.2793,6.2793,6.2793,6.2793,6.2793,6.2793,6.2793,6.2793,6.2793,6.2793,6.2793,6.2793,6.2793,6.2793,6.2793,6.2793,6.2793,6.2793,6.2793,6.2793,6.2793,6.2793,0.0,0.0,0.0,0.0,0.0,0.0,0.0,0.0,0.0,0.0,0.0,0.0,0.0,0.0,0.0,0.0,0.0,0.0,0.0,0.0,0.0,0.0,0.0,0.0,0.0,0.0,0.0,0.0,0.0,0.0,0.0,0.0,0.0,0.0,0.0,0.0,0.0,0.0,0.0,0.0,5.3214,0.0,0.0,5.3214,5.2991,0.0,0.0,0.0,5.2262,5.2934,5.2711,0.0,0.0,0.0,0.0,0.0,0.0,0.0,0.0,0.0,0.0,0.0,0.0,0.0,5.5029,5.6006,5.7434,5.9341,6.0358,6.1298,6.2571,6.2793,6.2793,6.2793,6.2793,6.2793,6.2793,6.2793,6.2793,6.2793,6.2793,6.2793,6.2793,6.2793,6.2793,6.2793,6.2793,6.2793,6.2793,6.2793,6.2793,6.2793,6.2793,6.2793,6.2793,6.2793,6.2793,6.2793,6.2793,6.2793,6.2793,6.2793,6.2793,6.2793,6.2793,6.2793,6.2793,6.2793,6.2793,6.2793,6.2793,6.2793,6.2793,6.2793,6.2793,6.2793,0.0,0.0,0.0,0.0,0.0,0.0,0.0,0.0,0.0,0.0,0.0,0.0,0.0,0.0,0.0,0.0,0.0,0.0,0.0,0.0,0.0,0.0,0.0,0.0,0.0,0.0,0.0,0.0,0.0,0.0,0.0,0.0,0.0,0.0,0.0,0.0,0.0,0.0,0.0,5.3214,5.3214,5.3214,0.0,0.0,5.2937,0.0,5.3994,5.3699,5.2766,5.4074,5.4026,0.0,0.0,0.0,0.0,0.0,5.3518,0.0,0.0,0.0,0.0,0.0,0.0,0.0,5.5179,5.615,5.7377,5.9545,6.0709,6.16,6.2508,6.2679,6.2705,6.278,6.2793,6.2793,6.2793,6.2793,6.2793,6.2793,6.2793,6.2793,6.2793,6.2793,6.2793,6.2793,6.2793,6.2793,6.2793,6.2793,6.2793,6.2793,6.2793,6.2793,6.2793,6.2793,6.2793,6.2793,6.2793,6.2793,6.2793,6.2793,6.2793,6.2793,6.2793,6.2793,6.2793,6.2793,6.2793,6.2793,6.2793,6.2793,6.2793,6.2793,6.2793,6.2793,0.0,0.0,0.0,0.0,0.0,0.0,0.0,0.0,0.0,0.0,0.0,0.0,0.0,0.0,0.0,0.0,0.0,0.0,0.0,0.0,0.0,0.0,0.0,0.0,0.0,0.0,0.0,0.0,0.0,0.0,0.0,0.0,0.0,0.0,0.0,0.0,0.0,0.0,0.0,5.3214,5.3214,0.0,5.3287,5.3922,5.4078,5.4063,5.5027,5.5173,5.4902,0.0,5.4042,5.3464,0.0,0.0,0.0,0.0,0.0,0.0,0.0,0.0,0.0,0.0,0.0,0.0,5.3848,5.4972,5.6247,5.7343,5.8652,6.0061,6.1568,6.1824,6.2049,6.2705,6.2793,6.2793,6.2793,6.2793,6.2793,6.2793,6.2793,6.2793,6.2793,6.2793,6.2793,6.2793,6.2793,6.2793,6.2793,6.2793,6.2793,6.2793,6.2793,6.2793,6.2793,6.2793,6.2793,6.2793,6.2793,6.2793,6.2793,6.2793,6.2793,6.2793,6.2793,6.2793,6.2793,6.2793,6.2793,6.2793,6.2793,6.2793,6.2793,6.2793,6.2793,6.2793,0.0,0.0,0.0,0.0,0.0,0.0,0.0,0.0,0.0,0.0,0.0,0.0,0.0,0.0,0.0,0.0,0.0,0.0,0.0,0.0,0.0,0.0,0.0,0.0,0.0,0.0,0.0,0.0,0.0,0.0,0.0,0.0,0.0,0.0,0.0,0.0,0.0,0.0,5.3801,5.3801,5.3801,0.0,5.3885,5.4693,5.4997,5.5097,5.5904,5.5943,5.5543,5.4804,5.408,0.0,0.0,5.3518,5.3518,0.0,5.3518,5.3518,0.0,0.0,0.0,5.3518,0.0,0.0,0.0,5.5206,5.6535,5.7335,5.9025,6.0605,6.1428,6.1942,6.2324,6.2743,6.2793,6.2793,6.2793,6.2793,6.2793,6.2793,6.2793,6.2793,6.2793,6.2793,6.2793,6.2793,6.2793,6.2793,6.2793,6.2793,6.2793,6.2793,6.2793,6.2793,6.2793,6.2793,6.2793,6.2793,6.2793,6.2793,6.2793,6.2793,6.2793,6.2793,6.2793,6.2793,6.2793,6.2793,6.2793,6.2793,6.2793,6.2793,6.2793,6.2793,6.2793,6.2793,0.0,0.0,0.0,0.0,0.0,0.0,0.0,0.0,0.0,0.0,0.0,0.0,0.0,0.0,0.0,0.0,0.0,0.0,0.0,0.0,0.0,0.0,0.0,5.1573,0.0,0.0,0.0,0.0,0.0,0.0,0.0,0.0,0.0,0.0,0.0,0.0,0.0,0.0,0.0,5.462,0.0,5.469,5.4528,5.5456,5.5727,5.5747,5.6703,5.6549,5.5822,5.5039,0.0,5.3864,5.3584,5.3601,0.0,0.0,0.0,0.0,0.0,0.0,0.0,0.0,0.0,5.3882,0.0,0.0,0.0,5.7912,5.9571,0.0,0.0,0.0,0.0,0.0,0.0,0.0,0.0,6.2683,0.0,6.2793,6.2793,6.2793,6.2793,6.2793,6.2793,6.2793,6.2793,6.2793,6.2793,6.2793,6.2793,6.2793,6.2793,6.2793,6.2793,6.2793,6.2793,6.2793,6.2793,6.2793,6.2793,6.2793,6.2793,6.2793,6.2793,6.2793,6.2793,6.2793,6.2793,6.2793,6.2793,6.2793,6.2793,6.2793,6.2793,6.2829,0.0,0.0,0.0,0.0,0.0,0.0,0.0,0.0,0.0,0.0,0.0,0.0,0.0,0.0,0.0,0.0,0.0,0.0,5.292,0.0,0.0,0.0,0.0,0.0,5.3067,0.0,0.0,0.0,0.0,0.0,0.0,0.0,0.0,0.0,5.3214,0.0,0.0,0.0,5.4803,0.0,5.6235,5.571,0.0,5.6093,5.6257,5.5872,5.7323,5.7389,5.6642,0.0,5.5524,5.5203,0.0,5.3962,0.0,0.0,0.0,0.0,0.0,0.0,0.0,0.0,5.4482,0.0,0.0,0.0,5.7032,5.7839,0.0,0.0,0.0,0.0,0.0,0.0,0.0,0.0,6.1851,6.2365,6.2793,6.2793,6.2793,6.2793,6.2793,6.2793,6.2793,6.2793,6.2793,6.2793,6.2793,6.2793,6.2793,6.2793,6.2793,6.2793,6.2793,6.2793,6.2793,6.2793,6.2793,6.2793,6.2793,6.2793,6.2793,6.2793,6.2793,6.2793,6.2793,6.2793,6.2793,6.2793,6.2793,6.2793,6.2793,6.2793,6.2793,6.2903,0.0,0.0,0.0,0.0,0.0,0.0,0.0,0.0,0.0,0.0,0.0,0.0,0.0,0.0,0.0,0.0,0.0,0.0,0.0,0.0,0.0,0.0,0.0,0.0,0.0,0.0,0.0,0.0,5.3214,0.0,0.0,0.0,0.0,0.0,5.3922,0.0,5.5144,0.0,0.0,0.0,0.0,0.0,0.0,5.7093,5.7285,5.7133,5.7757,5.751,5.6861,0.0,5.5794,0.0,0.0,0.0,0.0,0.0,0.0,0.0,0.0,0.0,0.0,0.0,0.0,0.0,0.0,0.0,5.8211,0.0,0.0,0.0,0.0,0.0,0.0,0.0,6.2572,0.0,0.0,0.0,6.2793,0.0,0.0,0.0,6.2793,6.2793,6.2793,6.2793,6.2793,6.2793,6.2793,6.2793,6.2793,6.2793,6.2793,6.2793,6.2793,6.2793,6.2793,6.2793,6.2793,6.2793,6.2793,6.2793,6.2793,6.2793,6.2793,6.2793,6.2793,6.2793,6.2793,6.2793,6.2793,6.2793,6.2793,6.2793,6.3123,6.3613,0.0,0.0,0.0,0.0,0.0,0.0,0.0,0.0,0.0,0.0,0.0,0.0,5.4238,5.3661,0.0,0.0,0.0,5.3214,0.0,0.0,5.3214,0.0,0.0,0.0,0.0,0.0,0.0,0.0,0.0,0.0,0.0,0.0,0.0,0.0,0.0,5.517,5.5989,0.0,0.0,5.7178,5.7776,5.7691,5.7252,5.7558,5.7809,5.7997,5.7997,5.7667,5.7154,5.6964,5.6286,0.0,5.5681,0.0,0.0,0.0,0.0,0.0,5.4774,0.0,0.0,0.0,0.0,0.0,0.0,0.0,0.0,0.0,0.0,0.0,0.0,0.0,0.0,0.0,0.0,0.0,0.0,0.0,0.0,0.0,0.0,0.0,0.0,6.2793,6.2793,6.2793,6.2793,6.2793,6.2793,6.2793,6.2793,6.2793,6.2793,6.2793,6.2793,6.2793,6.2793,6.2793,6.2793,6.2793,6.2793,6.2793,6.2793,6.2793,6.2793,6.2793,6.2793,6.2793,6.2793,6.2793,6.2793,6.2793,6.2793,6.2793,6.3356,6.4139,0.0,5.0707,0.0,0.0,0.0,0.0,0.0,0.0,0.0,0.0,0.0,0.0,0.0,0.0,0.0,0.0,0.0,5.3214,5.3214,0.0,5.3214,0.0,0.0,0.0,0.0,0.0,0.0,0.0,0.0,0.0,0.0,0.0,0.0,0.0,0.0,5.6014,5.6737,5.6774,5.7262,5.796,5.7997,5.7985,5.7904,0.0,5.7388,5.7997,5.7997,0.0,0.0,5.7128,5.7351,0.0,0.0,0.0,0.0,0.0,0.0,0.0,0.0,0.0,0.0,5.761,0.0,0.0,0.0,0.0,6.0561,0.0,0.0,0.0,0.0,0.0,0.0,0.0,0.0,0.0,0.0,0.0,0.0,0.0,0.0,0.0,0.0,6.2793,6.2793,6.2793,6.2793,6.2793,6.2793,6.2793,6.2793,6.2793,6.2793,6.2793,6.2793,6.2793,6.2793,6.2793,6.2793,6.2793,6.2793,6.2793,6.2793,6.2793,6.2793,6.2793,6.2793,6.2793,6.2793,6.2793,6.2793,6.2793,6.2793,6.2793,6.3356,6.4213,0.0,0.0,0.0,0.0,0.0,0.0,0.0,5.5075,0.0,0.0,0.0,0.0,0.0,0.0,5.3214,0.0,0.0,5.3214,5.3214,5.3214,0.0,0.0,0.0,5.3214,0.0,0.0,0.0,0.0,0.0,0.0,0.0,0.0,0.0,0.0,0.0,5.6859,0.0,0.0,0.0,0.0,0.0,5.7997,5.7973,0.0,0.0,5.7997,5.7997,5.7997,0.0,5.7714,5.7462,5.729,5.7241,5.7071,5.6954,5.7222,5.7318,0.0,0.0,0.0,5.8217,5.8755,0.0,0.0,0.0,0.0,0.0,0.0,0.0,0.0,0.0,0.0,0.0,0.0,0.0,0.0,0.0,0.0,0.0,0.0,0.0,0.0,0.0,0.0,6.2793,6.2793,6.2793,6.2793,6.2793,6.2793,6.2793,6.2793,6.2793,6.2793,6.2793,6.2793,6.2793,6.2793,6.2793,6.2793,6.2793,6.2793,6.2793,6.2793,6.2793,6.2793,6.2793,6.2793,6.2793,6.2793,6.2793,6.316,6.3649,6.3649,6.4163,6.5081,5.2351,0.0,0.0,0.0,0.0,0.0,0.0,0.0,0.0,0.0,5.4234,0.0,5.3604,0.0,5.3214,0.0,5.3471,5.3618,5.3618,5.3885,0.0,5.4069,5.4069,0.0,0.0,0.0,0.0,0.0,0.0,5.5108,0.0,0.0,0.0,0.0,0.0,0.0,5.7997,0.0,5.7997,0.0,0.0,5.7997,0.0,0.0,5.7997,5.7997,0.0,5.7997,5.8033,5.8327,5.8117,5.7849,5.8601,5.854,5.8255,5.8761,5.8941,5.9078,5.9556,5.9682,0.0,6.0057,6.0861,0.0,6.1339,0.0,0.0,0.0,0.0,0.0,0.0,0.0,0.0,0.0,0.0,0.0,0.0,0.0,0.0,0.0,0.0,0.0,0.0,0.0,6.2793,6.2793,6.2793,6.2793,0.0,6.2793,6.2793,6.2793,6.2793,6.2793,6.2793,6.2793,6.2793,6.2793,6.2793,6.2793,6.2793,6.2793,6.2793,6.2793,6.2793,6.2793,6.2793,6.2793,6.2793,6.2829,6.3123,6.3613,6.4103,6.4103,6.4787,6.5925,0.0,0.0,0.0,0.0,5.5208,0.0,0.0,0.0,5.4912,0.0,5.4057,5.3633,5.3314,5.3251,5.3287,5.3324,5.4032,0.0,5.4473,5.5181,0.0,0.0,5.5585,5.5585,5.5585,0.0,0.0,0.0,0.0,0.0,0.0,0.0,0.0,0.0,5.7666,0.0,5.7997,5.7997,5.7997,5.7997,5.7997,5.7997,5.7997,5.8033,5.807,5.807,5.807,5.807,5.818,5.8976,5.9269,5.938,6.015,6.0419,6.0456,6.0456,6.0493,6.053,6.052,6.0512,6.0693,6.1479,6.1659,0.0,0.0,0.0,6.2793,0.0,0.0,0.0,0.0,0.0,0.0,0.0,0.0,0.0,0.0,0.0,0.0,0.0,0.0,0.0,0.0,6.2793,6.2793,6.2793,6.2793,0.0,0.0,6.2793,6.2793,6.2793,6.2793,6.2793,6.2793,6.2793,6.2793,6.2793,6.2793,6.2793,6.2793,6.2793,6.2793,6.2793,6.2793,6.2793,6.2793,6.2793,6.2793,6.2903,6.3759,6.4139,6.4213,6.4213,6.5191,6.6659,5.4164,5.4818,5.5401,0.0,5.5555,5.5594,0.0,0.0,0.0,0.0,5.3614,5.3555,5.4043,5.4106,5.4326,5.4913,5.5181,0.0,0.0,0.0,0.0,5.5585,5.5585,5.5585,5.5585,5.5585,0.0,5.6492,0.0,0.0,5.7384,0.0,0.0,0.0,0.0,0.0,5.7997,5.7997,5.7997,5.7997,5.7997,5.7997,0.0,0.0,5.8902,5.8902,5.8902,5.8902,5.9013,5.982,6.0077,6.0114,6.0334,6.0823,6.13,6.13,6.1704,6.2168,6.2175,6.2174,6.2234,6.2429,6.2503,6.2541,0.0,0.0,0.0,0.0,0.0,0.0,0.0,0.0,0.0,0.0,0.0,0.0,0.0,0.0,0.0,0.0,0.0,0.0,6.2793,6.2793,6.2793,6.2793,6.2793,0.0,0.0,0.0,6.2793,6.2793,6.2793,6.2793,6.2793,6.2793,6.2793,6.2793,6.2793,6.2793,6.2793,6.2793,6.2793,6.2793,6.2793,6.2793,6.2793,6.2793,6.2793,6.2903,6.3759,6.4837,6.5888,6.5888,6.6526,6.7407,5.5011,0.0,0.0,5.5458,0.0,0.0,5.514,0.0,0.0,5.4373,5.4293,0.0,5.4876,5.4924,5.5108,5.5548,5.5915,0.0,0.0,0.0,0.0,5.665,5.665,5.665,5.665,5.665,0.0,5.7336,0.0,0.0,5.7997,0.0,0.0,0.0,0.0,5.7997,0.0,5.7997,5.7997,5.8033,5.84,0.0,0.0,5.9416,5.971,5.9783,6.0114,6.0003,5.9857,6.0639,6.0933,6.1006,6.1325,6.1765,6.2108,6.2108,6.2426,6.2793,6.2793,6.2793,6.2793,6.2793,6.2793,6.2793,6.2793,6.2793,6.2793,0.0,0.0,0.0,0.0,0.0,0.0,0.0,0.0,0.0,0.0,0.0,0.0,0.0,0.0,0.0,6.2793,6.2793,6.2793,6.2793,6.2793,0.0,0.0,0.0,6.2793,6.2793,6.2793,6.2793,6.2793,6.2793,6.2793,6.2793,6.2793,6.2793,6.2793,6.2793,6.2793,6.2793,6.2793,6.2793,6.2793,6.2793,6.3013,6.3503,6.4677,6.5938,6.704,6.704,6.7297,6.77,0.0,0.0,0.0,0.0,0.0,0.0,0.0,5.5095,0.0,5.5069,0.0,5.5658,5.5768,5.5768,5.5805,5.5915,0.0,5.6957,5.6957,5.7593,5.7997,5.7997,5.7997,5.7997,5.7997,5.7997,0.0,0.0,0.0,0.0,0.0,0.0,0.0,0.0,0.0,0.0,0.0,5.8107,5.8143,5.8217,5.9013,5.938,5.9453,6.026,6.0566,6.0676,6.1484,6.1227,6.0676,6.1484,6.1741,6.1887,6.2572,6.2793,6.2793,6.2793,6.2793,6.2793,6.2793,6.2793,6.2793,6.2793,6.2793,6.2793,6.2793,6.2793,6.2793,6.2793,6.2793,6.2793,0.0,0.0,0.0,0.0,0.0,0.0,0.0,0.0,0.0,0.0,0.0,0.0,6.2793,6.2793,6.2793,0.0,0.0,0.0,0.0,0.0,6.2793,6.2793,6.2793,6.2793,6.2793,6.2793,6.2793,6.2793,6.2793,6.2793,6.2793,6.2793,6.2793,6.2793,6.2793,6.2793,6.2793,6.2903,6.3539,6.4543,6.5962,6.7003,6.77,6.77,6.77,6.77,0.0,0.0,0.0,0.0,0.0,5.5219,5.5911,5.5445,5.5112,5.546,5.5566,5.5842,5.6528,5.6602,5.6859,5.7519,5.7703,0.0,0.0,0.0,0.0,5.7997,5.7997,5.7997,5.7997,5.7997,5.7997,0.0,0.0,0.0,0.0,0.0,0.0,0.0,0.0,0.0,5.8033,5.8719,0.0,5.9049,5.9857,6.0187,6.026,6.108,6.1374,6.1484,6.2279,6.2071,6.152,6.2328,6.2572,6.2609,6.2756,6.2793,6.2793,6.2793,6.2793,6.2793,6.2793,6.2793,6.2793,6.2793,6.2793,6.2793,6.2793,6.2793,6.2793,6.2793,6.2793,6.2793,6.2793,0.0,0.0,0.0,0.0,0.0,0.0,0.0,0.0,0.0,0.0,0.0,0.0,0.0,0.0,0.0,0.0,0.0,0.0,0.0,6.2793,0.0,6.2793,6.2793,0.0,0.0,6.2793,6.2793,6.2793,6.2793,6.2793,6.2793,6.2793,6.2793,6.2793,6.2793,6.2866,6.3576,6.4751,6.6109,6.6402,6.7003,6.77,6.77,6.77,6.77,0.0,0.0,0.0,0.0,0.0,0.0,0.0,5.6182,0.0,5.6195,5.6602,5.6969,5.7373,5.7409,5.7593,5.796,5.7997,5.7997,5.7997,5.7997,5.7997,5.7997,5.7997,0.0,5.7997,5.7997,5.7997,5.7997,0.0,0.0,0.0,0.0,0.0,0.0,0.0,5.8609,0.0,0.0,0.0,5.9893,6.0713,6.1006,6.1117,6.1924,6.2218,6.2291,6.2646,6.2536,6.2291,6.2683,6.2793,6.2793,6.2793,6.2793,6.2793,6.2793,6.2793,6.2793,6.2793,6.2793,6.2793,6.2793,6.2793,6.2793,6.2793,6.2793,6.2793,6.2793,6.2793,6.2793,6.2793,6.2793,0.0,0.0,0.0,0.0,0.0,0.0,0.0,0.0,0.0,0.0,0.0,0.0,0.0,0.0,0.0,0.0,0.0,0.0,6.2793,0.0,0.0,0.0,6.2793,0.0,6.2793,6.2793,6.2793,6.2793,6.2793,6.2793,6.2793,6.2793,6.2793,6.305,6.3576,6.4824,6.5815,6.6549,6.6966,6.737,6.77,6.77,6.77,6.77,0.0,5.6257,0.0,0.0,5.6334,0.0,5.6988,5.7068,5.7068,5.7068,5.7593,5.7997,5.7997,5.7997,5.7997,5.7997,5.7997,5.7997,5.7997,5.7997,5.7997,5.7997,5.7997,5.7997,5.7997,5.7997,5.7997,0.0,0.0,0.0,0.0,0.0,0.0,0.0,0.0,0.0,0.0,0.0,6.0676,6.075,6.152,6.1851,6.1924,6.2572,6.2793,6.2793,6.2793,6.2793,6.2793,6.2793,6.2793,6.2793,6.2793,6.2793,6.2793,6.2793,6.2793,6.2793,6.2793,6.2793,6.2793,6.2793,6.2793,6.2793,6.2793,6.2793,6.2793,6.2793,6.2793,6.2793,6.2793,6.2793,0.0,0.0,0.0,0.0,0.0,0.0,0.0,0.0,0.0,0.0,0.0,0.0,0.0,0.0,0.0,0.0,6.2793,0.0,0.0,0.0,0.0,6.2793,6.2793,0.0,6.2793,6.2793,6.2793,6.2793,6.2793,6.2793,6.2793,6.2793,6.3013,6.3649,6.4727,6.5962,6.6586,6.6806,6.7444,6.77,6.77,6.77,6.77,6.77,0.0,0.0,0.0,0.0,0.0,0.0,5.7788,5.7886,5.7886,5.7886,5.796,5.7997,5.7997,5.7997,5.7997,5.7997,5.7997,5.7997,5.7997,5.7997,5.7997,5.7997,5.7997,5.7997,5.7997,5.7997,5.7997,0.0,0.0,0.0,0.0,0.0,0.0,0.0,0.0,0.0,0.0,6.1153,6.1496,6.1557,6.2352,6.2683,6.2683,6.2756,6.2793,6.2793,6.2793,6.2793,6.2793,6.2793,6.2793,6.2793,6.2793,6.2793,6.2793,6.2793,6.2793,6.2793,6.2793,6.2793,6.2793,6.2793,6.2793,6.2793,6.2793,6.2793,6.2793,6.2793,6.2793,6.2793,6.2793,6.2793,6.2793,0.0,0.0,0.0,0.0,0.0,0.0,0.0,0.0,0.0,0.0,6.2793,0.0,0.0,0.0,0.0,0.0,0.0,0.0,6.2793,6.2793,6.2793,6.2793,6.2793,6.2793,6.2793,6.2793,6.2793,6.2793,6.2793,6.2793,6.2829,6.3649,6.4861,6.6292,6.6439,6.6916,6.759,6.7664,6.77,6.77,6.77,6.77,6.77,0.0,0.0,0.0,0.0,0.0,0.0,0.0,5.7997,5.7997,5.7997,5.7997,5.7997,5.7997,5.7997,5.7997,5.7997,5.7997,5.7997,5.7997,5.7997,5.7997,5.7997,5.7997,5.7997,5.7997,5.7997,5.8253,0.0,0.0,0.0,0.0,0.0,0.0,0.0,0.0,6.1117,6.1153,6.1998,6.2328,6.2365,6.2683,6.2793,6.2793,6.2793,6.2793,6.2793,6.2793,6.2793,6.2793,6.2793,6.2793,6.2793,6.2793,6.2793,6.2793,6.2793,6.2793,6.2793,6.2793,6.2793,6.2793,6.2793,6.2793,6.2793,6.2793,6.2793,6.2793,6.2793,6.2793,6.2793,6.2793,6.2793,6.2793,6.2793,0.0,0.0,0.0,0.0,0.0,0.0,0.0,0.0,0.0,0.0,0.0,0.0,0.0,0.0,0.0,0.0,0.0,6.2793,0.0,6.2793,6.2793,6.2793,6.2793,6.2793,6.2793,6.2793,6.2793,6.2793,6.3086,6.3649,6.4971,6.5925,6.6549,6.704,6.7407,6.77,6.77,6.77,6.77,6.77,6.77,6.77,5.7231,0.0,5.7997,0.0,5.7997,5.7997,5.7997,5.7997,5.7997,5.7997,5.7997,5.7997,5.7997,5.7997,5.7997,5.7997,5.7997,5.8107,5.8327,5.8364,5.8474,5.8694,5.8694,0.0,5.8694,5.8694,5.8988,5.9563,5.9563,0.0,0.0,0.0,0.0,0.0,6.1594,6.1961,6.1998,6.2572,6.2793,6.2793,6.2793,6.2793,6.2793,6.2793,6.2793,6.2793,6.2793,6.2793,6.2793,6.2793,6.2793,6.2793,6.2793,6.2793,6.2793,6.2793,6.2793,6.2793,6.2793,6.2793,6.2793,6.2793,6.2793,6.2793,6.2793,6.2793,6.2793,6.2793,6.2793,6.2793,6.2793,6.2793,6.2793,6.2793,0.0,0.0,0.0,0.0,0.0,0.0,0.0,6.2793,6.2793,0.0,0.0,0.0,0.0,0.0,0.0,0.0,0.0,0.0,0.0,0.0,6.2793,6.2793,6.2793,6.2793,6.2793,6.2793,6.2793,6.305,6.3796,6.4874,6.5999,6.6623,6.688,6.748,6.77,6.77,6.77,6.77,6.77,6.77,6.77,6.77,5.7997,5.7997,5.7997,5.7997,5.7997,5.7997,5.7997,5.7997,5.7997,5.7997,5.7997,5.7997,5.7997,5.7997,5.7997,5.7997,5.7997,5.8327,5.9123,5.9196,5.9526,0.0,0.0,6.0382,6.0382,6.0382,6.0382,6.037,0.0,0.0,6.0407,0.0,6.1594,6.163,6.2438,6.2793,6.2793,6.2793,6.2793,6.2793,6.2793,6.2793,6.2793,6.2793,6.2793,6.2793,6.2793,6.2793,6.2793,6.2793,6.2793,6.2793,6.2793,6.2793,6.2793,6.2793,6.2793,6.2793,6.2793,6.2793,6.2793,6.2793,6.2793,6.2793,6.2793,6.2793,6.2793,6.2793,6.2793,6.2793,6.2793,6.2793,6.2793,6.2793,0.0,0.0,0.0,0.0,0.0,0.0,6.2793,6.2793,6.2793,0.0,0.0,0.0,0.0,0.0,0.0,0.0,0.0,6.2793,6.2793,0.0,6.2793,6.2793,6.2793,6.2793,6.2793,6.2793,6.2829,6.3686,6.4947,6.6476,6.6476,6.6953,6.77,6.77,6.77,6.77,6.77,6.77,6.77,6.77,6.77,6.77,5.7997,5.7997,5.7997,5.7997,5.7997,5.818,5.8719,5.8829,5.9013,5.9575,5.9648,5.9648,5.9648,5.9159,5.9049,0.0,5.9648,5.9758,0.0,6.0003,6.0114,6.037,6.0419,6.0419,6.0419,6.0419,6.0676,6.1227,0.0,0.0,0.0,6.2279,6.2426,6.2426,6.2683,6.2793,6.2793,6.2793,6.2793,6.2793,6.2793,6.2793,6.2793,6.2793,6.2793,6.2793,6.2793,6.2793,6.2793,6.2793,6.2793,6.2793,6.2793,6.2793,6.2793,6.2793,6.2793,6.2793,6.2793,6.2793,6.2793,6.2793,6.2793,6.2793,6.2793,6.2793,6.2793,6.2793,6.2793,6.2793,6.2793,6.2793,6.2793,6.2793,6.2793,0.0,0.0,0.0,0.0,0.0,6.2793,6.2793,0.0,6.2793,0.0,0.0,0.0,0.0,0.0,0.0,0.0,0.0,6.2793,0.0,6.2793,6.2793,6.2793,6.2793,6.2793,6.3123,6.3723,6.453,6.5521,6.6512,6.7076,6.748,6.77,6.77,6.77,6.77,6.77,6.77,6.77,6.77,6.77,6.77,5.7997,5.8253,5.8437,5.8437,5.8694,5.9061,5.9563,5.9636,5.982,6.0334,6.0419,6.0529,6.0823,6.0419,0.0,6.0382,6.0419,6.0529,6.0823,6.086,6.1006,6.1288,6.1288,6.1288,6.1288,6.1288,0.0,6.2034,6.2034,6.2328,6.2793,6.2793,6.2793,6.2793,6.2793,6.2793,6.2793,6.2793,6.2793,6.2793,6.2793,6.2793,6.2793,6.2793,6.2793,6.2793,6.2793,6.2793,6.2793,6.2793,6.2793,6.2793,6.2793,6.2793,6.2793,6.2793,6.2793,6.2793,6.2793,6.2793,6.2793,6.2793,6.2793,6.2793,6.2793,6.2793,6.2793,6.2793,6.2793,6.2793,6.2793,6.2793,6.2793,6.2793,6.2793,6.2793,6.2793,0.0,0.0,0.0,0.0,0.0,0.0,6.2793,6.2793,0.0,0.0,0.0,0.0,0.0,6.2793,6.2793,6.2793,6.2793,6.2793,6.2793,6.2793,6.2793,6.3123,6.3723,6.4567,6.5375,6.6182,6.699,6.748,6.77,6.77,6.77,6.77,6.77,6.77,6.77,6.77,6.77,6.77,6.77,5.818,5.8756,5.9269,5.9269,5.9893,6.0407,6.0456,6.0493,6.0481,6.0566,6.0566,6.086,6.1594,6.1679,6.1374,6.0639,0.0,0.0,6.163,6.1679,6.2034,6.2756,6.2793,6.2793,6.2793,6.2793,6.2793,6.2793,6.2793,6.2793,6.2793,6.2793,6.2793,6.2793,6.2793,6.2793,6.2793,6.2793,6.2793,6.2793,6.2793,6.2793,6.2793,6.2793,6.2793,6.2793,6.2793,6.2793,6.2793,6.2793,6.2793,6.2793,6.2793,6.2793,6.2793,6.2793,6.2793,6.2793,6.2793,6.2793,6.2793,6.2793,6.2793,6.2793,6.2793,6.2793,6.2793,6.2793,6.2793,6.2793,6.2793,6.2793,6.2793,6.2793,6.2793,6.2793,6.2793,0.0,0.0,0.0,0.0,0.0,6.2793,6.2793,6.2793,0.0,0.0,0.0,0.0,0.0,6.2793,6.2793,6.2793,6.2793,6.2793,6.2793,6.2829,6.2903,6.3723,6.453,6.5398,6.6145,6.6953,6.77,6.77,6.77,6.77,6.77,6.77,6.77,6.77,6.77,6.77,6.77,6.77,6.77,5.9832,5.9979,6.0114,6.0114,6.026,6.0603,6.1227,6.13,6.1557,6.2132,6.2242,6.2316,6.2499,6.2499,6.2426,6.2242,6.2242,6.2316,6.2499,6.2499,6.2609,6.2793,6.2793,6.2793,6.2793,6.2793,6.2793,6.2793,6.2793,6.2793,6.2793,6.2793,6.2793,6.2793,6.2793,6.2793,6.2793,6.2793,6.2793,6.2793,6.2793,6.2793,6.2793,6.2793,6.2793,6.2793,6.2793,6.2793,6.2793,6.2793,6.2793,6.2793,6.2793,6.2793,6.2793,6.2793,6.2793,6.2793,6.2793,6.2793,6.2793,6.2793,6.2793,6.2793,6.2793,6.2793,6.2793,6.2793,6.2793,6.2793,6.2793,6.2793,6.2793,6.2793,6.2793,6.2793,6.2793,6.2793,0.0,0.0,6.2793,6.2793,6.2793,6.2793,6.2793,0.0,0.0,6.2793,6.2793,6.2793,6.2793,6.2793,6.2793,6.2793,6.2793,6.2793,6.3123,6.3796,6.3992,6.4824,6.6219,6.6402,6.6953,6.77,6.77,6.77,6.77,6.77,6.77,6.77,6.77,6.77,6.77,6.77,6.77,6.77,6.0419,6.0713,6.0933,6.0933,6.1263,6.1618,6.2071,6.2144,6.2328,6.2756,6.2793,6.2793,6.2793,6.2793,6.2793,6.2793,6.2793,6.2793,6.2793,6.2793,6.2793,6.2793,6.2793,6.2793,6.2793,6.2793,6.2793,6.2793,6.2793,6.2793,6.2793,6.2793,6.2793,6.2793,6.2793,6.2793,6.2793,6.2793,6.2793,6.2793,6.2793,6.2793,6.2793,6.2793,6.2793,6.2793,6.2793,6.2793,6.2793,6.2793,6.2793,6.2793,6.2793,6.2793,6.2793,6.2793,6.2793,6.2793,6.2793,6.2793,6.2793,6.2793,6.2793,6.2793,6.2793,6.2793,6.2793,6.2793,6.2793,6.2793,6.2793,6.2793,6.2793,6.2793,6.2793,6.2793,6.2793,6.2793,6.2793,6.2793,6.2793,6.2793,6.2793,6.2793,6.2793,6.2793,6.2793,0.0,6.2793,6.2793,6.2793,6.2793,6.2793,6.2793,6.2793,6.3209,6.3613,6.4103,6.4874,6.5632,6.6512,6.688,6.7297,6.77,6.77,6.77,6.77,6.77,6.77,6.77,6.77,6.77,6.77,6.77,6.77,6.77,6.0774,6.13,6.1777,6.1777,6.2365,6.2793,6.2793,6.2793,6.2793,6.2793,6.2793,6.2793,6.2793,6.2793,6.2793,6.2793,6.2793,6.2793,6.2793,6.2793,6.2793,6.2793,6.2793,6.2793,6.2793,6.2793,6.2793,6.2793,6.2793,6.2793,6.2793,6.2793,6.2793,6.2793,6.2793,6.2793,6.2793,6.2793,6.2793,6.2793,6.2793,6.2793,6.2793,6.2793,6.2793,6.2793,6.2793,6.2793,6.2793,6.2793,6.2793,6.2793,6.2793,6.2793,6.2793,6.2793,6.2793,6.2793,6.2793,6.2793,6.2793,6.2793,6.2793,6.2793,6.2793,6.2793,6.2793,6.2793,6.2793,6.2793,6.2793,6.2793,6.2793,6.2793,6.2793,6.2793,6.2793,0.0,6.2793,6.2793,6.2793,6.2793,6.2793,6.2793,6.2793,6.2793,6.2793,6.2793,6.2793,6.2793,6.2793,6.2793,6.2793,6.2866,6.2976,6.3723,6.4213,6.447,6.5852,6.6549,6.6696,6.7407,6.77,6.77,6.77,6.77,6.77,6.77,6.77,6.77,6.77,6.77,6.77,6.77,6.77,6.77,6.2426,6.2536,6.2609,6.2609,6.2719,6.2793,6.2793,6.2793,6.2793,6.2793,6.2793,6.2793,6.2793,6.2793,6.2793,6.2793,6.2793,6.2793,6.2793,6.2793,6.2793,6.2793,6.2793,6.2793,6.2793,6.2793,6.2793,6.2793,6.2793,6.2793,6.2793,6.2793,6.2793,6.2793,6.2793,6.2793,6.2793,6.2793,6.2793,6.2793,6.2793,6.2793,6.2793,6.2793,6.2793,6.2793,6.2793,6.2793,6.2793,6.2793,6.2793,6.2793,6.2793,6.2793,6.2793,6.2793,6.2793,6.2793,6.2793,6.2793,6.2793,6.2793,6.2793,6.2793,6.2793,6.2793,6.2793,6.2793,6.2793,6.2793,6.2793,6.2793,6.2793,6.2793,6.2793,6.2793,6.2793,0.0,6.2793,6.2793,6.2793,6.2793,6.2793,6.2793,6.2793,6.2793,6.2793,6.2793,6.2793,6.2793,6.2793,6.2793,6.2793,6.316,6.387,6.4029,6.4787,6.6109,6.6366,6.6843,6.7517,6.7627,6.77,6.77,6.77,6.77,6.77,6.77,6.77,6.77,6.77,6.77,6.77,6.77,6.77,6.77,6.2793,6.2793,6.2793,6.2793,6.2793,6.2793,6.2793,6.2793,6.2793,6.2793,6.2793,6.2793,6.2793,6.2793,6.2793,6.2793,6.2793,6.2793,6.2793,6.2793,6.2793,6.2793,6.2793,6.2793,6.2793,6.2793,6.2793,6.2793,6.2793,6.2793,6.2793,6.2793,6.2793,6.2793,6.2793,6.2793,6.2793,6.2793,6.2793,6.2793,6.2793,6.2793,6.2793,6.2793,6.2793,6.2793,6.2793,6.2793,6.2793,6.2793,6.2793,6.2793,6.2793,6.2793,6.2793,6.2793,6.2793,6.2793,6.2793,6.2793,6.2793,6.2793,6.2793,6.2793,6.2793,6.2793,6.2793,6.2793,6.2793,6.2793,6.2793,6.2793,6.2793,6.2793,6.2793,6.2793,6.2793,6.2793,6.2793,6.2793,6.2793,6.2793,6.2793,6.2793,6.2793,6.2793,6.2793,6.2793,6.2793,6.2793,6.2793,6.2793,6.2793,6.3196,6.4103,6.453,6.5338,6.6512,6.6953,6.7333,6.77,6.77,6.77,6.77,6.77,6.77,6.77,6.77,6.77,6.77,6.77,6.77,6.77,6.77,6.77,6.77,6.2793,6.2793,6.2793,6.2793,6.2793,6.2793,6.2793,6.2793,6.2793,6.2793,6.2793,6.2793,6.2793,6.2793,6.2793,6.2793,6.2793,6.2793,6.2793,6.2793,6.2793,6.2793,6.2793,6.2793,6.2793,6.2793,6.2793,6.2793,6.2793,6.2793,6.2793,6.2793,6.2793,6.2793,6.2793,6.2793,6.2793,6.2793,6.2793,6.2793,6.2793,6.2793,6.2793,6.2793,6.2793,6.2793,6.2793,6.2793,6.2793,6.2793,6.2793,6.2793,6.2793,6.2793,6.2793,6.2793,6.2793,6.2793,6.2793,6.2793,6.2793,6.2793,6.2793,6.2793,6.2793,6.2793,6.2793,6.2793,6.2793,6.2793,6.2793,6.2793,6.2793,6.2793,0.0,6.2793,6.2793,6.2793,6.2793,6.2793,6.2793,6.2793,6.2793,6.2793,6.2793,6.2793,6.2793,6.2793,6.2793,6.2793,6.2903,6.3086,6.3086,6.3503,6.4347,6.5191,6.5999,6.6769,6.7407,6.77,6.77,6.77,6.77,6.77,6.77,6.77,6.77,6.77,6.77,6.77,6.77,6.77,6.77,6.77,6.77,6.77,6.2793,6.2793,6.2793,6.2793,6.2793,6.2793,6.2793,6.2793,6.2793,6.2793,6.2793,6.2793,6.2793,6.2793,6.2793,6.2793,6.2793,6.2793,6.2793,6.2793,6.2793,6.2793,6.2793,6.2793,6.2793,6.2793,6.2793,6.2793,6.2793,6.2793,6.2793,6.2793,6.2793,6.2793,6.2793,6.2793,6.2793,6.2793,6.2793,6.2793,6.2793,6.2793,6.2793,6.2793,6.2793,6.2793,6.2793,6.2793,6.2793,6.2793,6.2793,6.2793,6.2793,6.2793,6.2793,6.2793,6.2793,6.2793,6.2793,6.2793,6.2793,6.2793,6.2793,6.2793,6.2793,6.2793,6.2793,6.2793,6.2793,6.2793,6.2793,6.2793,6.2793,6.2793,0.0,0.0,6.2793,6.2793,6.2793,6.2793,6.2793,6.2793,6.2793,6.2793,6.2793,6.2793,6.2793,6.2793,6.2793,6.2793,6.3172,6.3992,6.3992,6.4383,6.5178,6.5999,6.6806,6.7627,6.7664,6.77,6.77,6.77,6.77,6.77,6.77,6.77,6.77,6.77,6.77,6.77,6.77,6.77,6.77,6.77,6.77,6.77,6.2793,6.2793,6.2793,6.2793,6.2793,6.2793,6.2793,6.2793,6.2793,6.2793,6.2793,6.2793,6.2793,6.2793,6.2793,6.2793,6.2793,6.2793,6.2793,6.2793,6.2793,6.2793,6.2793,6.2793,6.2793,6.2793,6.2793,6.2793,6.2793,6.2793,6.2793,6.2793,6.2793,6.2793,6.2793,6.2793,6.2793,6.2793,6.2793,6.2793,6.2793,6.2793,6.2793,6.2793,6.2793,6.2793,6.2793,6.2793,6.2793,6.2793,6.2793,6.2793,6.2793,6.2793,6.2793,6.2793,6.2793,6.2793,6.2793,6.2793,6.2793,6.2793,6.2793,6.2793,6.2793,6.2793,6.2793,6.2793,6.2793,6.2793,6.2793,6.2793,6.2793,6.2793,0.0,6.2793,6.2793,6.2793,6.2793,6.2793,6.2793,6.2793,6.2793,6.2793,6.2793,6.2793,6.2793,6.2793,6.2793,6.3319,6.3759,6.4103,6.5057,6.5742,6.6035,6.6366,6.688,6.77,6.77,6.77,6.77,6.77,6.77,6.77,6.77,6.77,6.77,6.77,6.77,6.77,6.77,6.77,6.77,6.77,6.77,6.77,6.2793,6.2793,6.2793,6.2793,6.2793,6.2793,6.2793,6.2793,6.2793,6.2793,6.2793,6.2793,6.2793,6.2793,6.2793,6.2793,6.2793,6.2793,6.2793,6.2793,6.2793,6.2793,6.2793,6.2793,6.2793,6.2793,6.2793,6.2793,6.2793,6.2793,6.2793,6.2793,6.2793,6.2793,6.2793,6.2793,6.2793,6.2793,6.2793,6.2793,6.2793,6.2793,6.2793,6.2793,6.2793,6.2793,6.2793,6.2793,6.2793,6.2793,6.2793,6.2793,6.2793,6.2793,6.2793,6.2793,6.2793,6.2793,6.2793,6.2793,6.2793,6.2793,6.2793,6.2793,6.2793,6.2793,6.2793,6.2793,6.2793,6.2793,6.2793,6.2793,6.2793,6.2793,6.2793,6.2793,6.2793,6.2793,6.2793,6.2793,6.2793,6.2793,6.2793,6.2793,6.2793,6.2793,6.2793,6.2903,6.3196,6.3759,6.4323,6.4824,6.5925,6.6623,6.688,6.688,6.7136,6.77,6.77,6.77,6.77,6.77,6.77,6.77,6.77,6.77,6.77,6.77,6.77,6.77,6.77,6.77,6.77,6.77,6.77,6.77,6.2793,6.2793,6.2793,6.2793,6.2793,6.2793,6.2793,6.2793,6.2793,6.2793,6.2793,6.2793,6.2793,6.2793,6.2793,6.2793,6.2793,6.2793,6.2793,6.2793,6.2793,6.2793,6.2793,6.2793,6.2793,6.2793,6.2793,6.2793,6.2793,6.2793,6.2793,6.2793,6.2793,6.2793,6.2793,6.2793,6.2793,6.2793,6.2793,6.2793,6.2793,6.2793,6.2793,6.2793,6.2793,6.2793,6.2793,6.2793,6.2793,6.2793,6.2793,6.2793,6.2793,6.2793,6.2793,6.2793,6.2793,6.2793,6.2793,6.2793,6.2793,6.2793,6.2793,6.2793,6.2793,6.2793,6.2793,6.2793,6.2793,6.2793,6.2793,6.2793,6.2793,6.2793,6.2793,6.2793,6.2793,6.2793,6.2793,6.2793,6.2793,6.2793,6.2793,6.2793,6.2793,6.2793,6.2793,6.3196,6.4066,6.4103,6.4874,6.6439,6.6512,6.688,6.77,6.77,6.77,6.77,6.77,6.77,6.77,6.77,6.77,6.77,6.77,6.77,6.77,6.77,6.77,6.77,6.77,6.77,6.77,6.77,6.77,6.77,6.2793,6.2793,6.2793,6.2793,6.2793,6.2793,6.2793,6.2793,6.2793,6.2793,6.2793,6.2793,6.2793,6.2793,6.2793,6.2793,6.2793,6.2793,6.2793,6.2793,6.2793,6.2793,6.2793,6.2793,6.2793,6.2793,6.2793,6.2793,6.2793,6.2793,6.2793,6.2793,6.2793,6.2793,6.2793,6.2793,6.2793,6.2793,6.2793,6.2793,6.2793,6.2793,6.2793,6.2793,6.2793,6.2793,6.2793,6.2793,6.2793,6.2793,6.2793,6.2793,6.2793,6.2793,6.2793,6.2793,6.2793,6.2793,6.2793,6.2793,6.2793,6.2793,6.2793,6.2793,6.2793,6.2793,6.2793,6.2793,6.2793,6.2793,6.2793,6.2793,6.2793,6.2793,6.2793,6.2793,6.2793,6.2793,6.2793,6.2793,6.2793,6.2793,6.2793,6.2793,6.2793,6.2793,6.3356,6.3833,6.4103,6.5154,6.5999,6.6476,6.704,6.748,6.77,6.77,6.77,6.77,6.77,6.77,6.77,6.77,6.77,6.77,6.77,6.77,6.77,6.77,6.77,6.77,6.77,6.77,6.77,6.77,6.77,6.77,6.2793,6.2793,6.2793,6.2793,6.2793,6.2793,6.2793,6.2793,6.2793,6.2793,6.2793,6.2793,6.2793,6.2793,6.2793,6.2793,6.2793,6.2793,6.2793,6.2793,6.2793,6.2793,6.2793,6.2793,6.2793,6.2793,6.2793,6.2793,6.2793,6.2793,6.2793,6.2793,6.2793,6.2793,6.2793,6.2793,6.2793,6.2793,6.2793,6.2793,6.2793,6.2793,6.2793,6.2793,6.2793,6.2793,6.2793,6.2793,6.2793,6.2793,6.2793,6.2793,6.2793,6.2793,6.2793,6.2793,6.2793,6.2793,6.2793,6.2793,6.2793,6.2793,6.2793,6.2793,6.2793,6.2793,6.2793,6.2793,6.2793,6.2793,6.2793,6.2793,6.2793,6.2793,6.2793,6.2793,6.2793,6.2793,6.2793,6.2793,6.2793,6.2793,6.2793,6.2793,6.2939,6.3282,6.3796,6.4396,6.502,6.5962,6.6659,6.6966,6.7444,6.77,6.77,6.77,6.77,6.77,6.77,6.77,6.77,6.77,6.77,6.77,6.77,6.77,6.77,6.77,6.77,6.77,6.77,6.77,6.77,6.77,6.77,6.77,6.2793,6.2793,6.2793,6.2793,6.2793,6.2793,6.2793,6.2793,6.2793,6.2793,6.2793,6.2793,6.2793,6.2793,6.2793,6.2793,6.2793,6.2793,6.2793,6.2793,6.2793,6.2793,6.2793,6.2793,6.2793,6.2793,6.2793,6.2793,6.2793,6.2793,6.2793,6.2793,6.2793,6.2793,6.2793,6.2793,6.2793,6.2793,6.2793,6.2793,6.2793,6.2793,6.2793,6.2793,6.2793,6.2793,6.2793,6.2793,6.2793,6.2793,6.2793,6.2793,6.2793,6.2793,6.2793,6.2793,6.2793,6.2793,6.2793,6.2793,6.2793,6.2793,6.2793,6.2793,6.2793,6.2793,6.2793,6.2793,6.2793,6.2793,6.2793,6.2793,6.2793,6.2793,6.2793,6.2793,6.2793,6.2793,6.2793,6.2793,6.2793,6.2793,6.2793,6.2866,6.3246,6.4029,6.4249,6.4934,6.6402,6.6549,6.6953,6.7664,6.77,6.77,6.77,6.77,6.77,6.77,6.77,6.77,6.77,6.77,6.77,6.77,6.77,6.77,6.77,6.77,6.77,6.77,6.77,6.77,6.77,6.77,6.77,6.77,6.2793,6.2793,6.2793,6.2793,6.2793,6.2793,6.2793,6.2793,6.2793,6.2793,6.2793,6.2793,6.2793,6.2793,6.2793,6.2793,6.2793,6.2793,6.2793,6.2793,6.2793,6.2793,6.2793,6.2793,6.2793,6.2793,6.2793,6.2793,6.2793,6.2793,6.2793,6.2793,6.2793,6.2793,6.2793,6.2793,6.2793,6.2793,6.2793,6.2793,6.2793,6.2793,6.2793,6.2793,6.2793,6.2793,6.2793,6.2793,6.2793,6.2793,6.2793,6.2793,6.2793,6.2793,6.2793,6.2793,6.2793,6.2793,6.2793,6.2793,6.2793,6.2793,6.2793,6.2793,6.2793,6.2793,6.2793,6.2793,6.2793,6.2793,6.2793,6.2793,6.2793,6.2793,6.2793,6.2793,6.2793,6.2793,6.2793,6.2793,6.2793,6.2793,6.2793,6.3429,6.3906,6.4103,6.5264,6.6109,6.6476,6.7113,6.7517,6.77,6.77,6.77,6.77,6.77,6.77,6.77,6.77,6.77,6.77,6.77,6.77,6.77,6.77,6.77,6.77,6.77,6.77,6.77,6.77,6.77,6.77,6.77,6.77,6.77,6.2793,6.2793,6.2793,6.2793,6.2793,6.2793,6.2793,6.2793,6.2793,6.2793,6.2793,6.2793,6.2793,6.2793,6.2793,6.2793,6.2793,6.2793,6.2793,6.2793,6.2793,6.2793,6.2793,6.2793,6.2793,6.2793,6.2793,6.2793,6.2793,6.2793,6.2793,6.2793,6.2793,6.2793,6.2793,6.2793,6.2793,6.2793,6.2793,6.2793,6.2793,6.2793,6.2793,6.2793,6.2793,6.2793,6.2793,6.2793,6.2793,6.2793,6.2793,6.2793,6.2793,6.2793,6.2793,6.2793,6.2793,6.2793,6.2793,6.2793,6.2793,6.2793,6.2793,6.2793,6.2793,6.2793,6.2793,6.2793,6.2793,6.2793,6.2793,6.2793,6.2793,6.2793,6.2793,6.2793,6.2793,6.2793,6.2793,6.2793,6.2793,6.2793,6.2793,6.3576,6.4237,6.464,6.5815,6.6659,6.704,6.748,6.77,6.77,6.77,6.77,6.77,6.77,6.77,6.77,6.77,6.77,6.77,6.77,6.77,6.77,6.77,6.77,6.77,6.77,6.77,6.77,6.77,6.77,6.77,6.77,6.77,6.77,6.2793,6.2793,6.2793,6.2793,6.2793,6.2793,6.2793,6.2793,6.2793,6.2793,6.2793,6.2793,6.2793,6.2793,6.2793,6.2793,6.2793,6.2793,6.2793,6.2793,6.2793,6.2793,6.2793,6.2793,6.2793,6.2793,6.2793,6.2793,6.2793,6.2793,6.2793,6.2793,6.2793,6.2793,6.2793,6.2793,6.2793,6.2793,6.2793,6.2793,6.2793,6.2793,6.2793,6.2793,6.2793,6.2793,6.2793,6.2793,6.2793,6.2793,6.2793,6.2793,6.2793,6.2793,6.2793,6.2793,6.2793,6.2793,6.2793,6.2793,6.2793,6.2793,6.2793,6.2793,6.2793,6.2793,6.2793,6.2793,6.2793,6.2793,6.2793,6.2793,6.2793,6.2793,6.2793,6.2793,6.2793,6.2793,6.2793,6.2793,6.2793,6.2866,6.3013,6.3796,6.464,6.5435,6.6256,6.699,6.7664,6.77,6.77,6.77,6.77,6.77,6.77,6.77,6.77,6.77,6.77,6.77,6.77,6.77,6.77,6.77,6.77,6.77,6.77,6.77,6.77,6.77,6.77,6.77,6.77,6.77,6.77,6.77,6.2793,6.2793,6.2793,6.2793,6.2793,6.2793,6.2793,6.2793,6.2793,6.2793,6.2793,6.2793,6.2793,6.2793,6.2793,6.2793,6.2793,6.2793,6.2793,6.2793,6.2793,6.2793,6.2793,6.2793,6.2793,6.2793,6.2793,6.2793,6.2793,6.2793,6.2793,6.2793,6.2793,6.2793,6.2793,6.2793,6.2793,6.2793,6.2793,6.2793,6.2793,6.2793,6.2793,6.2793,6.2793,6.2793,6.2793,6.2793,6.2793,6.2793,6.2793,6.2793,6.2793,6.2793,6.2793,6.2793,6.2793,6.2793,6.2793,6.2793,6.2793,6.2793,6.2793,6.2793,6.2793,6.2793,6.2793,6.2793,6.2793,6.2793,6.2793,6.2793,6.2793,6.2793,6.2793,6.2793,6.2793,6.2793,6.2793,6.2793,6.2793,6.3086,6.3833,6.4677,6.5472,6.6292,6.7076,6.759,6.77,6.77,6.77,6.77,6.77,6.77,6.77,6.77,6.77,6.77,6.77,6.77,6.77,6.77,6.77,6.77,6.77,6.77,6.77,6.77,6.77,6.77,6.77,6.77,6.77,6.77,6.77,6.77,6.2793,6.2793,6.2793,6.2793,6.2793,6.2793,6.2793,6.2793,6.2793,6.2793,6.2793,6.2793,6.2793,6.2793,6.2793,6.2793,6.2793,6.2793,6.2793,6.2793,6.2793,6.2793,6.2793,6.2793,6.2793,6.2793,6.2793,6.2793,6.2793,6.2793,6.2793,6.2793,6.2793,6.2793,6.2793,6.2793,6.2793,6.2793,6.2793,6.2793,6.2793,6.2793,6.2793,6.2793,6.2793,6.2793,6.2793,6.2793,6.2793,6.2793,6.2793,6.2793,6.2793,6.2793,6.2793,6.2793,6.2793,6.2793,6.2793,6.2793,6.2793,6.2793,6.2793,6.2793,6.2793,6.2793,6.2793,6.2793,6.2793,6.2793,6.2793,6.2793,6.2793,6.2793,6.2793,6.2793,6.2793,6.2793,6.2793,6.2793,6.3246,6.3686,6.4066,6.5228,6.6109,6.6476,6.726,6.77,6.77,6.77,6.77,6.77,6.77,6.77,6.77,6.77,6.77,6.77,6.77,6.77,6.77,6.77,6.77,6.77,6.77,6.77,6.77,6.77,6.77,6.77,6.77,6.77,6.77,6.77,6.77,6.77]}]]